GFSGL_500_spd_000.txt.gz
Wind_Speed
58 59 61 63 65 70 74 77 81 86 89 93 94 95 99 100 93 77 65 59 57 51 49 53 56 51 49 53 54 56 55 53 55 51 50 44 46 49 47 47 45 42 39
60 62 64 66 70 74 76 80 85 87 91 92 96 98 99 89 73 60 54 45 40 41 40 41 45 47 50 52 52 49 45 45 48 47 42 41 44 47 50 50 49 47 43
62 63 66 70 73 75 78 83 86 90 92 98 100 99 86 68 52 44 36 32 33 39 41 41 44 49 46 47 43 42 44 47 50 52 46 45 40 42 45 47 50 52 49
62 65 69 72 75 77 82 86 88 90 97 99 97 83 65 48 37 34 35 33 35 39 43 43 50 45 48 43 40 43 46 48 50 51 48 44 42 40 42 45 46 52 54
64 68 71 74 77 80 84 87 89 96 96 95 83 65 49 39 34 35 35 36 39 44 46 46 51 48 47 40 40 42 44 47 47 45 42 40 40 41 40 44 47 48 56
65 69 73 76 79 83 86 87 97 97 94 84 67 51 41 35 33 36 37 39 42 46 46 48 48 47 41 37 39 42 46 49 45 40 35 36 38 42 43 43 46 48 52
69 72 75 78 82 86 88 95 97 93 84 69 53 42 37 33 35 37 38 41 44 48 46 49 46 44 36 36 38 43 47 46 43 35 31 34 35 35 38 39 42 46 46
71 74 78 81 84 87 93 96 92 82 69 56 44 38 34 33 36 36 38 41 45 47 46 50 45 39 34 36 38 44 46 43 39 31 28 26 25 24 25 29 36 39 41
74 78 81 83 85 92 93 90 84 70 58 45 37 33 32 34 36 36 38 41 43 43 44 46 43 35 34 34 39 42 41 39 34 26 21 18 17 20 21 23 26 32 34
78 79 81 83 90 92 88 84 71 60 49 38 34 32 32 33 35 36 38 41 42 41 44 41 41 32 31 32 37 39 38 35 30 22 15 13 12 19 23 23 24 26 30
78 79 81 90 93 87 82 71 61 52 41 36 33 33 34 34 36 37 39 42 38 41 41 36 35 29 28 30 35 36 36 32 29 20 12 9 8 9 15 18 19 24 29
78 80 89 91 88 81 70 61 52 44 36 34 34 34 32 33 34 37 39 39 38 40 39 34 31 25 24 27 32 31 32 29 27 21 14 9 6 5 6 12 16 21 25
79 88 89 87 80 69 61 53 45 38 34 34 33 31 31 33 34 36 37 38 39 39 38 31 28 22 22 24 27 27 28 26 23 21 15 11 9 6 6 10 14 19 22
87 87 87 79 68 61 53 46 40 35 32 30 30 31 32 33 34 35 36 37 38 37 36 30 27 22 20 21 22 22 23 23 20 16 15 11 8 7 8 11 14 17 20
85 85 77 67 62 55 46 39 35 31 29 29 31 31 31 31 33 34 35 36 36 36 35 28 26 24 18 17 17 19 19 19 17 15 12 10 8 6 8 10 12 15 16
82 74 66 62 58 48 40 34 31 32 32 29 29 28 29 32 33 33 34 35 35 34 32 27 23 25 18 16 14 16 16 15 14 12 12 10 7 3 2 5 9 11 12
72 66 60 59 52 43 37 33 31 32 31 27 26 27 31 32 31 32 33 33 33 32 29 24 21 22 20 15 13 13 15 13 10 9 8 8 8 7 4 4 8 10 10
67 61 58 55 45 39 34 31 30 30 27 25 26 29 31 31 30 31 31 32 31 30 27 23 20 20 20 16 14 12 11 11 10 7 6 4 5 6 7 7 7 8 9
63 57 54 47 39 35 31 29 28 26 23 24 29 31 31 30 29 31 30 30 30 29 25 22 20 19 19 18 15 14 13 11 10 9 8 5 2 2 3 5 6 7 8
58 54 49 41 35 31 28 25 24 24 26 27 30 30 28 29 29 29 28 29 29 27 25 22 20 19 18 18 17 15 15 16 14 11 10 10 9 7 5 5 6 7 8
55 49 43 36 32 30 28 25 25 27 28 29 30 30 28 28 29 28 27 28 28 27 26 25 23 21 20 20 19 19 17 16 20 18 15 13 13 12 11 11 11 11 11
49 44 39 34 32 30 28 27 27 29 31 32 30 28 28 28 28 27 25 25 26 27 27 26 25 24 22 21 21 20 20 20 19 22 24 22 18 16 16 17 17 17 17
44 39 36 33 31 30 28 27 29 29 29 30 28 28 28 28 28 28 26 23 23 23 24 25 26 26 25 24 23 22 21 20 20 21 22 27 29 26 23 20 21 22 22
42 37 34 33 31 30 29 28 28 29 29 30 31 31 30 30 30 29 27 25 23 22 21 22 24 27 28 28 26 25 23 22 21 21 22 24 27 32 33 30 27 25 24
42 38 35 34 33 34 34 34 34 34 34 33 33 34 34 33 32 31 30 28 26 23 22 22 23 25 27 31 31 29 27 24 22 22 22 22 24 26 30 35 37 35 32
42 39 37 36 35 36 37 38 38 37 37 37 37 37 37 36 34 32 31 30 28 26 25 23 22 24 27 28 32 33 30 26 22 21 20 20 21 23 25 28 32 36 38

GFSGL_500_spd_003.txt.gz
Wind_Speed
53 55 58 60 59 60 63 66 69 74 79 82 86 90 94 99 102 97 79 63 50 40 37 35 32 36 38 39 46 52 48 52 53 40 43 40 41 41 39 42 47 47 42
55 58 60 60 61 63 65 70 74 78 83 87 89 93 98 100 93 73 57 43 38 37 36 34 35 38 42 43 50 46 47 47 44 39 40 41 43 44 42 40 41 46 49
58 61 62 62 63 66 70 74 77 82 86 88 91 97 98 89 70 56 43 37 37 36 35 36 39 43 45 45 47 44 44 39 41 42 40 43 44 44 43 41 41 41 47
60 63 63 64 66 69 73 76 81 85 86 91 98 97 85 68 56 44 38 34 36 36 37 40 42 47 46 47 45 46 38 39 42 46 47 48 45 43 40 39 40 40 42
62 63 63 65 68 71 76 80 82 86 91 97 96 84 68 57 45 39 35 34 35 36 38 41 44 48 46 48 46 41 38 41 44 48 50 48 43 39 37 37 39 41 38
62 63 64 67 70 74 78 81 84 91 96 95 83 69 58 45 39 35 32 33 35 36 38 41 45 45 44 44 44 38 39 41 46 48 47 45 40 34 32 35 37 40 40
63 64 66 69 73 77 80 82 89 94 93 82 69 59 47 38 35 33 33 35 35 36 37 40 43 43 44 42 39 36 38 43 45 46 44 40 33 30 30 33 38 39 41
63 65 69 73 76 79 81 87 93 91 79 70 61 49 38 34 32 32 33 34 36 37 39 42 39 41 44 41 34 34 38 40 42 43 38 32 24 23 24 26 30 34 39
65 69 71 76 78 79 86 91 89 78 70 63 52 42 35 33 33 33 34 35 35 37 39 38 39 40 41 37 30 32 36 38 40 38 32 27 20 18 18 14 15 21 30
68 70 74 78 79 85 90 88 77 71 65 56 45 37 33 33 33 31 32 33 35 36 37 37 39 39 36 32 28 28 33 34 36 35 30 23 19 14 14 15 14 15 21
71 73 77 79 83 89 86 78 71 66 59 48 40 35 32 30 29 30 31 33 34 35 35 36 37 35 32 28 25 27 31 31 33 31 28 22 16 12 9 12 19 18 19
73 76 77 81 86 87 76 72 66 61 50 41 36 32 28 28 29 29 30 33 34 33 35 34 35 31 29 24 23 25 28 29 29 28 26 21 15 9 4 4 11 16 20
74 76 80 84 85 77 71 66 61 52 42 35 32 30 29 28 27 28 31 33 33 34 34 33 33 28 26 23 21 22 25 26 26 24 22 19 15 11 7 1 7 13 18
76 80 81 84 78 69 66 61 54 44 36 32 32 30 27 25 26 29 30 31 33 33 33 32 31 26 22 20 18 18 20 22 23 21 19 16 14 10 7 5 5 8 11
78 80 82 78 69 65 61 54 45 38 33 31 31 27 24 25 27 28 28 30 31 32 32 30 28 25 23 23 16 15 17 19 18 18 17 14 11 10 6 3 6 7 9
78 81 77 71 64 61 54 46 38 34 32 29 26 22 22 25 26 26 27 29 30 31 30 28 26 22 21 21 18 14 14 16 15 15 14 14 12 7 3 3 5 8 10
77 75 71 66 61 55 47 39 34 31 29 26 21 21 24 26 27 26 26 28 29 30 29 27 23 21 20 19 19 15 14 14 14 13 12 12 10 9 5 3 6 8 9
73 69 66 61 58 50 42 35 31 28 26 23 22 24 25 27 25 26 25 27 28 29 29 26 23 20 19 18 17 16 13 13 12 12 11 10 9 7 5 2 5 8 10
67 65 62 58 54 45 39 33 30 27 24 23 25 26 27 28 26 25 25 25 26 27 28 27 23 20 18 17 16 14 15 15 15 12 11 10 8 6 3 1 4 7 9
63 62 58 55 50 41 36 31 29 27 26 26 27 29 30 29 25 24 24 24 24 25 26 27 26 23 20 17 17 17 16 15 15 17 16 12 11 9 7 4 5 7 8
62 60 55 52 46 39 34 29 28 27 27 27 28 28 28 28 26 24 23 23 23 22 22 24 25 25 23 20 18 18 18 18 18 17 17 19 16 13 12 13 11 10 11
61 58 52 50 43 37 32 29 27 27 26 26 28 28 28 28 28 27 25 23 23 22 20 20 20 21 23 23 22 21 20 19 18 18 20 19 22 22 18 17 17 18 17
60 56 51 49 42 36 33 31 30 30 30 31 32 33 33 31 30 29 29 27 24 23 23 21 19 19 20 21 24 25 24 22 19 18 17 19 21 24 27 25 22 22 23
58 53 50 48 43 37 35 34 34 33 33 33 35 35 35 35 34 33 33 32 29 26 24 24 23 22 20 20 22 24 27 27 24 20 18 18 19 22 25 29 32 29 27
54 51 48 48 44 38 37 36 35 34 34 34 33 35 36 35 35 35 35 34 34 30 27 24 24 24 23 21 20 22 24 27 28 25 21 19 18 18 21 25 28 34 36
51 49 48 47 44 39 38 37 36 35 34 34 35 36 36 35 35 34 36 36 36 32 28 26 24 25 24 24 21 21 24 26 27 29 26 22 19 18 17 19 23 27 31

GFSGL_500_spd_006.txt.gz
Wind_Speed
52 54 57 59 61 61 62 62 63 65 68 73 77 82 85 88 95 102 100 81 67 59 50 43 39 38 36 37 40 43 44 45 48 37 43 41 36 37 39 40 41 43 45
56 58 60 62 62 62 64 64 66 70 74 78 81 84 88 95 100 90 75 66 56 46 42 40 38 38 39 42 44 47 48 47 49 42 36 34 36 37 40 42 42 43 44
58 60 62 63 62 65 65 67 70 74 78 81 84 87 95 98 83 73 66 56 45 42 39 38 39 38 40 43 45 48 48 48 46 42 34 37 40 43 46 48 47 44 43
59 61 63 63 64 66 67 69 74 77 80 83 86 94 95 81 72 65 56 45 41 38 35 36 37 37 40 43 46 47 45 46 44 38 37 40 44 49 51 48 45 42 43
60 63 63 64 65 66 68 73 76 79 83 84 91 95 81 73 66 58 46 40 37 35 36 37 38 39 41 44 45 45 46 44 40 38 39 44 47 48 48 44 40 38 40
62 63 64 64 64 67 70 76 78 83 85 88 95 83 75 67 59 48 41 38 36 35 36 36 37 40 42 42 43 43 43 41 36 38 42 44 45 45 44 38 34 32 35
62 64 63 63 66 68 74 77 82 85 87 93 84 76 70 61 51 42 38 36 36 35 35 36 38 40 40 39 40 43 39 36 35 39 40 43 41 40 36 30 30 29 34
62 62 63 65 67 71 76 79 85 86 91 87 77 71 64 54 45 39 36 35 33 33 35 37 38 38 38 39 40 37 34 33 34 37 39 40 39 34 29 25 24 27 32
61 62 63 65 68 72 76 82 86 89 89 80 73 66 56 46 40 37 34 31 32 32 35 36 36 37 38 38 37 34 30 30 32 35 37 35 34 29 24 21 20 20 25
62 64 65 69 72 75 79 85 88 89 82 74 68 58 48 41 36 32 31 31 30 31 34 34 34 37 36 36 33 30 27 27 30 32 34 32 31 26 20 17 16 13 14
64 67 69 72 74 80 85 86 87 84 76 69 60 49 41 36 33 32 31 30 30 31 31 33 35 34 34 33 31 28 24 24 28 29 30 29 29 23 18 13 12 14 11
67 71 70 75 76 85 86 85 83 76 68 60 50 42 36 35 33 31 29 29 30 30 30 32 33 31 31 30 27 24 21 23 26 27 27 26 25 21 17 11 7 12 14
70 72 73 77 82 87 86 83 77 68 60 51 42 37 35 33 29 27 28 29 29 29 30 31 31 29 28 27 24 22 20 22 22 24 25 24 21 20 15 11 3 3 8
70 73 77 80 85 86 84 78 70 60 52 43 37 34 33 29 25 26 28 28 28 29 29 31 29 27 26 24 22 20 17 18 20 20 21 22 20 19 15 11 7 2 6
72 76 78 79 82 82 78 69 59 53 44 37 33 32 29 25 24 27 29 29 27 27 29 30 27 26 24 23 21 21 17 16 17 17 19 20 20 17 14 10 7 4 3
76 76 74 78 77 73 67 60 54 47 39 34 31 28 24 24 26 28 28 27 26 26 27 28 26 24 23 22 21 20 19 16 15 15 16 17 17 17 13 9 5 3 1
76 81 76 74 71 66 59 54 49 41 36 31 29 25 23 24 26 27 28 27 26 25 26 26 26 24 22 21 20 18 18 17 16 16 14 15 15 15 13 10 6 2 2
78 77 71 68 63 59 55 50 46 38 34 30 28 27 26 27 28 29 28 27 25 24 25 25 25 24 22 20 20 18 17 16 15 16 15 13 14 13 12 10 7 6 6
70 67 65 59 57 55 53 49 45 37 33 30 28 27 27 28 26 27 26 25 24 24 24 24 24 24 24 21 19 19 19 18 18 15 15 15 13 12 11 10 7 3 5
67 65 59 55 55 55 51 47 43 36 32 29 27 25 25 25 26 26 25 25 24 24 24 23 23 22 23 23 22 20 19 19 19 18 18 16 16 13 12 10 9 6 5
64 59 56 54 54 52 49 45 40 37 32 30 28 27 27 27 28 28 27 26 24 24 24 23 23 22 20 20 21 22 22 21 20 19 17 18 17 18 16 14 13 12 10
60 57 56 54 53 52 48 44 41 36 34 33 32 32 32 32 32 32 31 30 28 26 25 24 24 24 23 21 21 20 21 22 22 20 18 17 17 19 21 21 18 16 17
61 59 57 56 53 51 47 44 43 38 35 34 34 33 33 32 32 31 31 31 30 30 30 27 26 25 25 25 23 21 20 20 21 22 20 18 17 17 20 23 25 24 21
61 59 57 54 51 49 47 45 43 39 35 35 35 35 33 31 31 33 32 32 32 31 31 30 32 28 26 25 26 24 21 19 20 21 23 21 18 16 18 21 24 28 30
60 57 54 51 49 47 45 44 42 39 35 35 35 35 34 32 31 31 30 30 30 30 31 32 33 33 29 27 26 25 24 21 20 20 21 23 22 19 17 16 20 24 28
58 56 52 49 46 45 44 42 41 38 35 34 34 35 34 34 33 32 32 30 29 30 31 31 32 35 31 28 26 26 25 23 20 19 20 21 21 22 20 18 17 18 21

GFSGL_500_spd_009.txt.gz
Wind_Speed
56 57 59 61 59 61 61 64 65 65 67 66 69 73 77 79 81 88 96 97 87 81 74 65 53 46 43 40 40 43 43 45 47 42 44 44 45 44 42 39 36 36 37
59 60 62 61 61 62 63 65 66 66 66 68 71 76 77 80 86 91 98 91 79 72 62 51 45 42 39 39 41 42 44 46 49 50 41 44 44 42 38 37 37 38 40
61 63 63 60 61 62 65 66 66 66 68 70 73 78 80 85 92 98 92 81 71 61 51 44 40 38 37 40 42 43 45 47 48 46 42 44 40 38 37 38 41 43 45
62 62 61 59 62 64 66 66 66 67 70 72 77 82 85 89 98 95 82 72 62 51 45 41 38 37 38 40 42 44 47 45 43 44 44 40 36 36 38 42 44 46 45
60 59 59 60 62 65 66 65 67 70 72 75 78 85 89 95 96 87 75 64 54 46 42 40 39 38 39 41 44 45 44 42 43 44 40 36 35 38 42 44 43 43 42
58 58 59 61 63 68 65 67 70 73 75 77 82 91 94 98 88 80 68 57 48 43 40 39 37 38 39 41 41 41 43 42 42 40 36 34 37 41 42 42 41 39 34
56 59 61 61 64 66 65 68 72 78 77 80 85 93 95 97 81 74 61 50 44 41 37 35 36 39 40 41 40 42 41 40 38 37 33 35 38 39 40 37 36 35 27
57 56 59 64 63 64 66 71 75 76 79 83 86 93 95 89 74 64 52 44 39 37 36 36 37 39 39 39 40 39 39 38 35 32 33 34 36 38 37 33 33 28 23
56 59 63 65 67 66 71 76 79 77 79 82 86 93 84 77 64 55 45 40 37 36 36 35 37 39 37 38 38 37 37 34 31 29 30 33 34 34 32 30 30 23 20
58 65 71 74 72 70 72 78 79 81 86 80 82 87 76 69 57 48 42 39 36 34 35 36 34 35 37 38 36 34 33 31 26 26 30 32 32 31 29 27 25 19 18
64 64 67 79 80 78 76 76 75 78 78 82 80 76 67 59 50 43 40 37 34 33 34 35 34 34 36 35 34 31 29 27 23 24 28 29 30 28 27 24 20 17 14
71 69 72 83 86 81 74 74 73 77 79 82 75 66 59 52 45 42 39 35 33 33 33 32 32 33 34 32 31 30 28 25 21 23 26 26 28 27 25 20 17 13 9
74 78 77 81 79 73 76 79 79 78 77 72 65 57 52 47 40 37 36 32 32 32 33 31 31 32 32 29 27 27 26 24 20 21 23 24 25 26 22 18 15 9 5
71 79 82 76 74 75 72 72 75 75 67 61 55 50 46 42 38 35 31 32 33 33 31 29 30 31 30 27 25 25 23 22 19 18 21 22 23 24 22 18 12 8 4
80 79 76 76 74 68 69 74 68 62 56 53 50 45 40 37 34 33 32 32 32 31 30 29 29 29 28 25 23 22 22 21 18 17 18 20 21 21 21 17 14 8 4
75 76 80 73 71 71 68 63 57 53 53 50 47 41 37 35 32 32 33 33 34 32 29 28 27 27 27 26 23 22 21 20 19 17 17 18 19 19 19 18 13 10 5
72 78 73 69 68 66 62 58 51 51 49 47 43 37 34 33 32 32 32 32 30 28 27 26 26 25 25 25 23 22 21 21 20 18 17 17 17 18 17 17 15 9 6
74 70 65 63 63 62 57 54 51 50 49 45 42 35 33 31 30 30 29 29 28 27 27 26 25 24 24 24 23 23 22 21 21 20 18 17 16 16 16 15 14 10 6
64 61 62 66 67 64 56 52 52 51 49 45 42 36 32 29 29 27 28 28 28 28 27 25 25 24 23 23 23 23 24 24 23 21 20 18 17 15 14 13 12 10 7
60 63 67 70 65 58 55 54 52 51 49 44 41 37 35 30 29 31 31 31 30 29 29 27 25 24 23 22 21 21 22 24 26 25 22 19 17 17 15 14 12 10 8
63 66 71 68 60 57 55 53 51 49 47 44 41 38 35 35 32 32 33 32 30 30 30 29 27 26 25 24 23 23 22 22 23 25 25 22 19 17 17 16 15 13 11
65 70 68 65 63 61 58 53 50 48 46 43 41 39 36 34 34 34 33 33 31 31 31 30 30 30 28 26 25 23 23 22 21 22 23 24 22 19 17 18 18 18 16
70 70 67 65 63 60 56 53 50 46 44 42 40 39 36 33 34 35 34 33 32 32 31 31 30 30 24 31 30 26 24 23 22 21 22 22 23 22 19 17 18 19 20
71 69 65 61 58 54 49 48 46 44 42 41 40 37 34 32 33 33 33 33 32 31 30 29 29 28 28 28 31 32 27 25 23 22 21 21 20 21 22 19 17 18 20
73 69 65 61 59 57 51 47 45 43 41 39 38 37 34 32 31 31 34 33 33 31 30 28 26 27 28 29 27 33 32 26 26 23 21 19 18 19 20 21 19 17 17
70 67 63 60 58 56 54 49 46 42 40 39 38 36 34 33 31 32 34 34 34 34 33 32 32 31 31 30 30 30 33 28 24 26 24 22 20 20 19 19 19 20 18

GFSGL_500_spd_012.txt.gz
Wind_Speed
52 56 58 60 61 62 61 60 58 60 62 64 62 62 65 68 74 74 79 77 82 95 98 97 77 68 57 48 42 40 38 38 39 37 38 43 47 49 45 44 43 41 39
56 57 59 60 60 60 60 59 59 61 63 62 64 66 67 70 75 75 79 81 89 97 92 85 70 57 47 42 42 40 39 40 42 43 42 43 44 44 43 43 41 39 36
56 58 59 60 56 59 59 60 61 63 62 66 69 69 70 73 78 79 86 87 93 96 84 72 59 50 43 40 40 40 40 41 43 45 42 40 42 43 42 40 37 34 35
55 59 59 57 56 59 61 61 62 65 67 72 72 71 72 78 82 83 89 91 92 87 73 63 52 46 41 40 39 38 41 43 43 43 42 40 42 41 38 34 32 35 37
54 56 55 56 59 63 61 60 66 67 73 78 76 73 74 79 83 83 84 85 88 79 65 55 47 43 38 37 39 39 42 42 43 44 41 41 38 36 32 32 35 37 37
52 53 56 59 62 59 63 64 66 68 79 90 86 79 82 82 77 87 85 84 80 66 57 48 44 41 38 38 37 38 39 41 41 40 40 38 34 30 31 35 38 37 34
52 56 59 58 58 59 66 67 71 79 85 91 88 85 81 73 79 79 81 78 65 56 50 45 42 40 39 39 40 40 42 43 41 39 36 33 29 31 33 35 36 35 31
56 58 56 58 63 66 64 66 68 77 86 89 85 72 73 73 74 73 74 64 56 51 46 42 40 38 37 38 38 39 40 39 38 36 33 29 29 31 33 34 32 31 30
57 56 57 60 62 64 74 77 80 80 81 80 75 70 74 73 69 60 61 57 48 47 43 40 37 38 39 38 37 38 37 36 35 34 30 26 29 31 33 31 30 27 28
57 59 63 64 73 68 79 82 86 80 67 67 74 74 74 64 59 55 53 50 45 43 40 36 35 37 37 37 37 38 34 32 31 30 26 25 28 30 31 29 27 26 24
57 59 62 63 65 81 81 78 74 64 71 79 77 67 62 56 50 49 49 46 41 39 36 35 36 37 36 35 36 36 33 30 28 27 23 23 26 28 30 27 24 23 20
60 61 63 64 69 82 83 79 66 78 80 76 67 59 51 48 47 47 46 42 37 34 34 36 36 35 34 34 35 35 32 29 27 25 22 21 25 26 27 26 23 20 17
63 64 65 73 79 83 80 75 79 67 64 65 59 51 48 47 44 41 40 37 34 33 33 35 35 34 33 33 33 31 30 28 26 25 21 20 22 24 25 25 21 18 14
62 61 68 74 78 76 77 76 70 66 61 55 52 50 47 47 46 42 37 34 31 32 35 35 34 32 30 30 30 30 27 25 24 22 21 19 19 21 23 23 19 16 13
67 70 71 70 73 75 77 59 60 61 58 53 49 47 46 46 45 42 37 34 30 30 32 31 30 28 28 28 28 28 26 23 22 21 21 19 17 18 20 21 21 15 11
62 62 67 72 75 68 59 56 58 57 52 51 49 48 46 44 42 38 36 34 32 30 29 29 28 28 27 26 25 25 25 23 22 21 19 19 18 16 17 18 18 16 11
61 67 72 69 58 57 58 59 60 57 54 51 50 49 46 43 40 36 34 32 31 28 29 28 28 27 26 26 25 24 24 24 24 23 21 19 18 17 14 15 15 15 11
67 66 64 61 61 61 60 61 63 63 58 54 51 47 45 42 39 35 33 30 30 30 30 30 29 27 27 25 24 23 23 24 25 26 26 21 18 16 15 13 13 12 11
60 60 60 62 61 63 64 64 65 64 61 56 51 46 44 41 38 35 34 31 32 31 32 31 30 28 27 25 24 23 23 23 24 25 27 27 22 17 14 13 11 10 9
57 59 63 61 61 61 62 64 63 61 59 55 51 45 43 41 37 35 33 34 32 32 33 31 30 29 27 25 24 24 23 22 22 22 22 25 27 23 17 13 12 10 9
60 63 63 62 62 64 66 67 64 59 53 49 47 44 42 41 38 36 33 30 31 32 32 31 30 31 30 27 26 24 25 24 22 20 20 21 24 26 22 16 13 11 11
63 63 64 66 69 70 68 66 63 60 56 50 46 42 40 40 38 37 34 31 30 32 33 31 31 30 30 29 28 22 23 26 25 22 19 20 21 21 22 21 16 12 12
65 66 69 71 72 73 70 66 63 62 58 52 47 44 40 39 37 35 32 30 30 32 32 33 32 29 27 26 25 24 27 24 26 26 21 19 18 18 18 19 20 17 12
69 73 75 76 75 72 68 64 61 62 56 51 45 43 41 38 36 34 31 30 31 31 32 33 32 29 27 26 24 24 25 25 23 25 24 20 18 17 14 16 17 18 17
76 78 78 75 70 65 62 58 54 53 51 46 41 40 39 37 35 33 31 31 32 32 31 33 31 30 30 29 29 29 28 28 26 28 28 23 20 19 17 16 16 17 16
79 74 69 64 60 56 53 50 48 45 44 41 40 38 37 36 36 34 34 33 32 33 33 34 32 32 31 31 32 33 32 29 28 26 25 23 20 21 20 19 18 18 17

GFSGL_500_spd_015.txt.gz
Wind_Speed
47 49 51 53 54 55 57 57 59 58 58 59 59 60 63 68 70 73 77 88 90 89 88 87 79 83 82 72 58 54 46 42 38 36 35 36 38 40 41 44 42 42 42
49 49 51 53 55 57 56 57 56 57 60 60 59 62 66 67 71 73 83 87 93 93 88 83 81 83 76 58 48 46 42 40 38 37 36 37 39 40 41 41 40 42 41
53 52 53 55 55 55 53 54 57 59 58 61 63 65 68 73 74 78 79 84 83 82 81 82 77 67 57 45 42 42 39 39 39 40 39 38 39 42 41 40 41 40 38
55 55 52 54 54 52 54 57 60 56 60 64 67 71 77 80 79 83 84 79 77 83 83 79 69 58 48 38 40 39 39 39 39 39 38 40 42 40 41 38 35 34 31
53 52 53 54 54 56 59 60 60 61 66 67 70 77 81 82 84 79 74 78 83 80 69 63 56 49 42 38 37 37 37 38 39 38 40 41 40 38 36 33 29 26 29
50 50 54 56 58 58 56 58 62 66 71 78 86 89 91 89 78 76 72 81 71 63 55 55 50 44 40 38 36 36 37 35 34 36 36 37 36 34 29 25 27 29 29
50 54 56 56 56 55 58 61 66 72 71 80 85 87 84 83 78 72 73 67 60 53 52 49 42 40 37 35 35 36 36 36 38 38 34 34 30 28 23 25 28 30 29
53 54 54 55 56 61 61 66 63 71 77 78 80 84 77 70 74 73 67 60 52 50 49 43 39 36 34 34 35 36 35 36 37 36 34 32 29 24 25 27 27 29 28
53 54 56 59 60 59 68 67 66 71 77 82 86 81 74 80 71 63 57 51 48 47 42 38 34 32 34 35 36 35 34 36 36 34 33 31 26 23 24 27 29 28 27
54 56 58 60 60 63 70 67 74 70 72 83 74 76 76 63 58 53 50 49 46 44 38 35 32 32 33 34 34 33 33 34 33 31 31 30 25 22 24 27 28 28 25
56 59 61 62 62 62 67 76 81 78 76 71 75 61 59 55 52 49 48 46 43 39 35 32 31 32 34 34 33 32 32 32 31 28 26 25 23 21 23 26 27 26 23
60 62 63 63 64 63 72 77 73 70 71 72 56 52 52 50 47 46 46 45 42 38 33 32 32 32 32 32 31 31 32 31 30 27 24 23 22 20 22 24 25 25 20
62 63 62 62 61 61 66 68 69 73 68 52 52 51 50 49 45 44 45 43 40 36 32 31 30 30 30 30 30 30 30 31 29 27 23 22 21 19 20 22 23 24 20
61 60 61 62 62 62 64 68 69 55 54 53 53 53 53 51 48 46 42 40 39 35 31 29 29 28 29 29 28 28 27 27 26 25 23 21 21 19 17 18 20 22 18
60 62 64 65 64 63 66 62 55 55 56 57 57 56 56 53 50 47 44 39 37 33 29 27 26 26 27 27 27 26 25 24 24 24 23 21 19 19 16 16 17 19 17
65 67 67 67 66 63 59 55 57 57 57 56 57 58 58 56 53 48 43 38 36 32 27 24 25 26 28 27 26 26 24 23 23 24 23 23 19 18 16 14 14 17 17
67 68 67 65 61 59 58 56 58 58 57 57 59 60 59 56 52 47 43 39 36 33 29 27 26 27 27 27 25 25 24 23 23 23 23 24 25 19 16 14 12 13 14
69 67 64 61 61 59 57 60 59 58 56 58 61 61 59 55 51 47 42 39 35 34 31 28 27 27 27 26 25 24 23 23 23 22 21 22 24 25 18 13 11 10 11
68 64 62 60 59 59 61 59 60 61 62 64 63 62 59 55 50 46 41 38 35 33 31 28 28 27 27 26 26 27 24 22 22 22 20 19 21 24 24 16 11 10 9
64 63 61 59 59 60 63 63 64 66 67 68 68 64 58 54 49 45 41 37 34 33 31 27 27 28 28 26 26 26 25 21 20 20 20 18 17 19 22 21 14 10 9
61 59 60 61 63 64 65 67 70 73 73 72 67 61 58 55 49 43 40 37 34 33 31 30 29 28 28 26 27 26 26 24 24 22 20 18 17 16 18 20 18 12 9
60 61 62 63 64 67 70 74 76 75 72 69 61 57 55 49 42 39 39 36 33 33 31 31 30 28 27 26 28 26 24 22 23 27 25 20 17 16 14 15 16 16 11
63 64 65 68 72 75 77 76 72 67 60 57 53 51 49 43 39 38 37 36 33 32 30 30 31 29 28 26 27 26 22 20 20 21 25 23 20 16 14 11 12 13 14
66 69 73 75 77 75 70 65 60 56 51 46 42 35 45 44 41 38 37 34 32 30 29 29 32 32 30 28 28 27 24 23 23 21 22 23 23 19 16 15 13 10 11
72 74 76 74 68 65 60 53 49 48 45 42 37 37 39 40 34 34 33 31 31 31 31 31 31 32 32 30 29 28 28 26 26 25 24 24 24 24 21 18 17 13 11
74 73 68 65 60 53 52 51 49 46 43 41 40 37 34 38 34 32 29 28 28 30 33 35 33 33 33 33 33 31 30 29 30 29 28 26 23 22 23 21 18 19 16

GFSGL_500_spd_018.txt.gz
Wind_Speed
42 42 44 45 48 52 55 56 52 59 57 56 59 62 62 62 66 67 70 74 83 85 87 90 90 81 79 74 71 68 67 65 57 44 37 35 34 36 38 40 41 41 43
42 44 45 45 49 54 57 55 52 52 56 59 61 61 61 65 70 72 74 81 85 84 84 81 72 75 78 71 66 65 64 58 51 41 37 36 36 38 37 39 41 43 44
42 44 47 47 51 57 53 49 51 55 59 62 62 63 65 70 74 76 82 85 82 84 76 75 76 76 68 63 64 63 56 51 47 41 38 37 36 37 37 40 40 41 41
42 48 47 52 54 52 51 54 56 58 60 62 65 68 71 71 73 79 84 82 84 78 75 78 76 65 60 62 61 56 49 45 42 40 38 36 36 37 38 38 38 39 36
46 47 49 51 52 54 55 56 56 60 62 65 69 73 77 75 76 81 81 78 79 75 78 72 64 60 60 59 54 48 45 41 39 38 35 35 37 38 37 36 35 31 29
46 48 51 52 54 55 55 56 58 61 66 68 72 75 81 77 77 78 76 74 76 75 64 60 59 58 58 52 47 42 40 39 36 34 33 34 34 34 33 32 30 26 26
50 50 51 52 53 53 56 58 63 65 67 69 71 78 79 85 84 75 72 73 67 61 56 55 56 55 50 45 41 38 39 37 35 32 32 34 31 30 30 27 26 26 28
48 49 50 50 53 56 59 64 68 61 71 74 76 78 83 79 72 73 69 61 53 52 53 53 54 51 45 40 37 37 38 36 35 34 34 33 30 28 27 23 22 24 28
49 48 49 52 56 61 66 70 64 68 72 79 76 79 74 71 74 62 52 51 52 49 49 49 49 46 40 38 36 37 37 35 34 33 34 33 29 27 24 21 22 23 28
49 51 53 54 62 59 61 69 68 70 76 77 78 77 71 72 57 53 51 50 52 50 48 46 45 42 37 36 35 35 33 32 32 34 34 32 29 26 25 20 20 23 26
50 52 57 59 64 62 63 66 69 70 71 74 71 70 65 54 52 53 52 51 52 51 49 45 43 38 35 34 32 33 32 31 32 32 30 27 26 24 23 20 20 22 25
54 58 59 61 61 61 63 66 67 69 70 65 67 61 54 55 55 53 51 53 52 49 48 44 42 36 33 32 30 30 29 30 30 30 29 26 24 23 23 20 19 22 23
58 59 59 58 59 62 64 67 71 69 63 61 54 53 53 53 54 53 53 54 53 47 45 43 39 34 31 29 27 28 28 28 28 28 27 28 26 23 21 21 19 21 23
60 59 59 60 62 66 71 72 70 66 62 57 53 53 53 54 54 55 56 56 53 47 43 41 38 33 30 28 27 28 27 27 27 26 25 25 27 24 21 19 20 19 21
61 60 62 65 69 72 73 71 67 61 58 55 54 57 57 54 55 57 58 57 54 48 42 39 38 34 28 28 27 27 27 26 26 26 25 25 24 25 21 18 18 18 18
62 65 68 71 74 73 71 68 64 60 57 55 57 59 57 58 59 60 61 59 54 48 41 37 37 34 30 28 27 26 26 25 24 24 25 25 24 24 23 20 17 17 16
66 70 73 75 75 73 70 66 62 57 59 59 60 61 62 61 63 64 63 59 53 46 40 38 36 34 31 27 26 25 25 25 25 24 24 24 23 22 22 21 18 16 16
72 74 76 75 73 71 67 63 61 59 58 58 61 65 66 68 69 68 63 59 51 43 40 37 35 34 31 27 25 25 24 24 25 24 23 21 21 20 21 22 20 16 15
76 78 78 77 73 68 64 62 62 62 62 61 62 63 69 71 71 68 60 55 48 41 39 36 34 33 30 26 26 25 24 24 24 24 23 21 21 19 19 20 22 18 15
80 80 77 74 68 65 63 63 63 64 67 69 70 71 69 69 64 60 52 48 43 38 35 34 34 33 31 29 27 25 24 24 25 24 24 23 21 19 18 17 19 19 15
80 77 73 66 63 63 65 67 70 72 74 75 71 67 60 58 55 48 44 41 38 35 34 33 33 33 32 31 29 26 23 24 25 25 23 24 24 20 17 15 15 16 17
74 68 65 67 68 68 69 72 74 74 69 64 61 55 49 49 45 42 44 38 33 33 34 32 32 32 32 32 29 26 24 23 24 23 20 20 21 22 18 15 13 12 13
64 66 67 67 69 72 74 74 69 65 62 56 49 45 44 43 39 42 39 35 34 35 36 32 31 30 29 32 32 28 25 25 25 23 22 21 19 18 18 16 15 12 10
70 72 71 73 75 75 70 66 64 59 54 49 48 46 44 42 40 39 36 40 40 42 33 29 29 27 30 32 29 30 29 28 27 25 22 21 21 19 19 19 17 17 14
75 75 78 77 72 67 66 63 58 53 50 48 47 45 43 41 37 37 39 43 47 35 28 27 27 29 32 34 32 31 31 30 27 28 26 26 25 24 22 21 20 20 19
78 78 74 69 68 65 60 56 53 51 50 49 47 45 43 40 37 35 41 36 34 33 26 21 21 27 33 34 33 31 32 30 32 31 29 28 28 24 22 21 20 21 21

GFSGL_500_spd_021.txt.gz
Wind_Speed
39 40 42 43 43 45 51 53 52 54 58 58 57 60 63 63 66 68 71 73 75 78 81 83 85 85 76 72 76 80 82 78 75 71 71 66 61 57 53 48 45 43 44
39 41 41 42 46 51 52 53 53 59 57 58 60 62 61 64 69 73 76 78 80 81 81 83 85 79 72 76 78 73 70 73 72 67 60 56 54 51 49 43 43 42 42
39 38 41 44 51 52 52 53 58 56 58 58 59 61 65 67 72 76 76 78 83 83 85 82 76 76 78 72 67 66 68 67 63 58 54 52 49 48 44 41 40 40 40
43 43 45 51 52 48 52 57 56 56 57 58 61 65 69 73 76 77 80 81 84 86 85 79 78 74 65 61 62 62 62 59 56 52 49 48 46 44 43 40 39 38 36
45 46 50 51 51 51 53 56 56 56 57 60 64 70 73 73 76 81 80 86 88 85 80 77 67 59 55 57 58 58 58 55 50 47 46 44 43 41 41 40 39 35 35
46 47 50 51 52 54 56 56 55 57 57 62 66 73 71 78 79 80 85 87 79 79 77 61 54 55 56 57 57 55 53 48 46 44 43 42 40 39 39 38 36 34 31
49 52 52 53 55 54 52 53 55 63 63 69 68 70 76 82 80 82 83 83 77 65 57 55 53 56 57 57 55 53 48 46 44 42 40 39 37 37 36 34 34 32 31
52 53 54 51 51 53 54 56 60 57 59 75 67 72 76 77 78 80 77 75 61 58 56 53 54 56 56 55 52 49 45 43 41 40 38 38 37 36 34 31 29 28 29
53 53 49 49 51 52 56 55 69 62 72 69 70 72 76 77 78 72 72 63 58 57 53 53 55 56 54 52 49 45 42 41 39 39 39 38 37 35 31 26 27 25 25
54 51 48 50 54 58 59 61 65 65 65 67 69 72 75 75 72 67 61 58 56 54 53 54 55 55 53 49 45 42 39 38 37 36 36 36 35 32 29 26 23 22 22
53 49 50 54 57 61 62 63 64 65 67 68 70 72 75 71 65 59 57 55 55 53 53 55 56 55 52 46 43 40 37 36 35 34 34 34 34 33 29 26 23 21 22
48 50 54 57 60 62 62 62 64 66 68 70 72 74 73 65 60 59 57 57 56 54 55 56 56 52 50 44 41 38 35 35 34 34 32 32 31 32 31 28 24 23 20
51 54 57 60 62 62 63 65 67 70 73 76 77 73 66 60 58 57 57 58 56 55 56 57 55 50 48 43 39 36 34 35 34 32 32 32 30 29 29 31 27 22 22
55 58 61 63 63 65 66 69 73 76 78 78 75 69 62 57 56 57 58 57 59 58 58 58 55 47 47 42 38 35 34 34 33 31 30 31 30 29 27 29 29 25 21
60 63 65 65 66 68 72 75 78 79 78 76 70 64 59 56 57 60 60 60 60 60 61 59 54 46 45 41 37 34 34 33 32 29 28 29 29 28 27 26 28 25 19
65 67 67 68 71 74 76 78 79 77 75 70 64 60 58 60 59 60 62 63 64 65 65 59 51 45 44 40 36 33 33 31 30 28 27 27 27 27 26 25 26 25 21
69 69 69 71 74 77 80 81 80 74 67 62 62 62 62 62 63 65 67 69 69 69 63 56 49 44 42 39 35 32 31 30 28 27 26 26 26 25 24 23 23 25 22
70 70 72 74 78 80 80 80 76 69 63 58 58 62 65 68 69 71 71 70 69 65 58 51 45 42 40 38 35 31 31 29 27 26 25 24 25 25 23 23 21 22 23
71 73 76 80 81 81 79 74 68 67 67 66 63 62 67 69 70 67 65 61 57 57 51 47 40 38 38 37 34 31 31 31 28 26 24 24 24 22 22 23 20 19 21
74 78 81 80 78 74 71 69 71 72 70 69 70 70 69 66 61 58 56 54 50 47 46 38 38 37 36 34 34 32 31 31 29 26 23 23 23 22 21 21 20 17 17
79 80 78 77 74 71 70 72 74 74 74 72 69 63 60 59 55 50 44 42 40 39 38 37 37 32 31 32 33 32 31 31 27 26 23 22 21 19 19 20 19 16 14
77 76 75 73 70 69 71 75 75 72 67 63 61 59 56 53 49 44 43 40 39 36 35 38 32 30 29 30 31 32 30 29 27 26 25 23 21 19 18 18 16 16 13
73 73 72 70 72 75 77 73 71 68 66 62 57 53 49 45 43 42 42 41 38 37 38 35 31 28 30 27 28 29 30 28 27 28 27 25 23 20 18 17 16 15 15
71 71 71 76 79 78 77 74 69 65 59 56 53 50 47 44 43 42 40 38 36 39 33 35 34 34 30 25 26 26 28 29 29 30 29 28 25 23 20 19 20 18 16
71 73 80 80 80 80 74 66 61 58 57 55 51 50 48 46 43 41 39 37 35 35 38 39 39 37 31 25 27 28 30 29 29 30 31 30 30 28 24 23 23 21 19
75 81 79 82 78 74 66 57 56 56 54 53 52 48 45 44 43 42 41 38 35 38 36 33 35 34 27 27 32 33 34 33 32 32 32 31 30 31 29 27 23 19 19

GFSGL_500_spd_024.txt.gz
Wind_Speed
31 32 34 36 37 38 42 44 52 56 59 64 63 64 66 65 65 64 66 70 74 76 77 78 83 84 86 89 85 83 82 75 69 69 69 67 61 58 54 52 51 48 45
32 35 36 36 39 40 43 49 55 61 65 66 66 66 64 62 62 64 67 71 77 77 80 86 83 84 86 83 83 78 66 63 63 62 61 59 56 53 50 49 48 46 42
35 36 39 40 41 43 50 52 59 61 62 63 63 62 60 61 68 67 70 74 77 80 86 85 87 86 84 80 69 62 59 62 64 62 58 55 51 50 48 48 47 43 41
37 39 38 40 45 48 50 55 58 60 61 60 60 59 59 66 68 73 75 77 82 84 83 85 86 80 73 66 61 59 61 63 63 59 56 52 50 49 48 46 43 42 41
37 39 39 43 44 49 53 56 59 58 56 57 60 63 59 56 63 73 77 80 78 79 83 83 80 72 63 63 59 59 61 62 59 55 52 49 46 45 45 43 42 40 41
45 45 43 46 49 52 56 59 56 56 57 57 64 65 68 74 74 77 81 78 77 79 81 79 70 62 61 59 57 58 59 60 55 51 48 46 43 43 42 41 40 39 37
47 46 46 48 51 55 58 53 55 58 58 59 61 54 73 78 76 75 77 76 77 79 78 67 61 59 58 57 56 57 59 58 52 48 45 42 41 40 39 38 39 37 37
48 49 50 52 55 56 55 54 54 55 55 59 68 68 71 72 74 75 76 77 77 77 68 62 60 60 58 56 57 57 57 56 50 45 42 40 40 40 38 37 37 34 35
49 50 52 54 56 55 52 51 53 53 51 68 68 70 70 72 75 76 78 78 77 71 61 62 59 60 59 55 55 56 56 54 48 43 40 39 40 40 39 37 35 33 30
51 52 54 55 54 52 51 53 56 58 61 65 67 70 72 72 76 77 78 78 73 64 63 59 57 58 56 55 54 55 55 52 46 41 38 39 40 38 38 39 35 31 29
53 54 54 53 52 52 54 57 61 64 66 67 68 71 74 76 77 78 77 74 65 60 57 56 58 57 57 56 55 54 53 50 44 39 37 38 38 37 36 37 37 33 28
53 53 52 52 53 55 57 61 65 67 69 70 71 73 76 79 79 75 72 66 61 57 57 57 58 58 57 56 55 55 51 47 42 37 35 37 36 35 34 35 35 34 32
53 52 52 52 54 58 61 66 69 71 71 72 75 77 78 79 76 70 65 61 59 58 58 58 58 58 58 57 55 54 50 45 40 35 34 35 35 32 32 32 33 32 33
55 53 53 56 59 62 66 71 72 72 74 76 79 82 81 79 70 64 62 60 59 59 57 58 58 60 61 59 55 53 50 43 38 34 33 34 33 31 30 30 31 28 29
53 54 56 58 62 67 71 72 73 76 79 82 82 83 81 75 62 59 62 63 62 61 62 61 61 62 60 58 53 50 48 43 37 34 31 32 31 30 29 28 28 26 26
54 56 60 64 69 71 72 74 77 80 82 81 81 78 73 69 65 64 63 63 64 65 66 64 63 60 58 54 46 46 45 42 36 34 29 30 29 28 27 27 27 25 23
59 63 67 70 71 72 74 77 79 79 79 76 71 69 70 71 71 71 69 68 67 67 66 64 60 55 53 49 47 43 42 39 36 31 28 29 27 27 26 26 25 24 22
67 70 72 72 73 76 80 82 83 84 84 76 69 69 69 72 73 72 70 69 66 62 58 56 54 51 46 51 49 42 38 36 34 30 28 29 26 25 24 25 22 21 20
72 73 73 75 77 80 82 82 83 80 76 74 72 73 74 70 67 64 60 58 56 53 52 49 44 41 41 43 38 36 35 33 32 30 30 29 26 24 22 23 22 18 19
75 74 75 78 80 81 81 81 78 76 77 79 77 74 71 65 61 58 55 54 52 48 43 38 36 36 37 32 32 32 31 30 30 29 29 29 26 22 20 20 19 18 16
72 75 78 80 81 80 79 76 77 80 78 78 74 72 67 59 52 48 45 44 42 39 37 35 34 35 33 31 32 28 27 27 27 28 28 29 26 21 19 19 18 17 15
76 78 80 79 78 78 75 77 79 77 77 73 71 63 54 49 48 48 46 42 38 37 35 34 34 33 28 30 32 27 26 27 27 28 26 26 26 22 19 18 17 15 14
76 77 75 76 76 74 77 79 76 77 73 71 63 53 49 49 50 47 44 42 40 38 36 33 31 30 32 27 26 23 26 27 26 27 25 24 25 23 22 18 16 15 14
75 74 74 74 74 77 77 75 77 73 69 65 56 51 51 53 49 43 39 38 36 35 34 32 31 30 28 30 28 26 23 22 23 24 24 25 26 25 24 22 20 17 17
73 70 71 73 75 75 74 76 74 68 66 60 55 53 54 50 46 47 44 41 40 37 35 32 29 25 25 28 28 27 21 21 22 24 26 25 25 26 26 24 24 21 19
67 70 72 73 73 74 75 74 67 65 62 58 55 55 51 49 48 46 44 40 36 35 35 34 34 32 31 30 29 25 23 24 26 26 27 28 28 28 28 28 26 24 23

GFSGL_500_spd_027.txt.gz
Wind_Speed
29 31 30 31 33 34 36 40 38 38 45 53 56 58 63 65 64 64 64 64 68 69 71 78 79 82 85 83 84 83 84 80 73 65 61 65 66 68 62 55 54 51 47
30 32 34 34 37 40 42 40 42 43 49 57 57 61 63 64 59 61 65 67 68 71 70 78 82 85 82 83 82 82 79 69 65 59 60 62 65 64 56 53 50 48 46
35 36 36 38 40 41 42 44 46 50 53 58 58 59 61 60 61 61 63 66 68 70 76 83 78 80 81 81 81 78 69 62 59 58 59 61 63 58 52 50 47 46 46
37 37 37 39 39 40 41 41 47 51 54 55 58 60 56 59 60 61 63 68 75 80 84 82 81 81 80 80 76 67 61 60 60 59 58 60 60 54 50 47 44 47 45
36 37 37 38 39 40 42 46 49 53 56 58 58 55 56 53 61 65 68 72 75 79 80 80 80 81 80 79 67 60 60 61 59 57 57 59 57 51 47 44 43 43 43
34 36 39 42 44 46 48 50 53 55 57 57 54 56 53 61 66 66 72 77 79 79 78 80 81 81 80 73 61 58 58 59 58 56 55 56 54 49 45 42 42 42 40
36 39 42 45 47 50 51 53 55 55 54 54 51 49 58 59 65 70 75 77 77 77 80 82 82 80 75 63 60 57 56 57 56 54 53 54 52 47 43 41 41 41 41
40 42 45 47 50 51 52 53 54 53 50 50 55 53 61 65 69 72 75 76 78 79 81 82 82 76 66 62 58 54 56 57 55 53 52 52 50 46 42 40 40 39 39
42 44 47 50 52 53 53 55 56 54 54 55 57 61 64 68 72 75 76 77 79 81 83 82 78 67 62 60 55 55 56 56 54 52 52 50 48 44 40 39 39 37 35
45 47 50 52 53 54 55 56 55 54 55 57 60 64 68 72 74 75 77 79 82 84 83 78 68 60 59 58 55 56 55 56 54 53 52 49 46 42 39 38 38 36 34
48 50 52 54 55 56 57 56 55 55 58 61 63 67 72 74 75 77 80 83 84 84 79 67 60 58 57 56 54 54 55 56 55 54 50 48 44 40 37 37 37 36 34
50 52 54 55 56 57 56 55 56 58 60 63 67 71 73 76 78 80 83 84 84 79 67 59 58 58 57 56 55 54 57 57 56 53 48 47 43 38 35 35 36 35 34
52 54 56 57 57 56 55 56 59 61 65 70 73 75 77 79 82 83 83 83 77 70 63 60 61 60 59 57 58 58 59 58 56 52 46 44 40 36 33 32 34 34 33
55 58 59 60 59 58 58 60 65 69 73 76 78 80 82 82 83 84 82 77 72 71 68 67 67 65 62 60 59 59 59 56 52 48 42 40 37 34 31 31 32 32 30
59 60 61 60 60 60 64 67 71 76 78 81 83 86 87 87 86 86 82 77 73 71 71 72 70 67 64 62 59 58 57 51 46 39 40 38 34 32 28 30 29 30 28
61 61 61 60 61 63 67 72 77 79 80 81 83 85 86 87 85 82 81 80 78 76 74 71 65 60 58 56 55 47 50 51 44 37 39 35 31 30 26 28 28 28 26
63 62 60 61 64 68 72 77 78 78 80 81 82 84 85 83 83 84 81 78 76 73 71 66 61 56 50 48 48 47 49 52 44 40 42 33 29 28 25 27 26 26 25
63 63 63 67 70 74 78 79 80 82 83 83 84 85 83 85 84 81 77 73 70 66 59 54 50 49 47 45 43 42 42 44 41 42 37 28 28 27 24 26 24 24 23
64 67 70 73 76 78 78 80 82 82 82 82 83 83 84 80 77 75 72 68 58 49 45 43 43 41 39 37 34 34 34 34 36 37 30 25 26 27 24 24 23 21 20
69 71 74 78 79 78 80 80 80 81 81 81 83 81 76 73 71 66 61 52 47 45 44 42 39 36 33 32 32 30 31 33 30 30 25 25 25 25 23 23 21 19 17
73 77 78 78 78 79 79 79 79 78 79 80 77 76 75 71 64 60 52 47 46 47 44 39 36 33 31 31 29 30 27 25 26 24 23 24 23 22 22 22 20 17 15
78 77 78 78 78 78 77 76 76 78 77 74 74 74 71 66 61 57 52 48 48 44 38 35 34 32 31 30 28 30 28 28 30 22 22 23 24 23 22 21 20 16 13
77 76 76 77 76 75 73 75 75 73 70 73 73 71 66 62 60 56 52 49 45 41 40 36 31 31 30 29 27 25 23 22 25 27 27 27 27 24 22 22 21 18 14
75 74 75 74 72 72 74 73 69 68 71 73 72 66 61 60 59 55 51 46 43 40 38 36 36 31 29 28 27 29 30 23 22 23 25 26 28 26 22 21 21 20 17
73 73 71 70 71 72 71 67 65 68 71 72 68 61 61 60 57 52 46 43 40 37 35 33 31 32 30 29 32 29 26 25 19 21 23 25 26 25 22 21 21 22 19
71 70 70 72 72 70 66 63 65 69 71 71 65 60 60 58 52 46 44 40 37 36 34 31 25 29 30 29 30 30 28 25 19 20 22 24 22 23 23 22 21 21 21

GFSGL_500_spd_030.txt.gz
Wind_Speed
22 27 30 35 38 37 34 34 38 39 40 43 42 39 42 52 60 67 66 67 63 63 62 64 68 71 72 80 82 83 84 84 84 83 80 72 66 63 62 62 62 63 60
28 32 36 36 40 41 40 39 40 41 43 45 48 51 54 59 59 61 63 61 57 58 62 67 77 77 79 85 84 84 84 85 84 81 68 64 63 62 60 59 60 61 56
33 35 37 41 41 40 41 42 43 44 45 47 48 52 54 55 58 62 60 57 60 63 67 69 75 78 84 85 85 84 85 85 83 74 62 61 59 60 57 57 58 59 54
34 37 39 39 40 41 42 42 43 43 45 48 51 54 54 56 58 60 60 60 62 67 69 73 77 81 83 84 84 84 84 82 76 63 59 57 57 57 56 56 56 57 52
35 36 38 39 39 40 40 41 45 47 49 52 55 56 57 53 59 53 60 64 67 70 74 76 79 81 82 83 84 84 84 77 65 60 56 54 56 56 55 55 55 54 51
35 35 35 37 38 39 42 45 48 50 53 55 58 57 57 56 53 52 64 66 67 71 75 78 80 81 82 84 84 83 78 68 60 57 54 55 55 55 53 54 54 51 47
34 35 36 38 40 43 46 48 50 53 55 56 57 58 58 55 57 61 65 67 70 73 77 80 81 82 83 84 83 80 69 61 57 57 55 54 55 54 53 54 52 49 46
34 36 38 41 43 46 48 50 52 54 56 57 59 59 59 59 61 64 67 69 72 76 79 81 82 83 84 83 79 73 61 57 54 56 54 54 54 53 54 53 50 46 44
36 38 41 44 46 49 50 52 54 56 58 59 61 61 60 61 64 66 68 72 76 78 81 82 83 84 82 80 72 63 57 55 55 55 54 54 53 54 54 52 48 44 41
38 41 44 47 49 51 52 54 57 59 60 61 62 61 61 62 64 70 74 77 78 81 82 83 84 83 81 73 64 59 55 57 59 55 55 55 55 55 53 50 45 41 40
42 44 47 49 51 53 56 58 60 61 61 60 60 61 64 67 70 74 78 81 83 85 87 86 85 82 74 69 63 61 58 59 61 59 57 56 56 54 51 47 41 38 37
44 46 48 50 53 55 58 59 60 60 61 61 62 65 68 71 76 79 81 85 89 91 89 88 85 78 73 70 68 64 63 62 62 61 58 57 55 51 48 42 37 35 35
48 51 52 54 56 58 59 61 62 62 62 63 65 68 72 77 80 82 85 87 87 88 89 86 83 80 77 74 71 68 65 63 60 59 57 53 50 46 41 37 34 33 33
51 53 56 57 59 60 62 63 63 62 64 67 70 73 77 81 85 87 88 88 88 89 87 85 82 78 74 73 70 66 62 58 56 54 50 46 41 38 34 34 31 30 31
54 57 58 58 60 62 63 63 64 66 69 72 75 78 82 86 89 90 90 91 92 92 89 80 74 73 69 67 63 58 53 51 50 46 36 40 43 39 33 33 29 28 29
58 58 58 61 63 64 64 66 68 71 74 77 80 83 86 88 89 89 91 91 91 87 80 78 73 67 63 54 48 45 46 46 43 37 37 45 43 42 33 34 29 26 28
57 58 61 63 66 67 68 70 72 73 77 80 82 85 85 86 87 88 89 88 84 81 78 72 65 58 48 42 39 38 38 38 38 42 39 42 44 46 35 33 27 25 27
58 60 64 68 70 71 72 73 76 79 81 82 84 84 84 85 87 88 86 83 79 77 72 63 58 49 43 39 37 36 35 34 34 37 38 46 47 40 35 28 27 25 25
61 64 69 72 73 75 76 77 80 82 82 83 82 82 83 84 84 81 80 79 76 70 62 58 54 48 44 42 37 34 31 29 30 31 36 37 29 28 28 26 26 24 24
66 70 74 77 77 78 78 80 81 81 81 80 80 80 82 80 76 73 73 72 68 62 59 55 51 46 44 39 33 30 28 27 27 27 29 33 33 30 26 24 25 23 22
73 75 78 80 80 79 80 79 80 78 77 77 78 80 79 72 69 70 69 68 63 61 59 54 46 42 36 32 30 28 27 26 26 26 31 32 28 27 24 23 22 22 21
75 77 80 80 80 80 79 78 76 75 75 76 77 76 71 67 67 70 70 68 64 62 56 47 41 37 35 34 29 27 26 26 28 25 24 26 23 22 24 22 20 21 20
78 80 80 81 80 79 77 76 74 74 75 76 75 71 66 66 67 70 71 67 62 57 47 42 39 36 32 31 30 28 27 29 32 30 27 24 21 23 23 24 20 21 20
79 82 82 80 78 76 74 73 72 74 75 75 72 68 65 66 68 71 70 64 59 50 46 42 36 34 31 28 30 29 28 29 30 27 23 24 30 27 25 27 23 21 21
83 82 79 78 76 74 73 72 73 75 75 73 71 67 66 67 69 71 67 59 54 48 45 39 35 34 30 26 28 30 28 27 29 28 27 25 25 24 25 27 26 22 22
80 79 79 77 74 73 73 74 76 76 75 72 70 66 66 67 69 67 60 53 49 46 43 37 35 32 28 23 28 34 34 33 31 28 26 21 22 25 31 31 26 23 22

GFSGL_500_spd_033.txt.gz
Wind_Speed
24 24 22 24 30 35 37 40 41 42 40 39 40 43 45 46 46 50 56 60 64 68 69 71 70 71 71 69 73 74 77 81 82 82 86 88 87 85 82 72 63 58 60
27 28 28 31 34 38 38 42 44 43 42 42 44 45 47 49 50 52 56 57 64 66 68 70 73 65 65 73 75 80 81 83 84 85 85 86 84 79 71 63 57 57 57
31 32 34 35 38 39 41 43 43 44 44 45 46 47 48 47 51 55 56 57 59 67 71 74 70 66 74 76 79 81 84 84 86 88 86 83 80 71 62 57 54 55 56
36 36 36 37 39 40 42 43 43 44 45 45 47 50 52 52 55 55 58 58 56 67 69 69 72 78 80 80 81 83 83 85 87 87 84 78 72 62 57 54 52 55 55
34 35 37 38 40 42 42 42 43 43 45 47 50 53 54 56 57 59 60 62 60 65 70 69 72 75 76 79 81 81 84 85 85 82 78 71 61 55 56 54 54 54 53
34 35 37 38 39 39 41 42 44 45 48 51 54 55 57 58 59 61 62 65 65 66 67 69 72 74 77 79 80 83 84 83 81 75 68 61 57 54 55 55 54 54 52
35 36 37 37 38 39 41 44 46 49 52 54 57 58 59 61 62 63 64 65 65 65 66 69 73 77 80 83 85 85 83 81 79 69 63 56 58 56 57 56 56 55 55
35 36 36 37 39 42 44 47 50 53 55 57 58 60 61 62 62 63 64 64 66 67 71 74 78 80 83 85 86 86 86 83 74 65 60 56 58 55 57 57 56 55 54
35 35 37 39 41 44 47 50 52 54 56 58 60 61 62 62 62 63 65 67 68 71 73 77 81 85 86 87 87 87 84 80 72 64 59 59 58 57 57 58 56 56 53
34 36 39 42 45 48 50 51 53 56 58 61 62 63 63 63 63 64 66 67 70 73 76 81 85 87 87 86 87 85 83 76 73 72 65 59 57 57 56 56 55 53 51
36 39 43 46 48 50 52 54 58 60 62 61 61 62 62 62 64 66 69 72 75 77 80 85 88 87 88 89 87 84 78 73 69 69 66 64 58 53 54 54 51 49 47
40 43 46 49 50 52 54 57 60 61 60 60 62 62 63 66 67 70 73 76 80 83 86 90 89 90 91 90 87 79 73 73 70 66 63 59 57 53 51 50 46 43 40
45 48 50 52 53 55 57 60 60 60 61 61 62 65 68 70 73 75 77 80 84 87 89 89 90 91 90 86 79 76 73 69 64 59 54 51 48 47 44 42 36 34 32
52 53 54 55 56 58 60 61 60 61 62 63 66 69 72 74 77 80 83 85 87 89 90 91 92 91 87 81 77 72 66 61 54 49 45 41 35 36 33 30 32 34 32
55 55 56 57 59 60 60 61 63 63 64 67 70 74 76 79 81 84 86 88 89 91 92 92 90 86 81 76 72 63 57 51 45 37 35 34 38 40 31 33 38 39 34
56 57 57 58 60 59 61 65 67 68 71 74 77 80 82 83 85 87 87 88 88 89 89 88 84 79 75 71 62 54 50 43 38 34 31 33 38 41 36 35 41 41 39
55 57 58 59 61 64 66 68 69 72 76 78 82 85 85 86 87 86 85 85 86 86 84 81 77 74 71 66 59 53 46 40 37 35 31 31 32 39 34 34 37 40 41
58 59 62 66 71 72 71 72 75 77 78 80 84 86 86 86 84 81 80 82 83 81 77 75 73 72 70 64 58 53 45 39 36 34 31 29 29 32 35 36 38 43 37
68 66 66 72 75 75 77 78 80 80 80 84 87 87 86 81 79 77 79 80 79 76 72 71 71 73 70 62 56 46 39 36 32 30 27 26 30 34 34 37 35 27 26
68 70 74 80 77 79 80 83 82 81 84 85 85 83 79 76 75 76 78 78 76 72 69 70 71 74 66 57 47 39 33 29 26 26 25 23 27 34 37 33 27 27 22
67 81 75 77 79 80 82 80 80 84 85 84 79 76 75 75 74 76 78 77 73 69 67 68 70 69 59 50 44 35 30 26 24 24 24 22 22 24 31 30 29 28 21
82 81 80 81 81 80 80 82 85 86 85 81 77 73 74 73 76 78 78 75 71 68 65 67 68 61 52 47 40 32 28 26 25 25 24 24 22 27 33 32 27 23 22
79 81 81 82 82 83 86 87 86 84 80 80 76 73 74 77 78 79 77 73 69 65 64 65 64 53 48 44 38 31 27 26 26 26 23 23 25 23 22 21 24 22 21
82 82 82 84 86 88 88 86 84 82 80 79 76 76 79 80 79 77 73 69 66 63 62 62 56 47 44 41 35 31 26 25 28 30 27 27 23 22 22 21 22 24 23
83 84 86 88 88 88 87 85 84 83 81 80 80 82 82 79 77 73 69 65 62 61 59 57 48 43 41 38 33 29 25 26 30 35 32 28 27 24 27 27 24 24 26
85 88 89 90 89 88 86 85 85 85 86 87 86 84 80 76 72 68 64 62 60 58 56 49 43 40 38 34 31 27 24 26 31 36 35 31 27 25 26 26 28 27 27

GFSGL_500_spd_036.txt.gz
Wind_Speed
27 29 27 26 29 30 28 29 33 34 35 38 39 39 40 42 43 45 48 50 51 55 56 58 62 66 68 68 70 69 69 78 82 80 81 83 84 86 87 87 84 81 73
30 33 31 28 28 33 30 33 36 36 39 42 41 43 43 44 46 48 50 53 56 54 58 60 64 65 67 66 70 71 82 79 80 79 81 83 85 87 86 83 79 72 63
33 34 32 30 35 32 36 37 38 39 43 44 44 44 46 48 50 52 54 56 56 56 61 62 64 65 65 66 68 72 74 76 80 83 82 85 86 86 85 82 74 64 57
36 38 38 36 37 36 38 39 40 43 45 45 45 46 48 51 52 55 56 57 59 61 62 63 62 64 66 68 70 73 76 79 82 85 86 86 85 81 79 74 68 56 52
36 37 35 35 35 36 38 41 43 44 44 44 46 48 51 53 55 58 60 62 62 63 63 63 64 65 67 69 72 75 78 81 84 86 86 85 83 75 69 65 61 54 52
35 34 34 36 39 39 39 40 40 40 43 46 49 51 53 56 58 60 61 62 62 62 62 63 64 66 69 71 74 76 79 83 86 86 84 84 79 70 64 62 62 57 55
31 32 35 35 36 37 38 39 40 42 45 48 51 53 55 56 58 61 62 63 63 62 61 63 65 68 71 74 76 79 81 86 86 84 85 82 75 69 65 64 62 60 56
36 36 36 37 37 38 38 41 43 46 48 51 54 55 56 59 61 62 61 61 60 60 62 65 67 70 75 78 80 82 85 86 85 87 86 82 74 68 67 64 61 59 55
37 37 36 37 36 37 40 43 45 49 52 54 55 56 58 60 62 60 61 60 61 64 66 67 71 75 79 81 84 87 89 88 87 87 83 77 71 65 64 62 57 56 54
36 36 36 35 37 40 42 45 49 52 54 56 57 59 61 63 61 62 61 61 64 66 69 72 75 78 81 85 88 91 92 91 90 86 78 73 69 65 62 58 52 49 49
35 34 35 36 39 43 47 50 53 55 56 58 60 62 63 61 62 63 62 65 67 70 73 75 79 83 86 87 89 91 92 92 88 82 73 68 64 58 53 47 47 48 46
33 35 38 41 45 49 52 54 55 56 58 59 61 62 61 64 67 67 70 72 74 76 78 81 85 88 90 91 92 92 91 89 84 76 69 63 55 52 47 37 43 48 45
37 41 44 47 50 53 55 56 57 58 59 60 60 62 66 69 70 73 76 78 79 81 82 85 87 89 90 90 90 89 87 83 75 70 65 56 49 43 40 36 46 43 36
43 47 50 54 56 57 57 58 58 59 58 58 62 65 68 71 74 77 79 81 81 84 86 88 87 85 85 86 86 85 81 75 71 68 60 51 42 38 32 32 28 30 27
49 52 56 58 59 60 61 59 59 61 64 67 70 74 77 78 78 79 82 84 85 87 88 88 87 84 83 83 83 79 74 71 70 67 58 48 38 34 29 29 26 27 24
54 57 60 60 62 61 62 60 64 68 71 72 75 79 79 80 81 84 85 86 88 89 89 87 84 81 82 82 78 72 69 68 71 62 52 43 35 31 28 25 27 36 32
60 61 62 61 61 64 63 67 72 72 72 74 79 81 84 84 86 86 85 87 89 89 85 80 77 79 80 78 73 70 66 66 67 55 42 36 34 30 28 30 36 37 36
59 63 59 60 63 65 70 77 80 76 74 80 81 82 83 82 85 85 87 90 89 84 78 76 77 79 78 74 70 66 65 67 56 45 36 33 34 28 26 28 34 36 33
63 61 62 67 66 69 79 81 77 77 81 82 83 86 85 85 87 91 92 90 85 77 74 76 78 79 75 71 67 63 62 62 47 39 32 28 28 26 24 25 26 27 30
65 68 68 70 71 77 83 79 80 84 83 83 83 83 86 90 92 90 88 83 76 74 76 78 78 76 72 67 61 59 60 52 42 34 27 24 24 24 23 27 30 30 29
70 65 69 72 78 83 80 82 86 86 85 84 86 89 91 92 91 88 82 79 77 79 80 78 75 71 67 63 57 56 53 44 38 30 25 24 22 22 22 29 31 29 28
65 69 75 81 82 80 82 87 87 86 86 89 92 94 94 92 87 83 82 83 83 81 79 75 69 66 62 57 54 54 46 39 34 28 24 24 23 23 23 21 25 33 31
70 74 77 77 78 83 87 86 87 89 91 94 95 94 90 87 86 87 86 85 82 79 75 69 64 60 58 55 52 49 40 36 31 26 24 25 24 23 22 25 25 22 24
71 73 76 81 84 86 87 89 92 94 95 96 94 91 90 90 89 87 86 83 80 75 68 63 60 57 54 52 50 43 37 32 28 24 24 27 26 24 21 22 22 21 20
76 79 82 84 86 89 91 94 96 97 96 95 93 93 92 90 88 86 84 80 75 68 62 59 57 54 51 49 44 38 33 30 26 22 26 30 28 26 26 23 21 19 21
80 82 84 88 90 93 95 97 97 96 96 95 93 91 88 86 83 81 78 73 67 62 58 55 52 48 47 42 37 33 31 27 24 21 28 35 34 31 28 26 24 23 23

GFSGL_500_spd_039.txt.gz
Wind_Speed
17 26 27 26 27 26 25 38 30 22 24 28 26 31 35 36 39 40 41 43 46 49 51 52 54 54 54 56 60 62 63 64 63 62 65 69 71 76 80 82 86 87 84
27 28 26 31 39 36 22 26 30 27 25 31 30 35 38 40 41 42 44 47 50 52 54 55 56 56 57 59 62 63 63 64 65 65 67 70 74 78 83 87 89 87 85
30 25 20 26 25 27 33 30 32 37 36 33 36 39 41 41 43 45 47 50 52 53 55 56 58 59 59 61 62 62 63 65 68 70 71 75 77 82 86 89 87 87 84
28 29 32 36 36 35 34 33 35 37 35 36 39 41 41 42 44 46 49 52 54 56 57 59 61 62 62 62 61 63 66 68 71 74 77 78 81 82 87 87 86 83 77
32 32 34 33 35 36 35 37 38 36 38 41 41 40 41 44 47 49 53 54 55 57 59 61 62 62 62 61 63 65 69 72 75 78 80 83 83 84 86 86 85 78 72
31 31 31 33 35 36 36 37 37 38 40 40 39 41 43 46 50 53 55 56 58 60 60 61 62 62 62 64 65 67 70 74 77 80 81 84 83 86 85 84 77 71 68
31 33 33 33 32 34 37 38 38 38 38 38 40 42 46 49 53 56 56 58 60 60 60 61 63 64 67 65 66 69 72 76 80 82 85 85 88 88 88 82 73 69 68
33 33 34 34 34 35 35 35 36 35 36 38 42 46 50 53 56 57 58 59 59 59 61 64 66 68 70 73 74 75 76 79 83 86 87 88 90 88 84 77 71 69 66
34 35 35 36 36 36 36 35 35 37 39 43 48 51 54 56 57 59 60 60 59 60 63 67 71 74 78 80 79 79 82 83 86 88 90 90 90 87 81 74 68 64 61
35 36 37 37 37 37 36 36 38 41 45 50 53 55 57 59 60 60 60 60 60 64 69 73 75 79 82 82 84 86 87 88 90 92 90 89 87 82 74 68 64 60 52
35 36 37 37 37 36 37 40 43 47 51 55 58 58 59 59 60 60 61 62 65 69 72 75 79 81 82 84 84 86 89 93 95 93 90 87 82 77 69 62 59 54 48
35 35 36 36 37 39 42 46 49 53 57 59 60 60 60 59 60 62 65 67 68 75 76 79 81 81 82 85 86 90 94 95 94 91 87 83 77 71 65 60 52 47 42
34 34 35 38 40 44 48 51 55 58 60 62 63 63 63 62 65 69 73 75 77 78 80 81 82 82 85 87 91 95 95 91 88 87 84 78 72 68 63 60 46 38 36
36 37 40 43 46 49 53 56 59 61 62 64 65 64 63 64 71 75 76 75 78 83 83 83 83 85 87 91 94 93 88 84 84 83 78 73 68 63 63 54 38 32 29
40 43 47 50 53 54 57 60 63 64 65 63 65 67 69 72 75 79 77 77 83 84 85 85 85 86 91 93 93 88 82 82 81 77 73 69 64 61 56 44 33 29 27
47 51 54 56 58 59 63 64 63 65 65 66 71 71 73 78 80 78 78 82 84 86 85 86 88 92 94 94 89 83 82 81 76 72 69 63 58 58 45 35 29 27 26
55 59 61 62 65 68 68 67 65 65 65 71 72 73 80 82 78 81 81 84 88 88 88 91 93 94 93 88 84 83 81 76 71 67 63 56 56 48 38 30 25 26 26
60 64 66 64 67 69 67 66 68 72 76 79 80 83 81 81 83 85 87 86 85 89 92 95 95 93 88 85 84 82 77 70 65 62 56 53 49 39 33 24 20 19 31
61 64 61 63 64 66 69 75 79 82 83 84 86 86 82 82 85 86 86 86 90 94 96 95 91 89 87 86 82 77 70 65 60 55 50 49 41 32 28 21 22 23 27
59 61 65 68 71 74 78 82 81 81 82 85 86 85 85 87 86 88 90 95 97 98 97 92 90 88 86 82 77 71 64 59 55 50 47 45 35 28 25 22 22 21 22
69 69 72 77 79 80 80 77 77 80 84 85 85 85 86 87 89 94 97 98 98 95 92 91 88 85 80 76 71 66 59 54 51 47 44 38 31 25 23 23 23 23 25
74 75 76 76 76 75 76 78 80 81 83 83 86 87 88 92 95 98 98 96 94 93 91 87 83 78 74 72 67 60 53 50 47 45 39 32 27 24 23 24 24 23 28
74 74 71 71 73 75 77 78 79 81 83 84 87 91 95 97 100 100 98 96 93 88 84 80 77 75 73 68 61 55 48 46 44 39 32 28 24 23 24 23 22 22 30
65 69 71 72 73 74 77 78 80 83 86 90 94 97 99 99 98 96 93 88 84 81 80 78 76 71 66 60 54 48 44 41 37 32 28 25 22 25 27 26 25 22 21
68 70 71 73 75 77 79 82 86 90 94 97 98 98 97 96 93 89 85 83 81 80 77 73 70 66 59 52 45 41 38 35 31 27 25 23 22 28 28 30 26 22 21
69 71 74 77 80 84 88 91 94 96 96 97 97 95 91 88 86 84 82 80 77 75 74 70 63 56 49 42 37 34 32 29 27 25 23 21 22 32 32 32 29 25 22

GFSGL_500_spd_042.txt.gz
Wind_Speed
23 26 26 31 32 35 34 36 36 35 33 37 28 22 22 24 26 29 33 34 36 38 41 43 46 49 52 53 55 55 55 56 56 56 58 61 64 66 68 70 74 77 78
27 31 30 32 34 36 38 44 29 47 40 31 22 23 28 29 29 33 35 37 39 40 43 46 50 52 54 55 55 54 54 56 59 59 61 63 66 69 70 74 76 79 82
26 30 28 33 35 28 27 26 24 23 20 30 24 27 29 31 33 35 36 38 39 42 46 50 53 55 56 56 56 55 57 60 62 64 66 68 70 71 74 77 79 84 85
23 26 28 29 27 26 30 28 25 31 29 30 31 32 33 34 36 36 37 39 43 47 51 54 55 56 57 57 55 57 60 62 66 70 72 74 78 77 79 81 85 85 85
25 28 28 27 28 29 29 28 30 32 34 35 35 35 37 38 37 37 39 43 48 52 54 56 58 59 59 56 56 59 63 67 72 75 77 79 79 81 83 83 88 88 87
31 31 29 28 28 29 28 30 31 34 37 38 39 39 37 36 37 40 44 49 53 56 58 59 60 61 61 59 62 67 69 72 75 77 80 81 82 84 84 87 91 91 92
32 31 31 30 31 30 30 32 34 36 35 36 36 36 35 38 41 46 51 55 58 60 61 62 62 61 61 62 67 68 73 77 81 83 82 84 83 84 89 91 91 90 91
33 34 34 33 34 35 35 37 37 36 34 36 36 36 39 43 47 52 56 60 61 62 63 63 62 62 63 67 68 72 75 78 83 85 86 84 84 87 91 92 91 91 89
32 32 35 36 36 38 40 40 38 37 38 38 38 41 44 48 53 57 60 62 63 64 64 63 63 66 70 73 76 77 76 80 83 85 86 86 88 91 91 91 89 92 86
33 33 34 36 38 41 41 40 40 40 41 42 43 46 49 53 57 61 63 64 65 66 66 66 68 71 74 78 79 78 83 84 85 84 85 88 90 90 89 88 90 89 81
35 36 37 38 40 41 42 41 42 43 44 45 48 51 54 58 61 63 65 66 67 67 68 69 73 77 79 80 78 82 83 85 84 86 89 92 94 93 88 85 86 82 74
37 38 39 40 41 42 42 43 45 46 48 50 53 57 60 63 66 67 69 69 68 70 72 74 76 79 80 80 83 84 85 86 88 91 94 96 95 90 85 83 78 73 67
40 39 40 41 42 42 43 45 47 50 52 54 59 63 66 69 71 69 71 71 73 76 77 78 81 83 82 83 85 87 89 90 93 96 98 97 91 86 82 76 69 65 59
41 41 41 42 42 44 47 49 52 54 57 60 64 67 69 73 72 72 69 71 77 79 82 84 87 87 84 87 89 89 91 94 97 97 95 90 86 83 77 71 63 57 53
42 43 43 44 47 49 52 54 57 60 63 65 68 72 73 74 71 70 73 78 83 86 89 90 88 87 90 90 89 92 95 97 96 92 89 86 82 76 69 65 58 51 47
45 46 48 51 53 56 58 60 63 65 68 71 67 67 71 71 73 77 82 86 88 90 90 86 87 88 87 89 93 97 98 96 92 88 86 81 76 70 63 57 51 49 36
49 51 53 56 58 61 63 66 69 71 72 69 69 70 74 75 80 84 86 88 90 88 85 87 87 87 90 95 98 98 96 91 89 85 80 75 71 67 57 49 46 40 28
54 56 58 61 63 65 68 67 68 71 74 75 76 80 84 86 87 87 87 87 85 85 86 86 88 92 96 99 98 95 90 88 83 78 74 71 67 60 49 44 42 31 22
54 58 60 62 62 61 63 68 72 75 78 81 83 85 86 86 87 86 83 82 82 83 85 90 94 98 100 98 93 90 87 81 77 74 72 68 62 52 42 40 35 26 22
57 58 62 67 64 67 71 74 78 81 83 84 84 83 84 84 82 81 81 82 85 89 93 97 100 100 97 93 89 85 79 77 75 72 67 61 54 45 37 35 30 24 22
56 66 66 71 74 77 79 80 80 79 79 80 80 80 79 79 80 81 85 88 92 96 100 100 98 96 92 87 82 79 77 74 70 65 62 55 45 38 35 29 27 23 23
65 67 74 79 78 76 75 74 73 74 75 75 76 77 79 81 84 88 92 96 99 99 97 96 93 89 84 81 79 76 73 70 67 62 54 44 38 34 30 25 24 23 24
74 74 78 81 78 70 69 70 73 73 74 76 79 82 85 89 93 96 98 99 98 96 93 89 86 82 81 79 77 73 70 66 59 52 43 36 33 30 25 23 23 25 26
75 75 72 69 68 68 69 71 74 78 80 83 87 90 93 96 97 98 98 95 91 87 85 83 82 81 78 75 72 68 63 56 48 40 34 30 29 25 22 21 24 26 27
65 66 65 66 69 71 74 78 81 84 88 90 93 95 96 97 96 94 91 87 85 84 84 83 81 78 74 70 66 60 53 44 37 31 28 27 24 22 21 21 26 25 23
65 68 70 73 76 79 82 86 89 91 92 94 94 94 94 92 90 88 86 85 85 84 82 79 75 71 67 62 54 46 39 32 28 27 25 23 21 21 21 26 31 31 28

GFSGL_500_spd_048.txt.gz
Wind_Speed
17 19 21 24 25 25 30 34 36 33 30 33 38 37 35 36 36 45 49 47 36 33 36 37 39 36 38 39 39 41 43 45 48 53 53 53 55 54 53 57 59 63 66
22 22 24 30 30 28 28 29 27 29 35 39 28 27 29 33 29 38 48 38 40 37 33 36 39 39 39 40 40 43 47 49 53 55 56 57 57 57 57 59 64 66 69
28 29 28 27 28 30 32 29 28 21 18 21 19 20 26 20 26 15 21 26 34 33 37 40 41 42 40 41 44 46 50 53 56 57 58 59 60 61 64 66 69 72 75
27 28 27 28 29 29 29 29 28 28 22 24 25 29 28 28 27 21 24 28 34 36 39 40 42 41 42 44 46 48 53 56 58 61 60 61 63 65 66 67 70 73 76
25 28 34 33 31 28 29 29 29 29 29 29 29 28 28 28 28 31 33 32 37 38 41 44 43 43 45 46 48 52 56 59 62 65 63 64 64 66 68 70 74 80 79
33 38 43 42 38 30 30 30 31 30 31 33 31 31 30 32 32 35 36 37 40 44 46 46 45 46 48 50 53 57 61 64 67 66 67 68 69 70 73 77 80 81 81
36 35 34 36 35 33 32 34 34 34 35 35 34 34 34 35 36 38 40 44 46 48 48 47 48 49 51 54 57 61 64 66 69 71 72 71 72 76 80 83 84 85 84
31 32 33 33 35 35 37 36 35 35 36 36 38 40 40 41 41 42 45 48 48 48 49 50 51 53 55 58 61 65 68 71 73 73 74 75 77 81 84 87 88 86 85
33 36 37 33 33 35 37 35 34 35 36 38 40 41 42 45 48 49 48 49 50 51 52 52 54 57 59 62 66 70 75 79 78 76 77 79 83 86 88 89 90 90 90
32 35 35 35 36 36 38 37 37 37 38 40 42 46 48 49 49 49 50 51 52 54 55 57 59 62 65 68 71 75 79 80 78 78 82 85 88 90 91 92 91 89 91
38 39 37 37 38 39 41 40 39 42 42 43 45 47 49 50 50 52 54 54 56 58 59 61 64 67 71 73 76 79 83 81 80 84 86 89 90 91 89 87 88 90 92
39 41 39 40 42 43 45 43 43 42 44 46 48 49 51 52 53 55 57 58 59 61 64 66 69 72 76 78 83 86 82 82 85 88 90 91 92 90 85 85 89 92 95
38 42 42 43 46 46 47 45 45 47 47 48 51 52 53 55 57 58 60 62 64 66 69 71 75 77 81 85 87 85 86 89 92 92 92 90 88 87 87 89 92 96 97
41 41 43 45 44 46 49 49 50 53 55 54 54 55 56 59 61 63 65 67 69 71 73 77 82 86 88 88 88 90 92 93 94 92 89 87 85 87 90 93 95 97 99
43 42 43 43 44 46 48 50 51 52 55 56 56 58 60 63 66 68 70 72 74 77 83 84 86 88 90 92 95 96 94 92 90 88 86 86 89 91 94 96 98 100 98
51 52 51 48 48 50 50 51 53 54 56 59 61 64 65 67 69 72 75 78 80 82 84 86 89 93 96 96 95 93 90 88 86 86 88 90 93 95 96 98 100 95 85
41 45 46 47 47 47 49 52 55 58 61 63 64 67 69 71 73 75 77 79 80 83 87 90 91 92 92 92 91 88 86 85 88 90 93 96 97 99 101 99 90 83 78
49 46 49 50 53 54 57 61 61 63 65 66 69 71 72 75 77 77 75 77 82 86 89 90 90 89 89 87 86 86 88 91 94 96 98 100 102 101 94 86 82 79 74
45 46 51 49 53 59 61 62 63 63 63 62 63 65 66 68 72 76 80 84 87 88 87 87 86 84 84 85 88 91 94 97 99 101 102 101 96 89 85 83 79 75 69
55 56 54 56 53 56 59 62 64 62 63 65 67 69 73 79 83 83 86 87 84 83 81 81 83 85 88 92 95 98 100 102 103 100 97 92 89 86 83 79 74 68 60
55 56 54 54 60 61 59 62 65 70 71 73 77 81 83 85 85 82 79 80 81 82 84 87 91 94 97 99 101 102 102 100 99 95 92 89 86 84 80 72 65 61 52
54 52 54 60 63 66 68 69 72 75 78 82 84 84 82 80 80 81 83 86 89 92 94 96 98 100 101 101 100 99 97 95 94 92 89 85 79 74 69 64 58 50 42
59 60 63 65 67 70 72 74 76 76 76 76 76 77 80 83 85 88 91 93 95 96 98 98 98 98 97 97 96 95 93 91 88 85 79 74 70 68 63 54 47 37 29
65 66 67 67 68 68 68 68 71 74 76 78 81 83 85 88 90 92 94 95 96 95 95 94 93 92 92 91 91 89 86 82 78 75 71 68 63 57 48 39 30 24 22
61 60 60 62 66 70 72 74 76 78 81 83 86 89 91 92 93 92 91 91 89 88 87 86 86 85 84 82 81 79 76 73 70 65 58 52 44 36 29 23 19 19 19
62 64 65 68 70 73 76 80 83 86 88 89 89 89 87 86 84 83 82 81 80 80 79 79 78 77 76 75 72 68 63 57 51 44 37 29 24 20 16 16 16 18 18

GFSGL_500_spd_051.txt.gz
Wind_Speed
19 19 20 20 20 21 22 24 25 28 32 33 36 36 37 37 37 38 41 45 46 49 49 50 46 37 43 43 39 39 40 42 41 43 44 47 48 52 55 58 59 58 58
19 20 22 23 26 25 26 28 28 26 26 27 26 32 39 46 36 41 38 33 39 41 45 33 32 34 38 40 37 40 40 42 44 45 48 50 52 55 58 61 61 61 61
25 25 28 28 30 30 29 31 31 29 29 30 27 24 22 28 28 31 30 24 27 31 38 37 38 39 39 41 41 42 45 45 47 49 50 53 55 58 61 62 63 66 67
24 25 28 27 26 27 29 31 34 33 32 31 29 28 26 24 29 33 30 30 30 31 35 38 40 42 44 46 45 47 49 49 52 53 54 57 60 62 63 66 69 69 67
31 26 27 26 26 29 32 34 36 36 34 32 32 31 31 30 31 33 35 34 33 35 38 38 39 41 43 46 49 50 51 53 55 57 59 61 63 65 68 71 73 68 69
32 27 31 34 34 36 35 37 34 34 35 35 34 33 35 35 35 36 37 37 37 39 39 41 42 46 48 50 52 53 55 56 58 60 62 64 67 70 71 74 73 71 74
37 32 33 35 39 37 34 35 33 33 35 35 37 39 37 41 41 39 38 41 40 43 43 46 49 52 52 53 54 55 57 58 61 64 65 68 70 72 74 78 76 77 79
38 37 36 39 36 34 35 36 35 33 33 34 36 36 38 40 42 43 41 43 44 47 49 51 54 53 54 55 56 57 59 61 65 67 68 71 74 75 81 82 79 82 85
34 35 36 39 40 36 36 35 34 35 34 34 37 38 37 39 41 43 45 46 50 53 55 56 55 56 56 57 58 59 61 65 68 70 73 76 79 84 85 82 85 88 91
31 33 37 42 42 36 36 37 36 35 36 37 36 38 40 42 43 45 48 51 52 55 55 57 58 58 59 60 62 63 66 68 72 75 79 83 87 88 87 89 92 93 93
33 36 37 39 42 40 39 37 38 37 39 41 42 42 43 45 47 47 49 51 53 55 56 58 59 60 62 64 66 68 70 73 77 81 85 87 88 92 94 96 95 93 92
36 37 39 41 39 37 38 42 42 41 42 43 44 45 46 47 48 51 52 54 56 57 58 60 61 64 66 68 70 72 75 78 82 84 85 89 93 96 97 95 93 89 86
44 46 47 47 43 42 44 46 45 46 47 47 48 50 52 54 55 56 56 57 58 60 62 63 66 68 70 72 74 76 80 84 85 87 90 93 95 95 96 93 87 84 86
52 47 44 45 44 48 47 46 47 47 49 51 52 52 52 54 55 56 58 60 61 63 65 67 70 73 76 78 80 82 83 86 89 92 93 95 97 95 90 87 86 87 89
40 45 49 49 50 50 53 54 52 49 50 50 52 53 54 55 58 59 61 64 66 68 70 73 75 78 81 83 84 85 85 87 90 94 95 95 93 89 88 89 91 92 93
42 46 47 52 53 53 51 50 51 51 50 51 53 53 55 58 61 64 66 68 70 73 75 77 79 82 84 86 86 86 89 92 93 92 92 90 89 91 92 94 95 97 97
48 50 56 55 56 56 51 51 49 50 52 56 59 59 61 64 66 64 64 67 70 72 74 75 75 77 82 87 89 90 89 88 88 89 90 92 93 95 96 98 99 101 98
51 46 59 64 65 65 59 58 60 64 62 64 66 67 67 66 65 66 65 67 70 73 76 78 82 86 87 88 86 85 87 89 91 93 94 96 98 100 102 102 101 96 91
49 52 49 45 47 53 56 58 59 56 52 58 60 60 58 61 65 69 72 74 77 82 85 88 87 86 86 86 88 91 93 95 97 99 101 102 104 103 101 98 94 89 84
48 52 51 52 53 53 51 54 57 57 57 61 63 66 68 70 73 75 79 82 84 84 84 85 86 89 92 95 96 98 100 101 102 103 102 102 101 98 95 91 87 82 75
48 51 52 52 55 58 60 61 57 58 60 64 68 73 75 76 78 79 79 80 81 84 88 91 93 95 98 100 101 102 102 102 101 99 96 94 92 90 88 84 77 71 65
48 53 57 60 57 58 60 63 67 68 70 74 76 76 78 79 79 80 83 87 88 90 92 94 97 99 101 101 100 98 96 94 93 91 89 87 85 83 79 73 68 63 56
58 59 59 60 62 65 69 72 72 73 74 75 75 76 78 80 83 84 86 89 92 95 97 98 99 98 96 94 91 89 87 86 85 84 82 81 78 75 71 64 58 50 41
53 55 57 60 62 65 67 69 70 70 72 75 77 79 81 83 87 91 93 95 96 95 93 90 88 86 85 84 83 82 81 80 78 77 74 71 66 60 52 45 38 31 26
54 55 58 62 65 66 69 71 73 74 77 81 84 87 90 92 93 92 90 87 84 82 80 79 78 77 77 76 76 75 74 73 69 64 59 52 46 39 32 26 21 17 16
59 60 62 65 68 72 74 77 80 83 85 86 88 90 88 84 80 78 76 75 75 74 73 72 71 70 69 69 68 67 63 58 52 46 39 33 27 20 15 12 11 12 14

GFSGL_500_spd_054.txt.gz
Wind_Speed
18 17 18 19 19 18 17 17 20 20 22 24 25 26 26 31 35 38 38 41 42 41 42 45 49 51 54 59 63 63 56 52 44 43 46 47 51 51 50 49 51 53 56
23 19 19 18 18 21 22 21 22 24 25 23 25 27 27 27 27 32 38 41 46 46 46 51 42 48 48 45 41 40 36 38 45 46 46 49 50 51 52 54 56 58 61
25 24 24 23 23 24 27 28 29 28 27 27 29 28 28 29 32 30 30 36 39 40 42 42 37 40 43 39 39 44 42 40 47 48 50 51 54 55 57 59 61 62 66
29 28 27 26 24 27 30 31 29 27 27 28 31 32 32 33 33 34 33 34 34 38 37 36 42 41 43 42 44 47 45 48 51 53 55 56 57 59 61 64 65 66 69
32 31 31 33 32 29 29 28 28 29 31 33 34 35 35 37 37 36 39 39 38 39 41 41 43 44 43 40 42 44 47 51 54 55 57 59 61 63 65 67 68 70 73
35 37 36 36 36 33 32 34 35 36 37 37 33 36 36 36 37 38 41 40 43 42 39 42 42 45 42 44 47 49 53 55 58 60 61 62 63 65 68 69 72 74 76
43 44 41 39 37 37 39 39 37 37 37 36 37 38 37 35 36 39 41 43 43 44 44 42 47 47 50 50 52 55 58 60 61 62 62 64 65 67 69 72 74 77 78
48 48 41 40 39 40 42 40 41 41 40 39 39 39 38 36 37 38 40 42 43 44 45 48 49 52 53 55 58 61 64 64 63 63 63 65 67 69 72 74 77 78 80
47 46 46 43 41 45 42 41 43 44 45 45 44 41 38 37 38 40 41 44 46 48 50 52 54 55 57 53 58 65 66 71 67 65 66 68 70 72 75 78 79 82 85
46 47 47 42 41 43 44 43 42 43 43 42 45 46 45 41 43 43 45 46 49 51 53 55 56 58 60 62 65 64 71 69 69 69 71 73 75 76 78 80 84 88 89
46 46 46 46 44 45 47 48 44 41 42 42 43 46 50 50 48 48 48 51 52 53 54 56 58 59 64 64 67 67 68 69 70 73 76 77 78 81 84 86 89 92 92
44 45 49 51 49 47 50 50 56 59 45 44 45 48 50 51 52 53 53 53 53 55 57 56 58 57 66 67 66 68 70 71 73 76 80 83 86 88 89 91 94 96 95
48 47 48 48 50 51 53 57 56 60 54 52 50 54 53 52 52 53 54 56 48 47 52 60 62 63 65 67 70 72 72 76 79 82 86 87 90 92 92 92 93 95 97
51 50 48 53 54 56 57 55 50 50 54 54 58 56 56 54 54 54 54 52 50 64 65 65 65 67 69 71 73 76 78 82 85 87 89 90 86 88 93 94 94 93 92
47 51 53 57 60 58 53 55 58 57 59 57 56 57 57 55 55 55 55 58 63 62 64 67 68 70 74 76 78 82 85 86 88 88 87 91 92 92 91 90 91 94 94
46 47 52 55 56 53 52 52 55 55 57 68 60 60 58 56 56 57 59 62 65 68 70 71 73 76 78 78 79 82 83 85 88 92 96 95 92 92 93 94 95 96 98
45 46 47 52 51 53 63 60 56 59 65 65 63 66 66 62 64 66 67 69 70 70 69 68 69 71 75 78 81 85 88 90 92 91 91 93 94 96 97 99 100 103 103
41 44 52 61 59 57 53 64 66 63 63 66 66 63 60 58 58 58 57 60 61 63 66 70 75 79 82 86 88 89 89 89 91 94 96 98 100 102 104 106 107 106 104
44 40 44 46 53 51 55 45 43 47 48 51 53 50 51 51 55 61 63 65 67 71 76 81 84 85 86 87 87 88 90 93 96 99 102 105 108 110 109 107 104 100 95
51 47 50 55 47 44 45 44 46 47 51 53 56 58 60 62 64 67 71 74 77 80 84 85 84 84 85 89 91 94 97 101 105 108 110 110 108 105 101 96 93 90 86
42 44 43 45 45 46 53 53 55 58 59 61 62 64 68 70 73 77 80 80 80 81 82 84 86 89 92 95 99 102 106 108 108 108 105 100 96 93 91 88 85 82 78
47 50 50 52 52 54 58 60 63 65 66 67 68 70 72 72 73 75 77 78 81 85 89 91 94 96 100 102 104 104 103 101 98 95 92 90 87 84 82 80 77 73 69
50 52 53 55 57 60 63 65 66 66 66 67 69 71 73 75 78 80 82 85 88 92 95 98 100 101 100 99 96 93 90 88 86 83 81 80 78 76 73 68 63 57 51
51 54 57 59 60 62 64 66 66 67 68 71 73 76 77 80 83 86 90 93 95 96 97 97 94 90 86 83 81 79 77 76 76 75 73 70 68 63 57 51 44 38 32
55 56 57 59 60 60 63 65 69 73 75 76 78 81 83 86 89 92 94 94 91 86 82 78 75 75 74 73 73 72 71 69 67 65 62 57 51 44 38 32 26 20 16
53 55 58 61 63 66 69 72 75 78 81 83 86 88 90 91 89 85 80 74 71 70 70 70 69 68 68 67 66 64 62 60 57 53 46 39 33 27 22 17 12 9 7

GFSGL_500_spd_060.txt.gz
Wind_Speed
16 17 15 12 11 12 13 13 11 11 13 14 17 17 16 16 18 21 22 21 22 24 25 27 30 33 37 41 42 44 43 45 49 49 50 50 48 46 38 43 41 40 41
21 19 18 16 15 15 16 16 16 15 14 16 17 17 19 22 24 25 24 23 25 25 25 27 29 32 33 32 36 41 43 50 52 51 47 45 48 47 50 48 47 47 46
27 23 21 20 19 19 21 23 21 21 21 22 23 24 25 26 26 26 26 26 25 26 28 31 33 34 35 37 39 41 39 44 51 48 46 48 49 49 48 50 48 54 55
32 29 27 25 25 25 26 27 28 26 26 25 25 26 29 29 26 27 29 30 32 33 35 36 37 37 38 40 42 43 43 43 44 51 55 48 48 46 50 50 52 57 60
33 34 33 32 32 31 31 32 32 33 31 33 31 30 30 31 31 32 34 36 38 40 40 40 40 42 43 43 42 45 44 43 46 49 49 52 51 54 57 57 57 58 59
36 37 35 37 36 35 34 34 35 35 35 35 35 34 34 35 35 37 39 39 40 40 40 41 43 45 45 47 48 47 45 49 47 45 47 55 56 58 59 60 59 59 67
39 36 38 39 39 37 38 40 39 40 40 38 36 39 40 41 41 41 42 45 44 44 44 44 43 44 46 48 49 48 49 50 52 54 56 59 52 56 65 60 64 67 66
41 40 40 42 42 41 42 43 44 44 43 43 43 40 42 43 43 42 45 47 48 48 49 49 49 47 48 50 51 52 53 54 55 57 60 61 63 61 68 67 71 68 67
43 42 42 43 45 46 46 44 45 47 48 48 48 46 43 43 45 45 47 47 47 48 49 51 52 52 52 53 54 56 58 59 59 60 63 64 63 67 70 73 71 71 73
47 48 48 48 49 49 49 49 51 52 52 52 51 47 47 47 48 50 48 50 53 54 52 53 54 57 58 58 59 61 63 65 64 65 69 69 71 73 75 74 74 71 80
50 51 53 55 54 53 54 54 55 55 54 53 53 52 51 53 55 54 54 54 58 56 54 56 56 56 60 61 61 67 59 69 67 67 71 73 77 84 74 71 78 81 85
49 52 53 57 59 57 58 59 60 59 59 60 58 58 55 62 62 61 64 61 63 63 59 61 64 55 60 65 69 60 60 65 66 70 75 77 74 69 67 74 80 84 84
52 54 57 60 64 66 64 64 63 65 64 63 63 63 65 63 67 61 65 69 72 74 76 68 65 67 62 67 67 73 76 65 68 67 81 74 69 77 84 85 82 83 86
58 57 63 65 66 70 71 70 66 67 68 63 67 70 66 70 63 70 68 66 73 78 63 72 71 67 74 78 72 76 69 67 68 73 72 77 84 90 86 83 86 89 89
59 60 61 68 68 65 71 74 71 69 67 68 71 64 68 72 68 64 69 66 77 76 75 77 77 73 71 69 64 67 70 68 68 76 80 80 81 82 82 85 88 92 96
56 54 56 59 65 62 60 64 67 78 71 72 70 73 78 74 74 66 71 79 81 71 69 71 71 75 61 61 60 66 72 76 74 75 75 77 80 84 88 92 97 98 96
43 44 50 52 60 59 57 59 64 69 73 68 76 76 81 77 70 74 76 76 74 73 66 67 61 60 62 65 69 67 68 70 73 78 80 83 88 91 95 94 96 99 101
41 44 44 43 54 61 58 57 61 65 63 71 71 85 76 77 70 72 69 60 58 60 61 60 62 63 62 63 66 69 72 74 76 81 86 89 89 91 95 98 101 105 108
37 34 24 25 22 25 20 29 32 38 52 43 50 50 47 53 51 58 51 53 60 63 65 62 62 65 69 71 73 75 76 77 78 81 84 89 93 96 100 104 108 112 114
36 30 32 30 29 33 37 31 28 36 30 36 38 41 45 49 52 49 56 61 60 63 65 68 71 72 73 75 76 77 79 81 85 88 91 95 99 104 107 109 109 108 104
28 29 29 31 31 32 34 40 42 41 38 37 40 46 49 51 54 57 62 65 66 67 69 71 73 74 74 75 78 82 85 88 92 95 98 102 102 101 100 97 95 93 90
33 31 33 37 37 38 40 40 39 42 45 46 49 52 52 54 57 59 62 64 66 67 67 69 71 74 78 81 85 88 92 95 97 96 95 92 89 87 86 85 84 83 81
40 41 40 41 41 43 45 48 50 53 53 54 56 57 58 60 60 62 62 63 66 69 71 74 78 81 84 88 91 92 92 90 87 83 80 80 79 78 77 77 75 73 70
43 45 47 47 49 51 50 50 51 52 54 56 57 57 59 60 63 66 68 70 73 76 79 82 83 84 87 87 85 83 79 76 75 74 74 72 71 71 70 68 65 62 55
43 45 47 49 49 50 51 52 53 55 56 58 60 63 65 68 70 73 75 76 78 80 81 81 79 78 75 74 72 71 71 70 69 68 67 66 65 63 61 58 51 45 38
44 46 48 51 52 54 57 58 60 62 65 66 68 70 72 73 74 75 76 76 75 73 71 70 68 67 67 67 66 65 64 64 63 62 60 58 56 53 48 42 37 31 26

GFSGL_500_spd_063.txt.gz
Wind_Speed
16 17 16 13 12 11 10 9 8 8 8 9 9 11 13 15 16 14 15 18 19 20 21 23 25 26 28 30 30 32 35 37 38 38 40 41 43 47 50 49 46 45 45
20 20 18 15 14 13 13 14 12 11 11 12 11 12 15 17 18 20 21 22 22 23 24 26 25 27 28 31 32 33 35 35 38 39 38 41 43 46 47 48 46 46 46
23 23 21 19 18 19 18 17 17 17 18 16 15 16 20 22 24 25 25 27 27 27 28 29 28 31 32 34 36 37 37 40 39 40 40 40 40 41 43 48 45 46 47
27 24 23 22 23 25 26 23 20 21 22 22 22 21 21 24 23 25 28 28 29 30 30 32 33 36 37 39 42 41 43 44 42 41 44 44 41 42 41 46 49 50 48
30 28 26 26 28 28 29 30 31 27 26 26 27 27 25 27 28 26 29 30 32 35 36 38 39 40 41 41 43 42 46 47 48 46 48 47 44 46 48 44 48 51 53
29 31 32 33 34 33 33 34 36 35 33 31 30 30 32 29 28 30 32 36 38 38 38 39 40 40 39 42 44 45 45 45 47 49 50 51 50 52 53 55 57 58 51
38 34 35 36 35 35 36 37 36 36 37 37 36 36 37 35 33 33 37 41 42 41 42 43 44 43 42 43 43 44 45 47 49 50 50 51 53 53 54 56 56 57 61
41 42 40 40 40 39 40 40 39 39 42 43 44 43 44 40 38 38 39 42 44 44 47 47 46 45 44 45 46 47 49 49 49 51 53 55 56 59 60 60 62 64 68
44 45 45 43 43 43 43 42 40 41 43 45 47 47 44 43 45 41 41 43 45 49 51 51 48 49 49 48 50 51 52 55 57 56 55 60 60 62 63 59 62 64 63
47 48 48 46 46 47 48 49 48 48 47 49 51 50 50 51 49 48 46 47 50 53 54 54 53 55 52 52 56 58 61 61 62 66 56 61 63 62 65 73 66 67 65
47 48 49 51 51 50 52 54 56 57 56 54 54 55 54 54 55 52 52 54 56 57 58 61 62 61 60 62 63 63 66 64 57 58 62 69 70 66 66 73 68 69 78
47 49 51 53 55 56 57 59 61 62 61 61 62 61 61 61 60 61 61 61 61 64 65 67 67 68 67 66 69 71 76 79 60 62 67 69 68 75 73 76 78 77 75
47 49 50 52 56 59 61 63 68 70 68 67 68 68 67 68 70 69 67 70 66 67 70 70 70 69 67 70 75 73 74 69 67 68 71 73 69 77 75 77 75 75 79
47 49 52 56 59 62 65 68 71 75 78 77 75 75 74 72 72 71 71 72 74 75 77 70 76 76 73 77 79 70 80 75 69 70 73 66 71 70 72 72 74 72 83
52 52 53 55 59 61 63 66 69 76 80 79 78 80 81 72 69 72 71 79 71 80 75 73 73 75 73 75 67 66 77 93 82 65 69 69 70 72 72 76 83 87 84
56 56 58 61 60 59 51 52 57 64 72 77 73 71 73 74 72 64 84 64 76 77 69 65 77 67 76 75 72 86 82 66 68 67 67 70 70 71 75 76 80 84 88
64 65 64 63 61 58 48 47 48 55 61 63 66 68 69 71 69 61 67 68 72 76 69 79 70 74 74 80 74 67 68 70 68 70 69 72 74 77 81 84 85 87 89
58 57 58 56 52 47 45 43 45 49 51 51 55 63 67 71 62 70 76 71 87 76 72 80 57 64 64 64 60 62 64 69 71 72 74 77 81 83 85 85 87 89 92
42 40 40 35 39 39 39 33 28 31 29 35 51 54 42 54 64 72 55 54 57 51 49 53 52 51 53 59 60 65 67 71 73 76 78 80 81 83 86 89 92 96 99
43 38 37 28 28 26 25 26 31 31 29 33 34 36 35 35 35 36 36 43 45 46 49 53 56 58 62 63 65 68 71 73 76 77 79 82 84 87 91 94 98 100 100
42 39 42 38 38 33 30 30 30 31 32 33 35 36 38 39 40 42 46 51 52 53 55 58 60 62 66 69 71 71 73 74 77 81 84 87 89 93 95 95 94 91 90
42 40 40 41 41 40 38 36 36 36 38 40 41 42 44 46 48 49 51 55 56 58 61 63 64 66 67 69 70 73 75 79 82 85 86 87 88 87 86 84 82 81 81
45 46 46 46 45 44 44 43 43 43 42 43 44 46 48 50 51 53 55 57 57 59 60 62 65 68 70 72 73 76 79 80 79 80 79 79 80 78 76 75 75 76 75
43 43 44 44 44 45 44 43 44 45 46 47 47 48 50 52 55 57 59 61 62 63 65 69 70 72 74 76 78 79 78 74 72 71 71 72 70 69 70 70 69 66 63
41 42 43 44 45 46 47 48 48 49 51 52 54 56 58 59 62 63 64 64 65 67 70 71 71 72 71 69 68 66 65 65 65 66 65 66 65 65 63 61 58 55 52
46 48 49 50 51 53 54 56 57 58 58 58 59 60 61 63 63 64 64 65 63 63 62 62 61 61 61 61 61 62 62 61 61 61 61 59 58 56 53 50 48 44 39

GFSGL_500_spd_066.txt.gz
Wind_Speed
20 20 18 15 12 13 13 11 11 10 9 10 10 11 13 14 16 16 17 20 19 20 23 26 27 29 30 30 32 34 36 38 38 37 36 36 38 40 39 42 45 45 45
23 22 22 19 15 13 14 13 14 15 14 14 14 14 14 14 14 15 17 20 20 22 26 28 27 31 31 31 32 33 35 36 39 39 39 39 40 40 41 42 42 43 44
27 27 24 22 20 19 18 17 15 16 19 18 18 19 19 18 18 21 23 24 25 26 29 30 29 33 30 31 33 34 37 40 43 45 43 45 44 42 43 42 40 43 44
27 28 27 26 25 25 25 23 22 21 19 20 22 25 24 25 23 23 25 26 27 29 32 32 31 33 31 32 37 38 41 45 47 50 51 50 52 44 44 44 46 47 47
23 27 28 29 30 30 30 30 29 27 27 27 27 27 29 30 28 27 28 31 32 30 32 33 34 36 38 38 40 40 44 47 47 46 46 45 47 46 45 48 49 49 51
32 29 30 34 34 32 32 31 35 35 35 36 34 34 34 33 31 32 32 33 35 37 36 37 39 41 40 41 43 45 49 49 49 49 46 45 45 45 44 46 49 49 50
38 33 35 35 34 36 38 40 38 37 39 37 37 39 40 39 37 38 39 40 41 41 40 41 44 44 44 45 46 49 51 50 48 46 47 47 46 47 49 50 52 52 53
36 40 38 37 38 39 40 41 41 43 42 42 43 43 44 44 42 43 43 44 48 47 46 46 48 47 46 48 52 52 52 51 51 50 48 45 45 49 55 55 57 54 55
42 42 40 41 43 44 42 44 45 45 46 47 46 47 50 49 48 49 49 50 51 50 52 53 51 51 51 52 55 55 56 57 54 53 54 54 53 53 58 59 65 56 64
47 48 47 46 48 45 45 45 45 47 49 51 52 53 53 52 53 54 55 55 56 55 56 58 58 57 57 60 60 60 61 62 63 63 62 63 61 66 67 72 67 59 66
49 50 51 51 51 51 52 50 50 50 51 54 57 60 60 59 60 60 61 61 62 60 61 63 63 62 61 61 63 66 67 69 68 67 73 73 70 68 71 81 71 73 69
50 51 52 53 55 55 57 59 60 60 61 61 63 65 66 67 66 68 65 66 64 68 67 69 71 67 67 66 69 71 72 75 72 74 75 78 75 74 81 84 84 78 78
45 47 48 48 50 53 54 57 60 62 64 66 68 69 70 71 71 71 73 73 71 71 73 70 72 75 76 73 78 86 81 71 74 78 77 80 93 78 90 90 84 83 79
45 47 49 50 51 53 56 57 57 60 63 66 68 71 74 74 76 77 77 79 78 78 74 66 79 71 66 82 76 80 86 85 68 72 84 81 84 92 96 91 89 75 72
48 50 53 55 57 58 59 61 61 62 64 67 69 70 70 71 72 75 82 76 65 76 72 64 71 74 79 77 69 79 80 78 85 88 87 86 85 80 77 79 76 72 75
53 55 57 59 61 62 63 64 64 64 63 62 62 61 59 63 68 70 64 62 78 75 74 81 78 79 72 79 69 72 74 80 80 89 79 76 76 82 72 71 70 71 73
59 61 63 67 69 69 70 70 71 70 66 65 58 56 56 58 60 63 61 75 66 69 76 59 70 76 75 72 73 77 82 87 79 67 59 64 66 63 63 66 70 74 77
64 64 59 54 54 55 57 54 48 47 51 50 50 48 52 59 61 59 58 67 72 71 73 74 77 78 79 77 66 60 60 59 58 56 58 60 64 68 71 72 74 78 82
50 47 47 49 47 46 46 42 38 39 36 35 36 36 34 35 42 49 42 43 46 48 51 50 50 45 43 47 48 50 53 54 57 61 62 65 67 70 72 75 78 80 84
42 43 44 44 42 43 42 44 45 46 45 41 36 34 35 35 35 36 36 36 36 38 43 44 46 47 48 50 52 55 56 57 62 66 70 71 72 73 76 78 81 84 88
43 43 42 44 46 47 46 43 44 46 46 47 48 44 41 41 41 42 42 44 45 46 48 50 51 52 54 57 60 62 63 65 68 69 71 73 75 76 79 81 84 87 89
45 45 46 47 48 47 47 47 48 46 48 48 48 48 47 47 46 46 47 48 49 51 53 55 56 57 59 60 62 64 65 68 70 71 73 76 79 80 81 82 81 82 81
47 47 46 45 45 46 46 45 44 45 46 47 48 49 49 49 49 50 50 51 52 53 55 56 58 59 61 62 65 66 68 69 72 74 75 76 76 76 74 71 71 71 71
38 40 41 42 43 45 46 46 45 45 46 47 48 49 50 52 53 54 56 57 59 60 61 62 62 63 64 66 68 70 70 71 72 71 69 69 68 66 66 67 68 68 68
46 47 48 48 49 50 51 52 52 52 53 54 55 56 58 59 60 60 61 61 63 63 64 65 65 66 66 66 66 64 63 62 61 61 62 63 64 65 64 63 62 60 58
53 54 56 56 56 57 57 57 57 57 58 58 58 58 58 58 59 59 59 59 59 59 59 59 59 60 60 59 59 58 59 60 61 63 63 62 61 59 56 55 53 51 49

GFSGL_500_spd_069.txt.gz
Wind_Speed
20 20 20 19 18 16 15 13 10 11 10 11 12 13 13 15 17 18 18 20 19 19 21 24 25 26 26 27 30 34 35 35 34 35 35 38 40 42 43 43 43 43 44
21 22 22 22 22 21 18 19 16 15 15 14 14 15 17 18 19 19 20 21 22 24 25 26 25 30 29 30 32 35 36 38 41 41 37 36 39 41 42 43 43 44 47
19 22 24 25 25 24 22 19 18 16 17 19 18 19 19 21 22 21 21 21 22 24 26 27 29 34 31 32 35 37 38 39 42 45 43 40 41 42 45 46 46 48 48
24 27 27 28 27 26 25 24 24 23 22 21 22 24 24 26 25 25 26 27 27 30 32 32 33 35 34 36 39 40 40 44 44 49 50 47 47 46 44 43 45 47 48
27 22 24 30 29 30 29 28 28 28 29 29 29 29 29 30 29 30 32 32 32 33 35 35 36 37 37 38 41 41 43 46 48 50 50 49 48 49 48 46 48 48 47
30 30 29 29 30 32 34 34 35 34 34 35 32 33 36 36 35 36 37 37 39 39 39 38 39 42 42 41 43 44 47 50 52 50 50 51 48 48 49 47 50 51 49
34 35 34 35 37 37 37 39 40 41 39 38 38 37 37 38 41 42 44 45 45 45 45 45 44 44 44 46 48 50 53 55 56 55 55 53 52 51 49 51 47 47 49
39 38 39 41 41 42 43 43 43 43 44 43 42 42 42 42 42 45 46 49 51 50 51 50 52 52 51 50 52 55 56 58 60 62 60 59 58 55 55 53 53 53 56
42 44 40 39 41 45 48 47 49 49 50 50 50 50 50 49 49 52 54 55 56 56 55 55 57 56 57 59 59 60 61 61 63 66 67 66 65 64 62 61 63 64 63
39 41 41 42 44 43 44 49 53 52 50 51 53 55 56 57 58 57 58 59 61 63 64 65 62 63 61 62 62 65 66 67 70 70 71 73 74 72 70 69 70 69 71
45 46 46 48 48 48 48 48 51 52 56 53 55 54 56 59 61 61 63 64 65 67 70 69 68 68 68 70 69 71 72 74 73 73 75 74 72 74 79 74 76 77 76
45 46 48 49 50 51 50 49 51 52 55 57 61 63 62 60 61 63 65 65 68 72 75 78 79 75 73 73 75 74 81 67 83 79 84 85 74 87 73 87 91 80 82
46 48 50 51 53 54 55 54 53 53 53 54 57 62 65 66 67 68 69 70 70 70 73 76 80 76 82 81 81 83 80 86 80 74 81 81 94 82 87 88 86 85 93
48 49 50 50 51 53 54 54 56 57 59 60 61 62 64 66 69 71 73 73 73 72 73 73 77 80 79 78 74 87 82 92 85 84 84 82 75 85 80 83 84 76 72
47 47 47 48 50 52 54 57 59 62 64 66 67 67 67 68 70 71 71 73 73 71 68 67 67 70 75 77 76 78 65 72 85 86 79 76 77 81 88 84 82 81 80
46 48 49 52 54 56 58 60 62 65 67 71 74 76 75 74 74 75 75 74 74 70 64 70 65 68 66 71 73 80 78 79 81 78 76 75 76 78 82 77 78 74 68
47 50 53 56 57 59 62 64 68 72 73 74 74 74 73 72 67 64 66 67 68 69 68 68 69 67 71 71 70 76 75 76 79 72 74 76 80 79 70 67 61 60 62
52 55 58 61 64 66 67 64 58 55 52 52 53 55 49 48 47 46 49 53 58 61 64 71 74 79 72 71 76 77 75 75 65 65 66 62 59 57 57 60 62 64 65
57 58 59 60 58 55 51 50 49 47 48 50 50 48 51 53 52 51 49 45 42 40 39 40 41 45 49 51 50 50 52 50 49 52 55 57 60 61 62 64 67 69 70
50 51 52 52 48 48 48 48 48 48 49 51 54 53 52 52 49 49 51 51 50 49 48 46 45 44 46 48 50 51 52 54 56 59 61 63 65 66 67 68 69 71 73
45 45 46 48 48 49 50 51 51 52 54 54 53 51 51 51 52 49 51 52 51 51 51 51 52 52 53 55 57 58 59 61 63 65 66 66 66 67 69 71 72 73 75
48 49 49 50 51 51 53 54 52 51 50 48 48 48 48 49 50 50 49 49 50 50 51 52 53 54 55 56 58 59 60 62 64 65 66 68 69 70 72 73 73 73 75
46 46 46 46 46 47 47 46 46 47 48 49 49 49 49 49 50 51 52 53 54 55 56 57 58 59 61 62 63 64 65 66 67 67 69 69 70 70 70 69 68 67 67
48 49 48 48 49 49 50 51 52 53 54 55 56 57 57 58 59 59 60 60 61 62 63 64 65 65 66 66 67 68 69 68 68 68 68 66 65 65 64 63 63 64 65
51 52 52 52 54 55 56 58 60 61 62 62 62 62 62 63 64 64 64 65 65 66 66 66 66 65 65 65 65 65 65 63 63 62 61 60 61 61 62 63 63 63 62
54 56 57 59 60 61 62 63 64 64 64 63 63 63 62 62 62 61 61 61 61 60 60 60 60 60 59 59 58 58 58 58 59 59 60 61 63 64 64 63 61 57 54

GFSGL_500_spd_072.txt.gz
Wind_Speed
14 14 15 15 17 18 18 18 15 13 12 12 12 11 11 13 15 16 17 19 18 21 23 25 24 27 30 33 31 31 32 33 34 30 35 37 40 41 41 44 45 44 41
11 13 16 18 19 19 19 18 15 15 16 16 15 16 17 18 17 17 19 21 22 24 25 24 25 30 28 31 33 34 33 34 37 36 37 38 40 41 41 41 40 40 41
18 19 20 21 22 21 20 19 17 15 16 17 19 21 22 22 20 20 21 23 24 25 26 26 28 30 27 29 32 33 35 37 41 44 40 38 38 39 41 41 40 44 47
19 18 23 25 24 24 23 22 21 20 20 21 22 21 23 24 24 25 27 28 29 28 29 28 31 33 34 37 39 39 39 42 44 48 47 44 43 41 43 43 45 46 49
23 22 22 19 22 28 27 26 26 26 26 26 26 27 28 28 28 29 30 31 32 35 35 36 36 36 36 38 40 39 41 43 45 47 48 47 47 47 48 47 49 48 49
29 24 23 25 26 25 26 30 32 32 33 33 31 32 35 35 35 36 37 38 39 40 39 40 42 43 42 41 42 45 47 49 49 50 50 53 52 53 54 55 53 55 52
31 29 27 28 28 29 30 32 34 36 37 38 38 39 38 35 38 41 44 45 44 44 45 46 46 48 49 49 49 50 50 52 54 54 56 56 58 59 60 60 61 59 56
36 37 35 33 34 33 35 38 40 41 41 42 43 44 46 47 46 46 46 46 49 49 51 52 53 53 54 56 57 57 57 57 59 60 63 64 65 64 64 64 66 67 65
41 45 45 38 38 38 37 39 41 43 45 47 48 51 52 53 52 52 53 53 54 54 56 57 59 59 60 60 64 65 63 65 63 63 67 70 70 70 71 71 71 73 73
49 46 47 49 47 46 43 41 41 40 45 49 53 55 54 55 57 58 59 58 60 62 63 65 66 66 67 69 67 67 67 69 70 70 69 71 75 77 77 77 77 79 75
51 52 51 48 47 42 42 42 46 47 48 49 52 55 57 59 60 61 57 56 55 58 64 69 71 70 69 72 73 73 73 75 72 75 73 74 83 77 84 74 88 84 90
38 37 37 39 41 43 45 44 45 46 47 48 49 51 54 57 60 62 61 60 58 58 60 62 64 69 72 73 76 77 76 74 74 80 82 86 84 96 80 85 87 90 81
31 33 35 37 39 42 44 45 46 46 46 45 46 47 49 51 56 61 63 65 66 65 64 66 68 71 73 73 73 74 75 76 77 80 77 92 81 84 86 88 76 78 82
32 35 37 40 43 44 46 47 47 48 49 51 52 54 56 58 60 61 62 65 68 70 70 70 71 73 75 76 78 80 79 79 78 78 87 86 86 80 83 84 83 79 78
44 46 48 47 47 49 49 49 50 52 53 54 56 58 59 62 64 68 70 72 73 74 74 75 76 78 78 78 78 79 79 77 79 80 84 84 81 80 77 76 74 78 75
46 46 47 45 45 46 47 49 51 52 54 56 59 62 65 68 71 72 74 76 77 79 78 75 70 68 68 70 72 73 73 73 77 72 78 79 78 78 80 78 74 72 72
37 38 39 41 43 45 48 50 53 56 59 62 64 67 69 69 66 62 60 58 58 57 58 58 58 57 57 56 61 67 66 67 72 74 74 76 80 75 73 77 74 71 71
40 42 44 47 49 52 53 55 58 60 61 62 61 57 54 53 52 53 53 55 56 56 55 53 54 55 53 51 49 47 49 54 55 58 63 67 67 65 66 65 62 62 61
46 47 49 52 53 55 56 56 56 55 54 53 49 51 53 54 54 56 57 59 59 56 58 56 53 49 52 51 50 49 50 51 51 50 51 52 53 53 55 59 61 63 65
51 52 53 53 53 54 53 53 52 51 52 52 55 56 56 58 59 60 60 57 56 56 56 56 56 56 51 51 51 51 52 53 53 54 55 57 58 59 60 62 64 65 67
52 52 51 51 51 52 53 53 54 55 53 54 57 58 59 60 58 54 53 52 51 50 51 52 53 53 54 54 53 53 53 54 55 56 57 58 60 61 63 65 66 69 70
52 51 52 53 54 53 52 53 53 53 52 53 53 54 54 53 54 54 54 54 55 56 57 58 59 59 60 61 61 61 61 62 62 63 64 64 66 66 68 69 71 72 73
52 52 53 53 53 53 54 55 55 55 56 55 56 56 57 57 58 59 61 62 64 65 65 65 65 66 66 67 67 67 66 66 65 65 65 66 67 68 68 68 68 68 67
51 52 53 54 55 56 57 58 57 58 59 59 60 61 62 63 64 65 66 67 67 69 69 69 69 69 69 69 69 69 69 67 66 65 64 62 62 62 62 62 61 61 61
51 53 54 55 56 58 59 60 61 62 63 64 64 65 66 67 67 68 67 67 68 67 67 66 65 65 64 64 63 62 62 61 60 59 59 59 59 59 59 59 60 61 62
53 55 57 58 61 62 62 63 64 65 65 66 66 67 67 67 66 66 65 64 63 62 61 60 59 58 56 55 54 53 53 53 54 55 56 59 60 62 62 63 63 62 60

GFSGL_500_spd_075.txt.gz
Wind_Speed
10 10 11 11 12 12 12 11 11 10 9 8 8 7 9 11 12 14 19 25 29 28 28 30 28 26 26 24 25 25 26 29 27 23 31 32 36 36 35 37 39 40 41
15 15 14 15 15 14 13 13 12 10 7 8 10 11 11 12 13 15 16 17 19 21 21 23 23 26 25 27 29 29 31 30 35 29 34 35 39 39 40 41 42 42 43
22 21 20 19 17 17 16 16 15 14 11 10 11 12 14 15 16 18 19 20 21 23 24 25 26 28 28 29 31 31 32 35 39 39 32 37 38 40 41 42 41 44 43
25 22 19 20 19 19 20 21 20 19 18 17 17 18 18 19 20 22 24 25 26 27 28 28 29 30 31 34 36 36 37 39 41 45 45 40 44 43 48 44 47 48 49
27 23 23 21 19 17 18 18 20 23 23 23 23 24 25 25 27 28 28 29 30 31 31 32 32 33 35 37 40 39 41 42 45 48 50 49 47 46 47 48 51 48 50
27 27 29 26 21 21 21 20 20 21 23 24 26 27 28 31 28 31 33 35 38 39 39 39 40 41 42 44 46 46 48 49 50 51 51 51 51 50 51 53 55 54 54
27 37 29 27 24 22 22 22 23 24 25 27 29 30 31 32 32 34 36 38 39 38 41 45 47 50 50 51 51 53 54 56 59 58 56 56 56 57 58 57 57 57 59
30 32 32 31 29 27 26 26 27 28 30 31 32 34 34 34 35 36 39 42 45 46 49 51 52 51 52 53 54 55 57 59 62 63 66 66 66 65 64 61 64 65 66
43 41 39 36 36 35 35 37 34 33 36 37 38 40 40 39 41 43 46 48 50 52 53 54 55 56 59 59 59 61 62 65 67 66 66 68 69 68 68 72 75 74 77
50 46 46 43 43 42 39 40 44 42 42 45 45 45 44 45 48 50 52 53 55 57 59 62 63 64 63 62 63 65 67 69 72 74 75 72 75 73 75 73 74 76 70
54 58 52 52 53 54 51 47 50 50 51 50 49 48 48 50 51 51 53 55 55 55 56 57 60 62 63 63 64 65 67 69 72 74 75 75 75 80 75 76 75 78 78
56 59 58 58 55 48 43 44 46 42 43 45 47 50 52 53 54 55 55 55 56 57 58 59 61 63 64 65 65 66 68 71 73 75 77 79 79 79 79 84 84 83 83
34 33 28 29 30 33 33 34 36 37 39 42 45 47 49 50 52 52 53 54 56 59 62 64 65 66 68 70 72 73 74 74 74 76 78 79 81 83 84 84 85 86 87
28 29 31 29 30 31 32 34 38 40 43 45 47 48 49 51 52 53 55 56 56 58 60 62 64 67 69 72 75 78 80 81 82 84 84 85 86 88 88 88 88 88 89
32 33 35 34 38 41 44 47 46 45 45 47 47 48 50 52 52 54 56 58 60 62 65 64 63 64 66 67 68 68 65 68 75 80 84 87 88 89 90 88 84 83 85
35 36 38 39 40 41 42 43 43 43 44 46 48 50 52 54 56 58 59 61 62 60 58 55 54 53 53 53 54 52 52 54 55 57 63 69 71 74 72 74 75 72 74
32 35 35 36 37 38 40 41 43 45 47 49 51 52 54 55 56 57 59 58 55 54 53 53 55 56 56 59 57 55 55 54 57 57 53 51 51 52 58 63 63 63 63
33 34 37 39 40 42 43 45 47 48 50 51 52 54 54 55 54 54 53 53 53 54 54 55 57 61 61 58 55 56 56 57 56 57 55 55 53 52 53 54 56 57 57
39 40 42 43 45 47 48 50 51 52 53 55 56 56 56 55 55 56 56 57 58 59 59 59 60 58 55 56 55 54 54 55 56 56 56 58 56 56 57 57 58 59 60
44 47 49 51 53 54 54 54 54 56 56 57 56 56 55 56 57 57 57 56 56 57 58 58 57 57 57 57 57 57 57 58 58 59 60 60 60 62 62 63 63 63 63
51 54 56 56 56 55 55 56 56 56 57 57 57 57 56 55 56 56 58 58 57 58 59 60 60 60 61 62 63 64 66 66 67 67 67 67 68 68 68 67 67 67 67
54 54 53 54 55 55 56 56 57 57 57 57 57 57 58 59 60 60 59 60 61 62 62 63 64 65 66 67 69 70 70 71 71 71 71 71 70 69 68 67 67 66 66
54 54 55 55 56 57 57 58 58 57 57 57 58 59 60 61 62 62 63 64 65 66 66 67 68 69 70 71 71 71 72 71 71 70 69 68 66 64 63 61 60 59 59
53 53 54 55 56 56 55 55 56 57 57 58 59 61 62 63 64 65 66 66 67 68 70 70 71 71 71 70 69 67 66 65 64 63 62 60 59 57 57 56 56 57 57
51 53 54 54 55 55 55 56 58 59 60 60 61 63 63 65 66 67 68 69 69 70 70 69 69 68 67 66 64 62 60 58 55 53 53 52 52 53 54 56 57 59 59
51 53 54 56 58 59 60 61 62 63 64 64 65 66 67 67 68 69 69 69 68 68 67 65 62 59 56 54 51 49 47 47 47 48 49 51 52 54 55 56 56 56 56

GFSGL_500_spd_078.txt.gz
Wind_Speed
15 15 17 18 18 17 15 12 11 8 4 2 4 4 4 8 12 12 16 20 21 26 30 29 27 28 31 29 29 28 27 30 35 35 36 35 32 30 30 32 32 32 31
17 17 18 19 21 18 17 15 14 12 9 7 8 8 8 9 11 12 12 12 12 13 16 16 18 21 23 26 25 26 25 27 32 30 30 32 36 35 36 37 35 34 36
21 22 21 22 22 20 18 18 18 16 14 12 11 11 13 16 16 16 16 16 16 16 16 17 19 23 23 26 28 29 30 32 35 35 29 36 36 37 38 39 41 40 43
27 24 23 24 24 23 21 20 20 19 18 17 16 17 17 17 17 17 18 18 19 20 21 23 24 25 26 28 30 30 32 34 36 38 35 34 38 38 43 44 45 47 50
34 28 26 26 25 23 22 21 19 17 20 21 20 21 21 20 20 22 23 23 24 25 27 28 30 31 33 34 36 36 39 40 41 43 42 40 40 42 43 46 49 51 52
38 32 29 29 27 26 24 21 19 18 18 18 19 21 22 21 23 25 27 28 29 31 31 33 36 37 39 40 42 43 45 48 48 50 51 52 50 49 50 52 53 54 55
40 35 32 33 34 34 30 24 24 22 21 21 21 21 22 23 24 26 28 31 33 35 36 37 38 39 40 42 44 46 49 53 54 56 56 56 57 56 55 53 58 62 62
38 36 35 30 38 31 27 26 26 26 25 24 24 24 25 28 28 29 30 33 35 36 37 39 40 42 45 47 49 51 53 54 56 58 60 64 64 64 65 66 68 69 68
41 40 38 37 45 28 29 30 32 31 30 30 31 33 33 33 36 37 37 38 39 39 41 44 46 48 49 50 52 53 56 58 61 62 64 66 67 68 67 71 70 76 73
46 45 40 54 46 34 37 38 37 38 39 35 37 41 44 43 42 44 46 47 47 48 50 52 54 55 56 55 56 57 57 59 61 64 65 66 69 70 70 71 72 76 82
58 67 62 48 47 49 48 50 40 45 46 48 47 46 46 49 52 52 53 53 53 54 56 58 59 60 61 62 61 60 62 63 64 66 68 70 72 73 73 74 76 78 81
62 58 56 58 57 56 59 48 50 52 55 58 56 49 52 54 52 52 54 56 56 57 59 61 61 61 62 63 65 65 67 68 68 70 71 73 75 77 79 80 83 83 84
40 42 47 50 50 51 47 41 45 44 46 45 42 42 44 44 46 47 49 52 54 56 57 59 61 63 65 66 68 70 71 72 73 76 78 80 81 82 83 84 86 88 90
30 29 29 27 26 24 26 30 31 33 35 36 38 41 43 45 48 50 52 53 55 56 57 59 60 62 63 65 67 69 71 72 73 74 76 77 76 74 75 78 82 87 88
20 20 21 22 25 28 28 29 31 34 38 42 45 48 50 52 53 53 53 53 54 56 58 60 61 62 64 65 66 66 67 67 67 66 67 66 65 64 63 64 59 61 63
23 24 26 28 29 32 33 35 36 38 40 43 46 48 50 50 50 51 53 54 56 57 58 60 61 62 62 61 61 61 61 62 61 62 64 64 61 59 60 59 60 59 61
30 30 31 33 35 35 36 38 39 40 41 43 46 49 51 52 53 55 55 56 57 59 60 62 61 61 61 60 61 61 61 62 63 63 59 60 60 60 58 58 60 61 62
33 35 37 37 38 39 41 42 44 45 46 48 49 51 53 54 56 57 58 59 60 61 61 61 61 61 62 62 62 62 62 63 62 60 60 59 60 59 60 59 60 60 61
35 37 38 40 42 44 45 47 48 49 50 52 54 57 58 59 60 60 61 62 62 62 62 61 62 62 62 63 63 62 61 62 62 63 63 63 63 63 64 65 66 67 68
43 44 45 46 47 48 49 50 51 54 57 59 60 61 61 61 62 62 64 64 64 64 63 63 63 64 64 64 64 64 64 64 64 64 65 66 67 68 69 70 72 72 73
48 49 50 51 52 54 56 58 60 60 61 62 62 62 63 64 64 65 64 65 65 65 66 67 68 67 67 67 67 67 67 67 67 68 70 71 72 74 74 75 75 75 74
53 54 54 55 58 57 58 59 60 60 61 61 61 62 64 65 66 66 66 66 66 66 67 67 67 68 68 68 68 69 69 70 72 73 73 74 74 74 74 73 71 71 70
54 56 57 58 59 60 61 62 63 63 62 61 62 62 63 63 63 64 64 64 65 65 65 66 67 67 68 69 70 71 72 72 72 72 72 71 70 69 67 66 64 62 60
56 57 58 59 59 60 60 60 60 60 61 61 61 61 61 62 62 63 64 64 65 66 67 68 69 70 71 71 72 72 71 71 69 67 64 62 59 57 55 53 53 53 53
55 56 57 58 58 58 59 59 60 61 61 62 63 63 64 65 66 67 68 68 69 70 71 71 71 71 71 70 69 68 65 61 58 54 51 49 48 47 47 49 50 52 54
54 55 55 56 57 59 60 62 63 64 65 66 67 67 69 70 70 71 72 72 71 71 70 70 69 68 67 63 58 53 49 46 44 42 42 42 43 45 47 48 49 50 50

GFSGL_500_spd_081.txt.gz
Wind_Speed
20 17 19 22 21 20 18 17 15 13 8 7 6 7 14 17 18 18 11 19 23 24 24 25 26 28 29 27 28 31 26 23 24 23 25 30 33 35 33 35 35 32 29
24 19 17 19 22 22 21 19 17 15 12 8 10 11 10 13 16 16 19 13 14 16 17 18 20 20 19 19 20 20 21 24 26 25 26 27 31 34 34 35 36 36 36
25 22 21 20 21 23 23 21 20 18 16 13 10 12 15 15 15 15 16 16 16 16 16 15 19 18 19 21 21 22 25 28 30 30 24 29 31 33 36 36 35 37 38
26 24 24 24 23 24 24 24 23 21 20 18 16 14 14 12 13 14 15 16 17 18 18 20 22 23 23 25 24 26 28 28 30 32 31 31 33 33 38 38 39 41 42
33 30 31 28 25 27 26 26 26 25 24 22 21 19 17 16 17 17 18 19 20 22 24 24 25 26 27 28 29 30 33 34 34 36 39 39 39 39 42 44 45 46 47
38 39 35 33 30 29 29 27 27 27 25 24 23 22 21 20 22 22 22 24 27 28 28 28 29 31 31 31 33 34 36 39 41 42 43 45 45 45 44 46 47 49 50
41 42 40 36 34 32 31 31 30 29 28 28 24 23 23 22 23 23 25 27 28 29 30 31 33 34 35 36 37 38 39 41 43 44 46 48 51 49 55 54 51 58 60
44 43 42 40 38 35 34 32 39 37 35 33 30 26 25 24 25 25 26 27 28 30 32 33 35 37 38 39 41 43 44 46 48 50 52 55 57 57 60 62 63 64 61
46 47 45 41 37 38 39 29 42 41 35 33 32 31 30 30 30 31 30 32 34 35 36 38 39 40 42 44 47 49 50 52 53 55 58 59 60 61 63 65 68 69 71
49 50 52 52 42 40 39 38 40 35 31 34 37 36 35 36 37 39 39 40 43 45 46 45 45 49 50 52 53 54 56 58 61 62 64 66 67 67 68 69 69 71 73
45 47 50 46 44 44 44 40 50 47 39 39 41 43 45 45 45 44 46 48 48 48 50 52 55 56 56 57 58 59 60 62 63 65 65 67 69 70 72 73 74 76 77
55 55 52 52 48 48 56 58 53 68 42 50 50 55 52 48 50 51 56 55 53 54 56 56 57 57 58 60 60 60 61 63 65 67 69 70 72 73 74 76 77 79 81
36 36 40 53 64 67 67 67 63 64 59 60 62 66 63 53 55 56 52 51 51 51 51 52 53 55 58 60 62 64 65 68 69 70 71 72 74 75 77 78 80 82 83
32 34 35 36 35 37 38 44 39 42 40 41 46 50 48 45 38 38 41 42 45 49 52 55 58 61 63 65 67 67 67 68 69 70 71 72 73 74 75 77 78 79 77
34 34 36 37 35 33 29 23 23 24 27 28 30 31 33 35 38 42 46 50 52 54 57 58 60 61 62 63 63 65 66 68 69 70 70 71 72 73 74 73 72 73 73
28 28 28 29 27 25 24 25 27 30 32 33 35 37 39 42 44 46 46 48 50 53 55 56 58 59 61 62 64 65 67 68 69 69 70 71 72 73 73 72 72 71 69
28 29 28 28 30 32 31 33 36 39 40 41 42 44 45 47 49 51 52 53 54 55 57 58 60 62 63 65 66 67 69 70 70 71 72 71 71 71 70 69 68 69 69
31 30 29 32 35 35 37 40 42 44 45 47 48 50 51 52 53 54 55 57 57 59 61 62 64 66 67 68 69 70 72 72 71 71 71 71 71 72 72 71 70 70 70
33 34 34 35 37 40 42 43 45 47 49 51 52 53 54 55 56 56 58 61 63 65 67 67 68 69 69 71 72 72 73 72 72 73 73 74 74 74 74 73 73 73 73
37 38 40 42 43 45 47 50 52 53 54 56 57 58 58 60 62 64 65 66 67 69 69 70 71 72 72 73 72 73 73 73 74 74 74 74 75 75 75 74 74 75 76
45 47 47 49 50 51 53 55 56 57 59 61 62 63 65 66 67 67 68 69 70 72 72 72 73 74 74 74 72 71 72 73 73 73 73 73 73 74 75 76 77 77 78
50 51 53 54 55 56 58 59 61 62 63 64 66 66 67 68 68 68 69 69 70 71 71 72 72 72 71 70 69 69 69 70 71 73 74 76 77 77 78 77 77 76 74
55 56 57 58 59 61 62 63 64 65 66 67 67 67 66 66 66 66 67 68 69 70 70 69 69 69 69 69 69 71 72 73 75 77 78 78 78 77 75 73 71 67 63
57 57 59 60 61 62 62 63 63 63 63 64 64 64 64 65 66 67 68 69 70 70 71 71 71 72 73 73 74 75 76 77 77 77 76 75 73 68 63 58 54 50 48
54 54 55 57 58 59 60 61 62 63 64 65 65 65 66 68 69 70 72 72 73 73 74 75 76 76 77 76 76 76 75 74 74 72 68 62 56 50 46 43 41 42 44
55 56 56 57 58 58 59 60 61 63 64 66 67 69 70 71 72 74 75 76 77 77 77 77 76 76 75 74 73 71 69 66 61 54 49 44 40 38 37 37 39 41 43

GFSGL_500_spd_087.txt.gz
Wind_Speed
29 29 24 18 14 19 24 21 21 21 20 19 16 14 14 13 13 24 28 29 28 31 25 27 27 28 28 27 27 26 24 25 26 25 26 25 25 24 26 27 26 25 25
31 30 26 21 16 18 23 24 22 21 20 19 16 14 11 10 12 18 20 21 22 26 23 21 20 23 23 27 28 27 26 29 30 28 27 28 24 25 26 27 26 24 24
31 31 29 26 22 18 18 23 23 20 19 18 17 13 11 8 9 11 15 19 21 20 23 25 24 29 29 27 27 28 30 31 29 24 22 25 25 27 28 26 25 26 27
28 31 31 26 23 21 21 20 20 21 19 18 17 15 13 12 12 12 16 22 20 19 20 26 27 29 30 29 30 29 27 27 27 24 25 28 26 29 28 29 30 31 31
30 33 33 30 27 25 25 22 20 19 19 17 17 17 17 16 15 17 18 23 27 27 25 26 24 23 23 26 26 27 29 29 29 28 28 29 30 31 33 35 36 37 39
35 35 35 33 32 31 28 28 26 22 20 20 19 19 20 21 21 20 20 23 25 27 26 27 28 27 27 28 27 28 30 31 32 33 33 33 33 34 36 38 40 41 42
39 39 37 36 36 36 34 31 31 28 25 23 22 23 24 26 27 28 28 28 28 28 29 29 29 29 30 30 32 33 35 36 37 37 37 37 37 36 37 40 42 45 47
42 42 45 44 45 46 40 37 35 33 31 28 27 27 28 29 32 34 34 34 35 35 35 35 35 35 35 35 36 37 37 37 36 36 37 39 40 41 43 45 48 50 51
47 42 46 40 46 49 46 43 38 37 37 36 32 33 30 31 37 36 38 38 39 39 39 39 39 39 39 39 38 38 37 38 37 39 41 43 45 47 49 52 53 54 56
45 39 48 44 48 46 48 47 44 42 41 41 39 35 38 39 33 38 42 42 44 43 43 43 43 43 42 42 41 42 44 45 45 46 47 49 51 53 55 55 57 59 60
50 46 47 43 45 50 54 49 49 47 49 46 43 39 36 33 41 47 50 45 47 45 48 48 48 49 48 48 49 50 49 51 51 52 54 56 58 59 60 59 58 59 63
49 50 50 50 51 51 53 47 51 53 57 54 53 47 38 39 37 53 55 48 51 54 55 56 54 55 55 55 55 56 58 62 60 58 58 59 57 56 57 60 63 65 67
53 60 61 60 54 49 47 66 59 65 69 74 67 61 62 46 50 51 50 57 63 60 61 62 62 60 62 64 66 65 62 59 58 55 53 54 57 60 63 64 65 66 68
21 31 41 46 51 52 54 63 59 63 57 53 46 56 61 56 58 55 59 62 70 69 70 70 61 58 55 53 51 51 47 44 46 51 56 58 61 63 66 67 69 70 72
16 18 21 22 21 22 23 28 31 35 36 35 40 45 45 43 46 49 50 49 54 49 48 49 47 45 43 38 41 46 49 53 56 58 60 63 65 67 69 71 73 75 76
18 18 18 18 17 20 23 26 28 28 28 29 32 34 35 36 39 40 37 37 37 36 36 36 36 38 42 47 51 53 56 59 62 64 67 68 70 72 74 76 78 79 81
21 22 22 23 21 20 20 22 24 24 25 25 27 27 29 30 31 32 34 36 38 41 43 44 46 48 52 56 58 60 63 66 68 70 72 73 74 76 78 80 82 83 84
22 21 21 21 23 24 24 24 26 27 29 30 31 33 35 37 38 40 42 44 45 47 49 52 55 57 59 61 64 67 69 70 71 73 75 76 78 81 83 84 85 86 87
28 29 30 32 31 33 36 36 37 37 37 38 40 41 42 44 46 48 49 50 52 55 57 58 60 62 64 66 68 69 71 73 74 76 79 81 83 85 85 85 85 85 84
37 39 40 41 41 41 43 44 45 44 44 46 47 49 49 50 52 53 54 55 57 59 61 64 65 67 68 70 72 73 76 78 80 81 83 84 84 84 84 83 82 81 80
37 40 43 44 45 47 48 49 49 49 50 51 52 54 55 56 58 59 60 61 63 64 66 68 69 71 73 74 76 78 79 80 80 81 82 81 81 81 80 81 80 80 80
44 45 45 46 47 48 49 50 51 52 54 55 56 56 57 59 61 63 64 65 67 68 70 72 74 75 75 76 77 77 77 77 79 80 80 80 80 81 82 83 83 84 84
53 54 54 53 54 55 55 57 58 59 59 59 62 63 64 65 66 67 68 68 70 71 71 72 74 74 74 75 77 77 78 78 79 80 81 82 83 84 85 85 85 85 83
52 52 54 55 56 57 59 60 61 61 61 62 63 63 64 65 65 66 67 68 69 70 70 72 73 74 74 75 76 77 78 80 81 83 84 85 86 86 85 81 78 74 69
58 58 59 59 60 60 60 60 61 61 61 61 62 63 63 64 64 66 67 68 68 69 70 71 73 74 76 78 79 80 82 83 84 84 83 80 77 73 69 64 60 56 52
56 57 57 58 59 60 61 61 62 62 63 63 64 64 65 65 66 67 69 70 71 72 73 74 75 76 78 79 79 78 77 75 72 69 66 62 58 54 51 48 45 43 39

GFSGL_500_spd_090.txt.gz
Wind_Speed
39 37 37 37 30 26 24 22 21 23 19 16 18 18 18 17 19 17 23 29 29 28 35 32 28 29 31 30 31 29 24 25 28 28 28 25 25 28 28 28 27 28 28
38 38 39 36 29 30 22 20 22 24 19 18 18 17 17 16 12 11 23 27 28 32 30 30 30 29 31 29 28 28 29 29 30 29 29 30 31 31 30 28 28 29 29
42 39 34 31 32 30 23 18 21 22 22 20 20 17 16 14 11 8 13 28 27 27 29 35 26 24 25 27 29 28 31 32 34 30 30 31 32 31 30 28 27 28 30
20 27 34 32 32 32 25 21 19 19 22 20 19 17 15 14 11 8 10 20 22 24 25 28 28 29 28 31 33 33 34 32 32 30 31 31 31 31 29 28 31 32 33
25 30 34 33 33 32 30 25 22 19 20 20 18 16 15 15 13 9 11 14 19 24 21 23 25 29 31 28 30 32 33 34 33 34 30 31 32 31 31 30 32 35 36
29 32 28 32 35 35 30 27 26 24 22 21 19 17 17 16 15 14 13 15 19 25 25 24 24 29 34 33 30 32 33 32 32 32 32 32 32 33 35 36 37 38 39
34 34 35 32 36 38 34 31 30 29 27 24 24 21 20 20 20 20 20 20 20 24 27 28 26 29 31 31 33 33 34 34 35 36 35 36 37 38 39 41 42 42 44
37 37 38 38 36 37 36 34 34 34 32 29 28 26 25 24 25 25 24 25 27 29 30 31 31 32 33 34 36 36 38 38 39 39 40 41 42 43 43 43 46 46 48
40 40 40 40 40 38 37 38 38 38 38 39 34 33 31 30 29 29 28 30 33 33 34 36 38 38 38 39 40 41 41 46 44 44 45 45 45 46 47 47 49 51 52
42 44 44 46 47 35 44 43 45 48 43 45 42 39 38 38 37 36 37 35 37 40 38 40 41 43 44 45 47 47 48 49 49 48 49 49 50 52 53 53 54 56 58
42 49 49 51 51 49 45 50 42 46 43 46 47 44 42 43 43 43 41 42 41 39 40 45 45 47 50 51 52 54 54 54 54 54 54 55 56 58 58 60 60 62 63
44 45 53 58 53 45 53 44 43 44 51 55 48 50 48 54 45 48 44 45 43 47 46 48 50 48 52 54 56 58 60 61 62 63 63 63 61 62 65 70 71 65 61
31 41 45 47 53 56 54 52 50 52 63 47 56 56 53 52 56 58 54 50 52 50 54 55 60 57 60 62 65 65 67 70 72 69 65 64 63 64 61 61 59 57 59
19 23 31 36 45 54 55 60 57 58 60 52 60 61 59 64 73 76 65 65 60 63 56 61 65 61 62 67 75 74 71 69 67 67 65 65 57 52 52 53 57 61 65
20 18 20 19 24 30 35 40 45 51 46 46 55 60 57 55 59 55 62 65 61 63 64 64 62 58 57 60 60 55 54 55 52 49 47 47 50 55 58 62 65 67 70
15 16 16 18 19 23 26 28 32 34 34 34 35 39 42 45 47 47 48 46 45 45 46 45 44 44 44 44 43 43 44 46 48 50 52 56 59 62 65 68 71 74 76
23 23 22 23 23 24 23 26 30 31 30 30 31 32 33 34 35 36 38 38 39 38 39 40 41 42 42 44 46 48 51 53 55 58 61 63 65 68 71 74 77 79 81
24 24 25 25 25 25 26 28 29 30 32 32 32 31 32 34 36 37 39 39 39 39 40 42 44 48 51 52 54 56 59 61 63 65 67 70 72 75 77 80 82 83 85
27 27 27 29 29 30 32 32 33 34 35 36 36 36 37 38 39 40 41 43 45 47 50 51 52 55 57 59 61 63 65 67 68 69 72 75 77 79 81 82 83 85 86
33 34 35 36 37 38 40 41 41 41 43 43 44 45 46 46 47 48 49 50 52 54 54 55 57 59 61 64 66 67 70 71 73 75 76 77 79 80 81 83 84 85 85
36 36 37 38 39 41 42 43 44 46 47 48 48 50 51 51 51 53 54 56 57 58 60 61 63 64 66 68 69 70 71 72 74 75 77 78 79 81 82 83 84 86 87
48 48 47 48 48 48 48 48 49 49 50 50 51 52 53 54 56 57 57 58 59 61 63 64 66 68 69 70 70 71 72 74 75 77 78 79 81 83 84 85 86 87 88
51 53 54 55 56 56 56 56 57 58 57 57 56 57 58 59 60 61 62 63 64 65 66 67 69 70 70 71 72 72 74 75 77 78 80 81 83 84 85 86 87 88 88
55 55 55 56 56 57 57 57 58 58 59 60 61 61 61 62 63 63 64 65 66 67 68 69 70 70 71 71 73 75 76 77 79 80 81 82 83 83 83 82 81 79 76
57 57 57 58 57 58 59 59 60 60 61 62 63 65 66 66 67 67 67 67 68 69 71 71 71 72 73 74 75 76 76 76 77 77 77 77 75 74 73 70 66 61 59
58 58 59 60 60 60 60 61 62 62 61 61 62 62 63 64 66 67 68 69 69 69 69 70 71 72 73 73 72 71 72 72 71 70 69 67 64 62 61 58 55 53 49

GFSGL_500_spd_093.txt.gz
Wind_Speed
32 45 40 42 40 35 37 33 31 29 29 27 22 24 24 22 21 20 26 20 29 32 32 30 30 32 30 30 33 35 32 28 29 28 27 29 29 30 30 30 32 32 33
35 38 40 40 37 37 36 32 31 30 30 26 26 25 23 22 18 18 21 18 24 30 29 28 32 31 32 32 30 30 27 27 26 22 26 29 31 33 30 29 31 34 39
31 39 40 40 38 36 35 34 30 29 29 28 28 26 22 21 15 15 16 14 25 30 29 33 37 35 31 30 31 32 28 26 24 26 28 31 32 32 33 33 34 38 36
23 36 44 43 41 39 37 33 30 30 31 26 28 25 20 19 14 10 14 10 24 27 30 30 33 33 30 28 28 29 29 29 32 32 33 34 35 34 35 35 36 35 33
20 25 37 47 46 41 39 37 33 34 30 24 27 23 21 17 15 11 11 13 11 25 26 28 30 36 34 28 30 30 29 32 36 37 34 34 35 36 37 37 34 34 36
14 14 23 33 41 42 41 40 38 35 29 23 24 21 21 19 17 14 12 12 11 12 16 23 24 28 32 32 35 34 27 26 33 38 37 38 37 38 37 35 37 38 39
22 20 20 22 30 41 42 38 38 36 31 26 24 23 22 22 21 19 16 15 16 15 17 22 20 23 24 29 34 35 34 35 35 37 36 35 36 38 39 40 40 41 42
29 24 21 22 29 28 36 37 35 37 32 30 29 28 27 25 25 25 23 20 20 21 22 23 25 27 27 30 33 35 36 36 35 38 38 39 40 42 42 43 45 45 47
29 30 26 28 27 30 32 35 38 37 37 34 33 32 32 31 31 30 28 25 25 25 26 27 28 30 32 34 35 37 38 39 40 41 43 45 45 45 47 47 48 49 50
30 32 35 32 29 38 35 39 39 39 36 37 36 36 37 38 38 37 35 32 31 32 31 30 31 35 37 38 40 41 42 43 46 48 49 49 51 50 52 52 53 54 54
33 37 37 38 41 35 41 42 36 42 47 42 41 39 44 46 44 43 42 41 40 39 40 41 38 39 42 44 45 45 46 48 49 51 53 55 56 57 59 60 60 60 61
29 35 40 39 40 44 46 46 46 45 39 43 46 45 41 44 46 46 47 47 47 49 48 47 46 45 46 46 46 51 54 54 53 54 55 61 59 62 65 68 67 66 67
27 28 37 39 41 47 48 50 54 54 59 50 51 46 44 53 48 46 50 51 55 58 55 54 53 53 52 54 56 55 60 59 58 54 59 65 66 63 68 74 73 72 72
29 28 30 31 38 48 51 44 45 49 56 56 51 55 46 49 55 56 62 59 60 61 63 66 56 60 62 63 61 64 67 69 69 66 64 67 76 82 70 70 72 71 70
28 30 29 29 30 33 36 40 41 41 45 53 53 58 59 60 57 63 66 66 64 66 61 65 68 71 73 71 69 67 75 74 74 72 71 69 68 65 65 64 62 61 60
30 29 28 26 26 27 29 30 28 28 31 36 40 43 47 51 53 55 59 63 65 66 65 65 65 68 67 69 72 71 69 64 55 54 54 56 55 54 57 57 57 60 63
27 27 26 25 26 26 27 27 26 25 27 28 31 33 35 38 40 43 46 50 54 57 61 64 63 61 61 59 56 54 50 48 46 48 50 50 52 56 59 62 64 66 69
28 31 32 33 33 33 31 31 32 33 33 34 34 36 37 37 38 39 40 41 42 42 44 44 45 46 47 47 47 47 49 49 50 53 55 57 60 62 63 65 68 71 74
33 32 31 31 33 34 34 35 36 36 37 38 37 36 37 37 38 40 41 41 42 44 44 44 45 45 46 47 48 50 52 55 57 59 60 62 65 66 68 71 74 77 79
34 35 36 37 37 38 39 41 42 42 42 42 42 42 44 45 46 47 47 47 47 48 48 50 51 52 53 54 56 57 59 61 62 64 66 69 71 72 74 76 78 79 81
42 43 44 44 43 43 43 43 44 45 47 48 49 50 50 51 52 52 52 52 52 53 54 54 55 56 56 58 59 61 63 64 66 68 70 71 72 74 75 77 79 81 84
49 50 51 52 52 53 52 53 53 52 52 52 53 53 53 53 53 54 54 55 55 56 57 58 59 60 61 62 63 65 67 68 69 71 72 74 75 76 78 79 80 82 83
51 54 56 57 57 57 57 57 57 58 58 59 59 59 59 59 59 60 60 60 61 61 62 63 64 64 65 65 66 68 69 70 71 72 74 75 76 76 76 78 80 82 84
58 60 61 61 60 61 60 61 61 61 60 61 61 61 61 62 62 62 61 61 62 63 63 64 65 66 67 67 68 68 69 70 71 71 72 73 74 76 78 79 79 79 79
59 58 58 60 60 60 60 61 61 61 61 61 62 62 61 61 61 62 62 62 62 63 63 63 63 64 65 65 66 68 69 70 71 73 74 75 76 76 76 74 73 74 74
57 56 56 56 57 57 57 57 59 60 61 62 62 63 64 64 64 64 64 64 65 65 66 67 68 68 69 69 70 71 71 72 72 72 73 73 72 72 72 71 68 64 59

GFSGL_500_spd_096.txt.gz
Wind_Speed
33 34 40 43 47 48 40 39 34 31 31 31 28 27 24 25 25 26 28 28 30 31 31 33 32 32 35 36 31 28 29 29 31 29 31 33 35 36 35 32 36 32 32
36 35 38 40 50 38 42 37 32 34 34 32 27 25 27 25 25 27 28 27 31 25 30 28 32 31 34 43 33 28 29 31 31 29 29 27 28 28 28 27 28 31 31
31 32 42 31 45 43 42 36 35 34 34 30 26 28 29 28 27 28 25 26 31 21 25 39 27 28 35 31 28 31 30 28 26 25 19 20 21 23 25 28 30 30 32
24 30 31 36 39 44 42 39 40 38 33 30 29 29 29 28 28 28 23 23 27 16 22 30 30 28 32 28 31 26 30 28 28 25 23 23 25 27 30 32 33 33 35
25 19 26 30 33 40 45 45 43 40 35 34 31 26 28 28 28 28 21 22 24 15 20 28 32 29 28 31 32 29 30 28 27 28 30 28 32 33 33 36 37 35 36
27 23 22 28 41 40 55 48 44 42 39 36 30 26 27 27 27 27 23 20 20 14 12 24 24 27 29 29 32 28 27 30 30 30 29 34 37 39 36 36 37 39 38
22 21 9 25 44 50 42 52 46 44 40 36 30 28 25 25 25 25 23 21 16 16 17 13 16 24 29 30 31 32 31 32 34 34 32 33 33 34 36 39 39 40 41
23 22 20 16 18 29 34 46 43 45 40 38 35 33 29 25 24 24 24 22 22 19 18 19 21 20 22 28 27 27 30 27 33 36 34 33 37 36 37 39 40 42 42
20 22 19 16 17 29 30 44 48 44 43 40 38 36 33 29 28 28 28 27 26 25 25 24 25 24 24 26 28 28 31 35 37 40 44 40 40 39 41 42 43 44 46
16 18 19 22 22 23 21 29 34 38 35 39 37 40 38 35 34 34 32 31 31 30 30 29 29 29 29 30 31 33 35 36 39 40 42 43 44 44 45 47 47 49 50
15 21 21 27 28 31 27 30 29 31 35 39 40 39 38 39 39 39 38 38 39 38 37 36 36 35 34 34 35 36 38 40 44 46 47 48 48 51 46 50 53 54 57
17 18 23 27 31 35 38 37 34 33 48 37 39 39 39 42 42 45 42 42 43 45 44 42 43 43 43 43 44 45 45 45 45 46 48 50 52 55 57 57 59 60 60
18 20 21 24 26 33 37 39 40 36 40 42 43 39 42 42 41 43 50 48 44 45 48 44 47 50 50 50 52 53 53 51 49 52 54 55 57 58 61 64 64 62 65
23 23 23 25 26 28 34 39 41 44 49 49 45 46 49 48 50 55 48 51 53 47 52 51 49 50 54 58 56 57 58 59 57 58 58 61 61 64 67 71 77 78 70
26 27 29 30 28 30 32 34 36 40 45 47 49 48 49 53 57 60 60 53 52 52 54 56 60 62 62 63 64 66 66 66 68 69 69 73 73 74 75 81 83 81 75
30 30 30 31 32 34 35 35 38 37 35 35 38 44 50 52 53 56 58 59 56 57 59 57 61 62 67 69 69 68 70 73 76 76 78 77 77 76 78 83 77 70 63
31 32 33 33 34 33 33 34 34 35 33 33 34 37 40 39 42 44 47 49 51 53 55 57 60 62 63 65 67 67 68 69 69 69 70 71 70 66 62 60 58 58 57
27 28 29 33 34 36 36 36 35 35 36 36 36 34 33 35 36 36 37 40 42 44 46 47 49 50 51 53 53 54 55 56 56 57 57 57 57 56 56 56 56 57 59
27 29 29 31 34 37 37 39 39 39 38 38 38 41 40 40 40 41 42 43 43 43 44 45 45 46 47 47 47 48 48 49 50 51 52 53 53 55 56 58 60 62 64
36 36 36 37 37 38 39 40 41 42 44 45 45 45 45 44 45 45 44 45 45 46 47 47 47 47 47 48 49 49 51 53 54 54 55 56 57 58 60 62 64 66 68
42 44 45 46 46 47 47 47 48 49 49 49 50 50 50 50 50 51 52 52 52 52 53 52 52 52 52 52 52 53 54 55 57 58 59 61 62 63 65 66 68 69 71
43 45 46 47 47 48 50 51 53 55 56 57 57 58 57 57 57 56 56 56 56 56 56 56 56 56 57 57 58 58 59 60 61 62 64 65 66 67 68 71 73 74 76
47 49 52 54 56 57 58 59 60 61 61 63 63 64 63 63 63 63 63 63 63 63 63 63 62 62 63 63 64 64 65 66 66 67 68 69 71 72 73 75 76 76 77
56 58 60 61 62 63 64 64 65 67 68 68 68 67 66 66 66 66 66 65 65 65 65 66 66 66 67 67 67 68 68 69 70 71 71 72 72 73 73 73 74 75 76
64 64 64 64 63 63 64 65 64 63 64 65 66 65 65 65 64 64 65 65 65 65 66 66 66 66 66 66 67 67 67 68 69 69 70 70 71 72 72 73 73 73 74
67 65 64 64 64 64 64 64 64 63 62 62 62 61 61 61 62 63 64 64 64 64 65 65 66 66 66 66 67 67 68 68 69 70 70 70 71 71 71 72 71 71 71

GFSGL_500_spd_099.txt.gz
Wind_Speed
35 39 34 36 34 37 35 35 39 46 40 45 28 27 27 26 29 30 28 29 28 27 28 30 32 36 34 36 39 38 39 35 29 27 28 33 32 32 35 40 36 34 33
31 39 31 32 34 35 34 36 42 44 43 30 27 28 30 27 30 29 29 28 27 28 29 33 38 35 37 38 40 41 40 31 27 27 30 32 31 31 32 35 34 33 34
26 37 30 30 28 38 38 43 44 44 41 33 31 31 29 29 32 31 29 27 27 28 31 35 35 35 38 38 38 40 40 38 26 30 31 34 33 31 33 34 33 29 28
25 33 36 33 33 34 39 43 42 41 45 35 33 33 30 31 32 30 29 28 29 30 29 35 26 26 32 34 35 37 41 39 33 33 28 27 27 29 30 28 27 27 28
17 23 26 27 37 34 38 43 35 38 42 37 35 35 31 30 30 28 28 28 27 28 30 25 25 25 31 31 34 36 37 36 32 30 26 26 26 26 24 26 27 28 31
21 17 20 16 23 25 35 41 40 43 46 40 38 37 35 30 26 25 28 28 27 26 27 20 19 28 30 29 30 33 32 32 28 32 31 29 26 30 28 31 34 35 35
21 15 19 16 20 24 32 40 43 46 48 42 40 41 37 29 24 24 26 26 26 25 25 22 20 22 22 27 31 33 35 33 31 28 29 31 31 30 31 36 41 43 38
18 20 20 20 17 24 32 39 34 37 48 42 43 42 38 34 29 23 23 24 25 25 25 24 18 20 18 22 27 26 26 29 34 33 34 33 33 35 36 34 34 32 36
14 19 20 21 20 11 22 35 33 38 48 51 45 45 42 36 33 28 26 26 25 26 25 25 24 23 24 24 15 18 27 28 33 33 32 34 37 39 38 36 39 39 40
9 13 19 22 21 18 10 25 36 45 48 54 49 47 45 41 37 35 32 29 29 28 29 27 27 28 28 26 25 27 31 31 30 32 34 34 39 41 45 48 46 44 46
10 9 15 19 19 23 26 21 19 40 39 48 50 48 45 43 40 41 41 39 37 35 35 33 32 32 32 33 33 33 34 36 37 36 39 41 40 49 45 47 49 49 50
11 11 11 14 21 27 24 29 25 27 24 33 35 47 41 45 45 43 48 48 45 42 41 40 40 38 40 40 40 41 40 40 41 40 41 42 43 45 46 50 50 55 52
14 15 14 17 17 20 25 30 38 38 35 35 36 41 37 35 44 43 44 44 45 44 46 48 46 43 44 45 45 47 47 47 48 49 49 49 49 50 51 51 55 61 60
15 17 18 19 20 22 24 26 27 35 38 40 42 41 41 37 41 40 47 48 48 47 50 43 48 52 48 47 49 51 51 52 53 54 53 54 55 57 58 61 61 59 61
21 21 21 22 23 24 26 27 31 32 31 35 39 43 47 48 50 51 50 53 49 49 49 54 54 55 54 55 54 55 57 60 60 57 59 61 61 64 66 65 65 67 69
26 29 29 28 28 29 29 30 32 34 34 36 37 39 42 45 50 55 55 56 58 63 63 62 64 64 62 56 59 60 62 62 63 64 66 71 71 71 71 71 73 74 75
23 26 31 32 33 35 35 35 36 37 36 37 39 40 42 43 45 47 50 55 58 60 61 61 62 61 62 63 64 65 64 64 65 66 64 66 70 71 72 76 78 77 78
22 24 27 28 30 31 32 34 35 38 38 39 41 41 40 40 41 42 45 47 47 47 46 48 50 51 51 54 57 60 61 63 62 62 63 63 66 67 68 69 68 65 64
32 31 31 32 33 33 34 35 35 35 36 37 38 39 41 41 42 42 42 42 42 41 41 41 41 42 43 45 46 48 50 51 51 52 53 53 54 56 57 59 61 63 63
36 35 36 37 39 41 42 43 44 43 43 43 43 44 44 44 46 46 46 46 47 47 48 47 47 47 48 47 47 48 48 49 51 53 54 55 55 55 55 56 56 57 58
41 42 42 43 44 45 46 47 48 49 50 50 51 52 52 51 51 51 51 51 51 52 52 53 54 54 54 55 54 54 54 55 56 56 56 56 57 58 59 59 61 62 63
50 51 51 52 52 51 51 52 53 53 55 56 55 55 55 55 56 57 58 59 59 58 58 58 59 59 59 58 59 58 58 58 58 59 59 60 60 61 62 63 64 65 66
54 56 57 59 60 60 60 60 60 61 61 62 62 62 63 63 63 63 62 62 63 64 65 65 65 66 65 64 64 63 63 63 63 63 64 65 65 66 67 68 69 69 70
57 59 62 64 66 67 68 69 69 69 69 68 68 67 67 67 68 68 69 69 69 69 69 70 71 70 69 69 68 68 68 68 68 68 69 69 69 70 70 70 71 72 72
64 67 70 73 74 75 76 75 74 73 72 71 70 70 69 69 69 69 69 70 70 70 71 71 70 70 71 71 71 70 71 71 70 70 70 71 71 71 70 70 71 72 73
73 76 78 77 76 74 72 70 68 67 67 67 67 67 67 67 67 67 67 67 66 67 67 67 68 68 68 67 67 67 67 67 67 68 68 68 69 70 70 71 71 72 72

GFSGL_500_spd_102.txt.gz
Wind_Speed
25 28 30 31 35 31 35 37 33 33 33 40 42 39 35 37 38 29 29 29 27 28 28 28 28 28 29 29 30 32 35 40 41 38 40 40 40 46 45 43 41 46 42
25 28 32 30 34 31 34 33 35 35 36 41 42 39 44 41 30 29 26 26 27 28 30 32 31 32 33 32 35 37 36 37 37 39 41 38 36 35 34 32 37 37 36
24 24 29 32 34 31 34 35 35 37 37 40 40 40 45 30 31 28 26 27 28 29 31 32 34 36 34 34 37 38 35 39 36 38 45 35 35 34 37 35 33 36 35
26 29 21 27 33 25 31 29 40 35 37 38 36 33 36 33 31 30 27 29 30 32 31 33 35 35 34 38 32 33 39 42 40 35 43 34 33 34 35 36 37 37 36
31 21 20 32 34 25 28 23 37 36 36 36 36 34 34 33 34 31 26 29 32 33 34 34 34 34 30 30 24 29 33 36 38 45 45 37 36 34 34 34 35 36 34
18 20 18 24 35 35 33 34 36 41 41 41 40 40 40 38 35 33 28 28 33 33 34 31 31 31 25 26 27 28 28 36 37 38 38 40 37 33 31 28 29 30 31
19 18 23 18 27 27 20 21 23 33 33 37 36 39 40 42 40 35 28 28 32 34 32 29 29 25 25 17 28 32 32 32 32 38 38 40 34 31 32 30 31 30 31
17 20 23 21 16 18 21 27 33 26 31 37 40 42 45 44 42 36 32 30 31 31 31 29 27 25 21 20 17 32 32 34 33 39 36 39 34 33 34 33 33 33 35
15 16 18 21 19 18 19 22 29 31 35 36 41 45 48 45 43 38 34 32 29 29 31 29 27 26 23 22 21 19 28 29 32 30 31 33 32 32 34 37 38 41 40
10 15 16 22 22 19 18 11 22 27 34 38 37 50 50 44 46 42 38 35 33 30 30 31 30 28 27 26 24 24 23 20 21 28 29 32 33 35 34 39 41 39 41
10 9 13 14 19 21 22 22 13 28 36 41 38 43 52 49 50 47 43 41 38 36 34 34 34 32 32 32 31 29 28 28 29 31 31 31 32 33 40 34 40 42 44
8 11 12 11 13 19 21 20 22 23 30 40 39 36 42 45 52 52 47 46 44 42 41 40 40 38 37 38 38 35 34 33 33 34 35 37 39 38 40 44 45 47 50
10 11 11 14 16 16 17 23 23 28 25 24 31 33 35 40 45 56 51 50 45 46 44 48 46 45 47 44 45 43 42 43 43 42 43 44 43 43 46 47 47 48 52
15 16 16 16 16 18 21 22 22 24 33 37 35 37 38 39 37 48 41 39 41 52 47 42 47 50 52 52 51 50 50 47 49 52 49 51 52 53 53 54 55 55 58
22 23 23 23 23 23 23 23 24 28 31 31 33 33 34 38 41 43 44 46 45 41 45 43 45 47 51 52 53 53 51 52 52 51 54 56 58 60 61 60 61 64 63
21 24 26 29 30 32 33 33 32 31 31 34 36 37 38 39 38 40 44 46 50 52 50 51 52 56 55 53 54 56 59 59 58 60 59 59 63 65 66 67 66 66 66
24 27 29 31 32 32 35 38 40 41 40 39 39 41 42 42 44 46 48 44 45 48 53 58 60 60 63 66 64 64 66 68 69 69 68 67 65 66 68 69 69 69 70
25 26 28 30 33 33 35 37 38 40 41 43 45 45 45 47 47 47 47 49 50 50 51 52 52 54 59 63 65 67 67 70 70 68 67 69 70 70 70 69 69 69 71
29 30 31 32 34 35 38 40 42 42 43 43 43 43 45 46 48 50 52 52 51 51 52 53 54 54 55 56 57 59 61 62 62 59 61 62 63 63 64 65 65 65 66
39 42 42 43 43 44 44 45 45 45 46 48 50 51 51 50 50 50 51 51 53 54 54 55 56 55 55 56 55 55 54 54 54 54 54 54 55 55 56 57 58 58 58
43 45 48 50 51 52 53 54 54 54 53 53 52 53 54 55 56 56 57 57 57 57 57 57 58 59 59 59 59 58 57 57 58 57 57 57 57 57 57 58 59 60 59
51 54 55 56 57 58 59 59 60 60 61 61 61 60 59 58 59 59 60 61 61 62 63 64 64 64 64 63 62 62 63 63 63 63 62 62 63 62 63 63 63 62 63
54 56 58 59 61 62 62 63 64 65 66 66 66 66 66 66 66 66 66 66 66 66 67 67 67 68 68 68 68 68 68 68 68 67 66 66 66 66 66 66 66 66 66
59 60 61 62 65 67 70 72 74 75 76 76 76 75 75 74 74 72 71 71 71 71 71 71 71 72 72 72 72 71 71 70 70 70 71 71 71 71 71 71 71 71 71
66 68 71 74 77 78 79 79 80 80 80 79 79 78 77 76 76 75 74 74 73 74 74 74 74 73 74 74 74 74 74 74 73 72 72 71 71 72 72 72 71 71 72
76 78 76 71 66 63 61 59 58 58 58 58 59 60 61 62 63 65 67 68 70 71 72 72 72 73 72 72 73 73 73 73 73 73 72 72 71 71 71 71 70 69 69

GFSGL_500_spd_105.txt.gz
Wind_Speed
35 34 32 29 31 31 31 31 33 34 36 38 34 40 46 41 41 39 33 46 45 46 43 37 35 34 31 30 30 30 30 32 30 34 36 39 39 41 43 41 43 43 44
36 34 30 29 30 31 28 32 35 35 37 40 33 36 40 40 36 31 35 41 40 37 37 36 33 33 31 30 31 32 31 34 34 33 34 40 41 41 40 41 42 44 47
35 35 31 28 30 35 31 32 32 31 38 36 37 34 37 36 41 35 32 20 30 25 31 30 31 32 33 33 34 34 36 37 37 39 37 37 39 41 40 42 40 43 46
36 36 32 30 26 26 30 32 34 29 38 38 38 34 33 31 34 34 35 35 30 32 31 32 32 33 34 35 37 37 38 39 41 43 38 40 35 41 40 42 41 39 39
36 38 30 30 31 28 32 34 29 24 34 34 31 31 34 36 30 33 36 37 36 31 32 33 33 32 34 35 36 37 36 41 40 37 38 38 39 40 38 37 35 36 39
32 31 28 26 32 31 35 37 19 21 27 32 35 36 35 37 29 32 40 38 36 29 34 34 34 34 35 34 35 32 38 38 31 37 40 42 42 38 38 39 39 36 38
30 28 25 20 26 25 30 35 28 23 30 34 37 32 33 32 31 29 30 38 36 33 35 35 32 34 33 33 29 30 31 30 34 30 34 33 38 42 40 40 36 39 39
20 25 21 22 18 16 19 31 29 28 33 32 36 39 38 33 31 35 33 40 39 36 34 31 32 34 35 32 27 27 22 29 32 33 32 38 39 41 40 38 35 38 35
13 13 17 20 25 21 17 19 28 26 29 31 37 37 37 34 38 37 43 43 43 38 35 31 33 33 33 31 28 27 23 19 33 40 36 36 41 39 40 41 39 41 38
9 9 15 13 18 18 19 20 23 22 28 35 30 31 47 43 40 39 45 48 47 42 38 34 32 31 31 32 31 30 27 21 18 26 35 36 36 37 37 40 39 39 41
11 10 9 8 16 19 23 22 21 19 22 30 32 37 42 44 49 47 50 54 49 46 40 37 35 34 34 32 32 32 30 26 26 27 24 26 27 29 34 35 36 40 38
5 7 14 14 9 9 15 19 19 21 19 21 29 29 32 36 43 48 56 50 49 47 43 42 40 40 39 39 38 36 36 34 32 31 32 32 33 30 31 31 35 36 38
7 8 8 10 15 17 15 13 20 22 23 20 20 28 41 38 45 45 46 46 47 51 44 45 46 46 45 45 44 42 41 42 40 39 37 37 37 35 35 37 37 42 41
14 15 16 16 16 16 16 17 21 22 21 24 22 22 27 31 35 40 45 45 47 52 59 51 50 47 53 49 48 49 50 48 48 48 45 44 43 44 43 44 45 47 47
17 18 20 22 23 25 25 24 24 23 25 28 30 29 26 27 29 35 39 39 39 43 46 50 58 61 61 57 57 53 57 58 53 53 53 52 52 52 52 54 54 54 56
22 24 25 26 27 27 28 29 31 33 34 33 33 34 35 37 37 37 37 37 39 43 46 50 53 53 53 53 55 58 53 53 54 54 55 57 56 57 59 58 56 58 60
27 28 28 30 32 33 34 35 36 37 37 38 39 42 43 43 41 41 43 44 45 45 44 44 49 52 54 53 55 57 56 55 55 55 57 61 61 61 61 61 62 64 65
25 26 27 29 30 32 34 36 38 40 42 43 43 43 44 47 48 49 49 48 48 49 50 52 52 51 52 53 56 59 62 64 65 64 67 68 67 68 70 72 71 73 75
30 31 32 33 35 36 38 40 43 45 47 47 47 48 49 50 50 50 51 51 53 53 53 54 54 53 54 57 59 60 59 59 61 64 67 69 72 72 74 74 76 75 75
33 35 37 39 41 43 45 46 48 51 53 54 56 56 56 56 56 55 56 58 57 56 56 55 56 56 56 55 56 58 60 61 62 63 64 64 64 65 65 65 66 66 66
43 46 49 52 54 55 55 56 58 59 59 59 59 61 63 62 62 63 63 62 62 62 61 61 61 60 60 59 59 59 59 60 60 60 59 59 60 60 61 61 61 60 59
49 52 55 60 62 63 65 67 66 65 65 65 66 66 66 66 67 67 68 69 69 68 67 67 66 66 66 65 65 65 64 64 63 63 63 62 61 61 61 60 60 60 60
56 60 64 67 69 70 71 72 72 72 72 72 72 72 72 72 72 71 71 72 72 72 73 74 73 71 70 69 69 69 68 68 68 68 68 68 68 68 67 66 66 66 66
65 68 71 73 74 75 77 79 80 79 79 79 79 79 80 81 81 81 81 79 78 77 76 75 75 76 76 75 74 72 72 73 73 73 72 72 71 71 71 71 72 72 72
73 75 76 78 81 80 74 66 62 59 57 56 56 57 58 60 63 67 70 74 77 78 80 80 80 80 79 78 78 78 77 77 76 75 75 75 75 74 74 74 73 73 73
75 78 82 75 65 57 52 49 48 47 47 47 47 47 48 48 48 48 50 52 56 60 64 67 71 74 76 76 77 77 78 78 77 77 76 75 75 75 75 75 74 74 74

GFSGL_500_spd_108.txt.gz
Wind_Speed
35 36 40 44 39 39 39 36 36 33 37 39 41 39 41 38 40 41 42 43 35 47 42 44 37 38 43 42 35 35 36 36 31 30 32 33 35 30 37 37 39 37 39
36 40 40 43 38 38 37 33 29 32 35 41 39 37 36 34 32 36 39 39 40 42 48 46 37 38 42 40 38 36 35 37 34 32 33 31 32 36 40 37 40 41 44
38 42 42 43 38 37 36 34 28 29 26 30 34 35 37 37 33 36 36 34 37 41 42 31 39 37 41 40 38 35 36 36 35 32 31 32 35 35 37 41 43 43 42
40 44 45 44 38 38 37 35 32 32 31 32 36 36 34 38 29 30 33 28 28 26 29 29 31 36 40 38 36 36 36 37 36 36 36 35 36 38 41 44 41 41 39
42 46 48 44 36 38 41 34 29 29 33 33 28 31 31 39 31 26 28 33 35 30 33 31 32 36 38 37 38 39 40 40 39 39 39 40 40 42 45 44 39 40 37
44 48 48 36 33 36 34 39 30 36 23 30 28 37 31 33 28 29 30 31 28 26 35 30 32 37 37 37 37 37 38 38 39 40 41 43 44 38 41 45 39 40 36
45 46 37 36 31 31 29 24 27 29 32 27 25 35 42 28 32 34 31 32 29 33 36 32 33 37 35 36 39 38 37 39 40 39 42 41 36 37 42 42 37 36 35
38 34 34 34 28 25 20 19 25 24 25 23 27 26 30 33 32 35 34 30 35 36 36 35 35 36 35 38 40 37 35 39 35 34 31 32 36 31 36 40 37 40 35
27 29 22 18 18 21 24 21 17 20 30 30 31 33 28 35 32 33 32 33 33 32 34 37 39 37 34 37 40 37 36 36 33 30 28 31 32 34 33 35 40 41 41
16 11 9 6 13 15 18 19 22 19 21 29 29 31 30 38 36 36 34 39 37 37 36 36 42 40 39 38 37 38 37 36 33 30 25 31 33 37 36 37 46 45 39
11 12 9 7 4 2 9 16 15 15 19 24 23 30 33 33 40 42 46 47 48 45 45 42 43 46 45 42 38 37 37 36 33 31 27 24 21 30 35 40 44 42 42
3 4 7 11 15 14 10 4 7 10 13 15 18 18 30 31 36 45 45 53 57 53 49 50 47 51 49 45 41 40 39 41 36 34 32 30 31 30 30 26 28 33 34
7 8 9 10 11 11 13 17 19 14 11 10 13 15 19 22 29 39 43 40 48 48 50 53 59 52 50 47 46 44 43 43 42 41 37 36 35 35 32 30 33 31 33
8 9 11 13 14 15 16 17 17 17 20 22 20 18 19 18 18 22 30 36 40 44 47 44 53 54 51 50 51 51 49 49 47 46 46 43 40 40 40 39 40 39 38
15 17 18 20 21 22 22 23 23 23 23 24 25 28 29 28 25 23 25 27 31 35 37 44 51 51 55 62 61 65 54 55 53 54 52 50 49 51 47 48 46 45 44
24 25 26 27 27 28 28 30 31 31 32 34 33 33 33 34 35 39 38 35 33 31 31 35 38 43 50 53 58 56 57 58 53 54 56 58 54 56 59 57 56 54 54
22 23 24 25 26 26 28 29 30 31 34 35 36 38 40 42 42 41 41 43 45 47 46 43 40 41 41 43 46 49 49 56 60 62 60 61 62 62 59 60 58 57 58
22 24 26 28 30 31 33 35 36 37 37 39 40 41 42 44 45 45 46 47 47 48 48 50 51 52 51 50 47 47 47 47 51 55 55 59 62 63 60 58 57 59 62
30 32 34 38 40 42 43 44 45 47 49 50 50 50 50 51 50 50 51 53 53 52 53 53 53 53 55 57 57 57 57 57 56 55 55 56 59 62 63 65 66 66 67
37 41 43 46 47 50 51 52 55 56 58 58 61 61 61 60 60 60 60 58 58 59 60 59 57 58 58 57 58 59 61 61 62 62 63 64 64 64 64 64 65 66 68
44 46 48 52 55 57 59 62 64 66 68 69 70 73 75 74 72 72 70 69 66 64 65 65 66 65 63 62 62 62 62 62 62 63 65 66 66 66 66 66 66 67 68
46 49 52 55 58 63 66 69 73 77 80 82 84 84 82 80 79 77 76 75 72 72 70 70 70 71 71 70 69 67 66 67 67 68 67 67 67 67 67 67 67 66 65
51 55 59 63 67 68 73 78 80 80 83 86 86 85 85 82 80 79 79 80 79 78 77 76 75 74 74 74 74 74 73 72 71 70 70 70 70 70 70 69 68 67 68
60 62 67 72 74 76 79 83 84 77 68 63 60 59 59 58 58 58 59 65 71 74 79 80 81 81 79 77 77 77 77 77 77 75 74 73 73 72 72 71 71 71 71
65 67 73 75 78 80 83 73 63 59 56 55 54 53 52 52 51 51 50 49 52 54 57 61 66 72 78 80 81 81 81 80 79 79 78 77 76 75 74 74 74 73 73
69 72 75 78 80 78 66 61 60 58 56 55 54 53 53 52 51 50 49 47 47 49 49 49 51 54 57 62 67 72 76 80 81 81 80 80 79 78 76 76 75 74 74

GFSGL_500_spd_111.txt.gz
Wind_Speed
41 40 39 39 38 38 41 43 44 45 42 42 39 36 31 33 35 30 32 33 38 41 42 47 44 41 40 41 36 46 51 42 38 36 35 33 29 29 30 35 35 35 33
39 39 38 36 38 40 42 43 45 43 39 38 36 31 33 35 32 33 33 34 36 35 36 40 44 42 35 44 42 42 45 40 35 35 36 34 28 30 33 35 38 34 33
38 39 38 38 38 42 42 42 46 44 41 37 35 34 34 38 37 37 34 34 34 31 34 36 35 33 50 43 43 38 43 39 34 33 36 37 32 31 31 35 37 36 38
41 40 38 38 39 43 43 44 46 44 38 35 37 34 33 36 38 43 34 30 33 35 36 32 33 40 38 40 44 42 42 41 34 34 35 35 34 35 35 35 39 39 37
41 40 40 40 41 43 45 46 49 38 35 38 33 37 34 32 33 34 36 34 32 34 31 26 22 28 36 43 35 38 41 38 35 33 35 36 36 37 39 39 41 43 42
41 40 42 42 43 45 47 47 42 35 33 37 32 30 28 30 36 30 26 28 28 30 27 28 30 26 31 38 39 39 37 37 37 39 39 38 39 39 42 43 44 42 45
39 41 42 44 47 48 49 41 37 32 29 33 32 35 27 26 26 32 26 29 30 28 30 33 33 33 35 37 35 36 38 38 39 39 40 40 40 41 43 44 43 43 41
37 37 37 41 42 42 37 36 32 27 27 31 31 30 32 22 27 34 30 36 31 31 34 32 29 32 33 34 35 39 41 40 39 39 40 40 38 39 42 46 44 38 39
20 21 22 24 26 27 27 25 22 24 22 22 25 25 24 23 25 32 34 40 38 36 37 33 32 37 36 34 36 37 42 41 41 40 41 39 36 39 36 34 37 38 39
9 10 10 10 4 4 16 19 16 15 20 19 19 27 28 25 29 28 34 32 39 37 38 36 38 38 40 39 40 39 40 39 42 42 41 38 37 36 36 38 35 35 36
4 8 9 9 9 9 2 8 8 12 12 11 14 20 26 28 28 24 33 37 32 36 41 37 40 40 41 43 45 42 43 40 38 40 40 39 37 37 32 36 37 37 37
7 6 6 8 10 12 16 18 10 3 5 9 12 13 17 24 28 34 36 45 42 45 51 46 44 45 44 44 45 47 48 45 42 40 41 41 39 40 35 28 31 37 36
8 9 8 8 9 12 14 13 13 16 19 17 11 11 13 18 19 28 34 36 44 43 49 50 45 53 49 53 52 52 53 51 48 44 44 44 43 43 40 36 33 34 32
7 8 11 13 15 16 16 15 15 16 16 16 18 20 22 20 17 19 23 27 34 37 36 42 44 44 45 56 55 61 57 57 53 48 47 45 45 45 43 41 40 37 34
10 13 16 18 20 21 21 21 21 22 22 24 24 24 24 25 27 30 28 25 24 28 39 48 45 44 44 47 48 55 59 64 58 54 52 51 51 51 49 46 46 45 42
14 15 17 18 19 21 22 23 24 25 25 27 28 29 30 31 32 34 35 37 39 41 35 35 39 44 46 46 45 46 51 56 54 60 60 62 60 56 55 53 52 50 49
14 17 20 22 25 28 29 30 31 33 35 35 36 36 37 38 37 39 40 41 42 42 43 47 48 42 42 41 42 44 46 54 54 59 62 63 63 66 60 58 54 53 54
20 24 29 32 33 35 36 36 37 39 41 43 43 44 45 46 48 47 48 47 47 46 46 47 48 50 52 54 52 49 45 44 46 53 59 57 60 62 63 64 64 62 62
29 33 36 35 37 38 40 42 44 45 48 53 54 52 50 52 56 58 58 57 57 56 54 52 51 52 54 55 56 58 60 60 58 54 51 51 51 51 54 57 59 63 63
35 36 36 39 42 44 46 47 49 52 55 58 57 58 61 66 69 67 68 69 69 67 65 65 62 59 59 58 58 60 61 62 62 64 65 64 63 59 57 58 59 60 59
37 40 42 45 47 50 53 57 60 62 64 66 65 65 70 75 76 76 76 78 79 77 75 74 74 73 70 66 67 65 64 66 66 67 68 68 68 68 68 68 67 66 66
43 45 48 51 55 57 60 64 66 68 72 73 73 77 79 81 84 87 85 81 79 81 82 82 80 78 78 77 75 75 75 72 72 72 72 71 70 70 70 70 70 71 71
48 51 54 57 60 63 66 68 70 72 74 77 80 82 83 76 66 62 62 63 62 62 63 67 68 70 73 75 77 76 76 76 76 76 76 75 75 73 72 72 72 72 72
53 56 60 63 65 67 70 71 74 76 79 81 77 69 65 63 63 61 59 57 59 59 57 56 56 57 60 65 72 75 78 79 78 78 78 78 78 77 77 76 76 75 74
57 61 64 66 69 71 74 76 79 79 73 66 64 64 64 62 60 58 55 53 53 54 55 54 54 52 53 54 57 61 66 73 78 80 80 79 78 78 78 78 78 78 77
60 63 67 69 72 75 78 80 77 67 63 64 64 63 61 58 56 54 53 52 50 50 50 51 53 51 52 52 51 53 54 57 62 67 73 78 80 80 79 78 78 77 77

GFSGL_500_spd_114.txt.gz
Wind_Speed
29 34 39 42 40 41 43 44 43 44 45 49 45 43 46 48 47 47 45 41 38 38 32 33 36 34 34 39 52 53 51 48 45 42 49 40 44 36 34 33 32 30 26
39 42 42 41 40 42 42 43 44 45 46 47 46 43 45 45 43 41 38 36 38 37 31 33 34 32 41 34 47 45 41 41 42 41 38 39 40 38 36 36 34 31 26
47 51 48 41 38 41 41 42 45 44 47 44 45 43 43 43 42 40 36 37 36 38 35 34 32 31 38 43 42 43 39 39 35 32 39 43 41 39 37 35 34 36 36
53 49 46 41 40 41 40 42 46 47 45 47 45 45 40 39 39 39 39 41 43 38 34 35 29 31 36 45 44 47 42 40 38 41 45 39 38 41 39 37 33 34 35
49 44 41 39 40 41 41 44 45 47 46 43 43 44 38 37 36 38 38 42 41 37 42 33 36 34 30 39 41 39 40 41 44 47 41 40 39 40 40 38 36 33 33
41 41 40 40 42 42 44 44 44 46 47 44 45 39 38 30 32 35 39 31 36 37 39 32 32 33 31 29 31 35 35 37 49 47 44 43 37 38 39 37 39 37 36
42 41 41 41 43 44 45 45 46 48 47 45 41 40 33 27 27 28 31 32 29 34 41 44 36 34 32 26 24 30 33 39 39 41 43 40 39 39 41 41 39 40 40
44 40 39 40 42 42 46 48 49 49 46 40 38 36 33 26 28 32 28 30 29 33 37 36 35 31 36 30 28 34 41 45 45 42 41 41 41 42 43 43 43 43 43
17 18 21 20 21 23 26 31 36 37 34 33 33 32 25 27 27 27 26 28 34 32 36 34 32 31 29 31 36 38 41 41 39 40 40 40 41 43 43 41 41 43 42
12 7 6 6 10 13 12 13 15 20 27 27 27 26 21 22 27 25 24 23 31 34 31 35 33 33 36 35 39 38 41 38 39 40 44 45 43 43 42 42 39 40 39
7 6 11 12 5 7 10 10 14 11 2 10 11 11 17 22 24 30 27 28 26 34 32 38 37 34 41 38 39 40 44 41 42 43 41 41 44 44 42 40 39 39 35
5 4 7 8 8 9 11 12 13 15 20 20 18 12 5 8 16 25 28 28 31 36 36 39 51 43 42 36 42 41 43 47 45 45 44 42 41 41 41 40 41 38 36
8 5 4 4 7 8 10 12 13 16 16 16 16 17 18 20 15 12 16 26 32 38 39 40 44 41 44 43 44 49 51 51 51 49 49 47 46 45 41 41 43 41 38
3 5 6 8 10 12 14 15 18 19 20 19 19 19 19 20 21 22 25 22 19 24 33 44 50 51 52 53 50 51 54 57 56 53 50 50 50 51 47 44 45 44 43
5 7 9 12 14 16 17 19 20 21 23 24 25 25 26 26 26 26 27 29 31 32 28 28 34 39 45 54 55 62 62 59 56 59 58 57 56 55 55 51 47 45 46
6 9 13 17 21 22 22 23 24 24 25 26 28 30 32 32 32 33 34 34 34 35 37 38 39 38 36 41 50 51 51 50 52 54 54 61 62 61 63 59 54 50 49
10 14 19 23 24 23 23 26 29 30 30 31 34 35 37 37 38 39 39 40 40 41 40 41 42 42 44 49 46 44 45 51 55 55 54 57 57 64 63 66 62 59 59
18 21 25 26 27 27 30 32 33 36 40 42 43 44 46 47 47 47 47 47 48 47 47 47 48 49 50 50 50 53 56 52 49 53 57 61 59 61 64 66 66 67 69
22 25 29 30 32 34 35 37 40 44 48 51 53 54 55 54 53 53 53 53 54 56 58 59 58 57 57 57 58 57 56 57 60 61 56 60 62 61 58 62 65 67 69
27 29 32 35 36 37 40 44 47 51 54 56 56 59 62 62 62 63 63 62 61 62 65 66 66 66 64 63 62 63 65 64 62 61 61 64 64 64 62 58 60 60 63
30 33 36 39 41 44 47 50 53 56 57 59 62 65 66 66 68 69 69 70 71 72 72 72 71 71 71 72 72 71 70 69 72 70 67 65 65 66 68 70 69 67 64
34 36 40 43 45 48 51 52 54 58 61 64 65 67 68 69 72 75 78 78 76 75 74 73 72 71 72 74 76 78 82 83 81 78 78 74 71 70 68 69 70 71 71
38 42 45 48 50 50 53 58 61 65 69 71 72 72 74 77 76 72 69 67 68 68 67 66 65 64 64 64 63 64 68 74 79 82 82 82 81 79 77 75 74 74 73
44 47 50 50 51 54 58 63 67 71 74 76 78 79 76 71 67 66 66 65 64 64 65 64 62 60 59 60 61 60 59 60 66 75 80 82 81 82 82 81 80 79 78
48 50 51 52 57 61 66 70 74 76 77 79 77 71 68 68 69 68 64 61 58 55 55 56 57 58 57 56 56 57 57 56 57 60 67 74 80 82 82 82 82 82 80
51 51 53 58 62 66 70 74 77 78 80 75 69 67 68 66 62 59 56 54 53 52 51 51 51 52 52 52 52 53 54 55 54 55 57 59 63 68 74 79 80 80 79

GFSGL_500_spd_117.txt.gz
Wind_Speed
40 38 32 32 31 33 35 34 44 42 45 47 48 48 50 49 49 51 51 56 56 58 52 55 56 55 52 45 44 38 41 44 36 40 53 52 50 55 50 41 43 43 41
33 40 43 37 37 38 40 37 37 42 46 46 45 46 49 47 43 47 53 55 56 54 52 51 46 43 41 37 35 37 39 39 44 49 52 51 47 47 43 44 41 44 39
38 40 42 42 43 47 45 39 37 41 41 44 44 45 47 47 44 44 47 53 56 51 47 42 41 38 36 38 38 40 42 41 48 55 50 48 50 46 38 39 43 39 41
44 45 45 45 47 50 47 44 39 40 40 43 45 48 46 43 46 50 51 54 49 47 43 40 39 41 38 40 37 37 38 40 44 55 50 48 42 39 36 37 39 38 39
44 47 50 49 52 51 50 47 42 40 41 44 47 47 46 43 45 46 52 47 45 42 42 42 40 40 35 39 39 37 37 37 38 40 44 43 37 40 40 37 41 41 39
53 51 48 48 43 42 44 42 41 39 40 43 45 46 46 44 45 45 45 41 42 37 37 44 46 44 48 36 36 36 39 43 38 40 42 42 33 45 42 42 39 41 41
51 49 48 45 42 42 43 44 43 41 40 39 41 44 43 44 44 44 38 39 35 32 34 33 37 35 42 33 36 33 42 41 40 41 41 40 48 41 45 43 42 41 41
46 43 42 41 41 41 44 44 46 47 44 43 44 45 47 47 46 46 37 37 30 27 29 32 33 39 28 32 33 33 34 33 27 29 32 37 43 49 50 46 45 44 42
19 14 13 10 13 16 21 24 30 38 44 47 49 47 46 46 43 40 36 32 31 29 31 32 37 35 41 36 31 38 33 38 34 38 40 47 51 49 47 46 42 43 44
1 6 5 10 8 10 14 17 22 21 24 28 27 30 31 34 34 34 36 34 28 30 35 36 39 43 41 36 40 41 38 38 40 41 45 49 49 46 44 40 42 44 45
4 8 10 8 8 5 7 8 9 10 11 9 7 8 15 16 21 23 27 29 31 30 28 29 39 37 44 38 43 42 36 40 40 37 47 44 41 41 41 41 42 43 43
7 7 5 6 6 6 9 10 12 13 15 18 18 18 19 20 20 18 8 10 18 26 32 33 38 40 41 43 45 39 42 44 44 43 43 45 43 45 45 44 43 44 47
7 4 3 3 4 5 6 9 10 12 14 17 19 21 23 24 24 24 23 26 20 13 21 32 36 43 45 51 45 46 43 43 47 44 52 49 52 50 48 46 46 45 45
1 3 3 4 6 10 12 14 16 17 18 18 20 21 22 23 26 27 26 27 27 30 30 21 23 34 40 46 48 56 50 48 51 52 59 54 53 56 53 51 49 48 46
3 1 5 9 14 16 16 16 15 16 17 18 20 20 23 25 26 28 29 31 32 33 32 34 38 36 28 33 37 49 56 55 55 58 54 58 57 57 57 56 56 54 52
3 6 10 14 18 19 18 18 20 21 22 23 25 29 30 32 32 33 34 35 36 37 38 38 38 38 40 42 41 36 39 47 55 59 61 61 61 59 60 61 61 58 57
8 11 14 18 21 24 25 26 27 27 28 29 32 34 37 39 41 40 40 41 42 42 43 43 44 44 45 45 45 46 46 43 45 49 56 66 69 67 64 64 63 61 62
13 15 18 19 21 24 26 28 30 33 35 37 39 41 42 43 44 46 48 49 50 49 48 48 49 50 50 50 52 52 51 50 51 51 52 54 59 66 66 64 64 67 68
16 20 21 23 25 28 30 31 33 36 39 42 45 47 50 53 54 55 56 57 59 59 57 55 55 55 56 57 58 58 59 58 58 57 58 57 58 59 61 66 64 65 65
21 23 25 27 30 32 33 36 39 42 44 46 49 52 55 60 64 65 69 71 69 65 64 63 63 62 62 61 61 64 65 66 66 66 64 64 63 63 64 65 65 64 64
27 29 29 31 34 37 40 42 43 45 48 52 56 59 62 65 67 70 75 75 72 69 69 70 71 70 68 67 68 68 68 69 71 72 71 70 70 70 69 68 68 70 68
32 32 33 36 39 41 44 46 48 51 55 59 63 66 69 73 76 78 73 70 72 74 75 74 71 68 67 68 68 68 69 71 72 73 75 75 76 75 75 74 74 73 72
35 35 38 41 43 45 46 48 52 56 61 65 68 72 74 77 76 74 74 73 71 68 66 66 67 67 65 64 64 64 63 64 65 68 70 73 75 78 81 81 80 79 78
39 40 43 46 48 47 49 53 58 62 67 70 72 75 75 75 76 76 73 68 64 62 63 64 64 63 61 58 56 57 58 59 60 61 63 66 69 72 77 82 84 84 83
43 45 47 49 48 51 54 58 63 67 71 73 74 75 76 76 73 69 65 63 63 65 64 61 59 57 56 54 52 51 50 51 54 56 57 59 62 65 68 70 75 82 83
47 49 50 50 52 55 59 64 68 71 73 74 75 76 75 71 66 63 63 64 65 65 64 61 60 58 55 53 52 50 49 49 49 50 52 54 55 57 61 64 65 66 72

GFSGL_500_spd_120.txt.gz
Wind_Speed
44 42 41 44 43 46 30 30 28 27 30 32 34 47 45 46 49 50 51 51 51 50 50 53 55 58 56 58 60 59 60 61 60 55 56 59 59 57 50 56 52 49 51
36 31 28 26 29 31 32 33 34 29 30 29 33 35 40 50 46 49 49 49 49 49 47 49 55 58 58 61 58 56 58 54 48 51 48 44 44 54 48 56 52 48 50
24 30 31 33 34 37 37 37 39 40 37 34 32 35 36 40 43 45 48 47 49 48 46 50 51 55 59 57 52 51 44 41 42 39 36 39 45 48 52 49 47 49 46
35 35 34 35 39 40 39 43 40 40 41 41 36 34 38 39 42 45 46 45 44 44 50 54 56 58 57 51 49 45 40 41 37 41 42 39 44 43 51 51 47 44 39
38 39 41 41 43 44 44 45 46 44 44 40 40 36 35 39 41 44 43 45 43 45 48 52 56 55 50 48 44 41 44 41 42 42 48 44 49 37 51 49 46 44 43
35 39 41 40 42 45 41 40 45 46 46 43 42 37 35 35 36 37 40 40 41 46 48 51 52 48 48 49 44 44 43 38 41 41 41 44 44 44 46 42 43 43 44
31 32 33 32 33 34 36 39 40 41 41 43 41 38 37 37 37 37 40 41 43 44 47 50 48 47 49 43 47 48 47 46 46 42 42 37 34 32 40 47 43 43 41
29 26 21 20 21 21 25 27 29 31 33 41 45 44 43 43 41 40 39 41 42 43 45 47 47 47 47 46 39 40 49 54 53 44 44 46 39 37 42 46 45 46 44
8 4 2 4 7 8 11 13 16 19 21 25 29 29 32 37 39 40 41 42 44 45 45 45 45 46 41 35 33 38 50 40 41 40 45 38 41 44 46 53 53 49 45
4 3 8 12 9 7 7 8 8 6 7 8 12 17 23 26 28 31 33 36 40 42 46 43 45 44 40 33 35 32 33 35 40 39 39 39 36 42 44 45 44 58 51
3 7 7 4 3 2 6 5 7 9 11 13 14 13 14 13 10 14 20 24 29 34 38 40 45 40 41 40 37 37 36 33 41 39 41 41 42 42 40 43 46 50 52
6 7 7 6 5 5 5 6 8 9 11 13 14 15 17 19 20 22 21 21 20 16 20 23 30 35 34 35 41 42 42 49 49 41 48 49 41 45 48 50 48 54 54
8 4 3 3 3 5 8 11 12 13 13 13 13 15 17 19 20 21 23 25 26 28 30 30 28 18 20 29 31 42 48 48 50 54 54 46 42 41 47 50 53 58 51
2 2 1 2 5 9 12 13 14 14 16 16 16 16 17 20 23 25 27 28 29 28 29 31 33 34 35 32 26 31 41 43 51 52 54 50 54 48 49 58 53 49 47
3 4 5 7 11 13 15 15 16 16 17 19 20 21 23 23 25 26 28 29 30 30 31 32 33 34 36 36 38 37 31 39 40 50 57 56 55 54 52 56 51 54 55
8 8 10 12 15 17 19 18 17 18 19 21 22 25 27 29 31 31 32 34 35 36 37 37 37 37 37 39 40 40 41 42 38 41 46 59 63 61 58 59 58 53 54
11 12 14 16 19 21 22 22 24 24 24 24 28 30 32 33 34 36 37 38 39 41 42 42 42 43 44 44 44 45 45 45 45 47 45 45 50 61 65 68 67 62 60
15 16 17 19 21 22 24 27 28 28 29 30 32 34 37 39 42 44 47 48 49 51 52 52 52 52 51 51 50 50 50 51 51 51 51 51 51 49 51 54 61 67 69
19 21 22 23 24 25 28 30 32 35 36 37 39 41 44 47 49 51 53 55 57 59 61 61 61 62 63 62 59 57 56 56 57 58 58 58 57 58 57 53 55 58 68
23 24 26 27 29 30 32 36 38 40 40 41 42 45 48 52 54 55 58 61 64 66 67 70 71 70 67 63 62 61 61 61 62 63 64 66 66 66 64 64 63 61 63
25 27 28 31 33 36 38 41 43 43 43 45 48 51 53 56 59 61 64 67 69 70 73 74 73 71 69 67 66 66 66 66 66 67 69 71 72 73 73 73 72 70 69
27 30 32 35 39 41 44 46 46 46 47 50 53 56 59 62 66 69 72 75 76 76 75 72 71 71 72 72 71 68 66 65 66 68 69 72 75 77 79 80 79 78 77
32 34 36 39 43 45 47 48 49 50 53 54 59 62 65 68 72 75 77 78 76 76 76 75 74 71 67 64 63 62 62 62 62 63 65 67 70 74 78 81 83 84 83
36 38 40 44 47 48 51 52 52 54 55 60 64 67 70 74 76 77 77 77 76 75 72 67 64 62 61 61 62 64 64 63 61 60 60 62 64 68 71 74 78 82 85
40 42 44 47 50 52 55 55 55 58 60 66 70 72 75 76 76 76 76 74 70 65 63 63 63 64 64 64 63 62 61 60 59 57 54 54 56 59 64 67 70 72 75
42 44 48 50 52 55 57 57 59 62 67 71 73 74 75 75 75 73 69 65 62 62 63 64 64 64 62 59 56 52 51 51 51 52 52 51 51 53 54 58 62 65 67

GFSGL_500_spd_126.txt.gz
Wind_Speed
29 28 31 29 18 23 31 33 27 28 28 28 30 28 25 29 31 30 29 32 33 38 46 44 45 46 48 48 48 50 48 50 51 46 46 46 47 49 50 51 51 51 55
30 30 28 28 23 18 18 21 26 29 34 28 23 20 24 25 27 28 24 30 32 32 37 41 48 51 49 48 47 47 47 48 50 52 47 48 47 49 49 52 56 56 57
33 33 31 30 28 19 20 24 23 24 22 21 23 26 27 29 31 30 27 27 30 30 34 41 39 37 41 47 49 49 55 58 56 52 47 46 47 49 49 50 54 54 59
33 34 33 32 32 29 24 23 23 25 26 29 31 33 33 34 34 31 29 26 30 32 33 35 36 40 40 42 45 46 47 47 48 48 48 49 49 50 52 51 52 54 54
34 33 33 33 33 33 30 31 31 32 31 33 35 38 37 39 37 33 33 31 30 31 34 36 38 37 39 42 46 48 46 44 47 48 48 48 50 51 49 49 50 50 52
33 33 32 30 31 32 31 32 32 34 36 36 36 37 36 35 35 34 34 36 37 34 35 36 38 41 42 44 46 47 48 48 48 48 51 50 48 49 49 50 48 47 49
30 30 30 28 28 27 28 29 29 31 31 31 32 32 34 34 32 32 32 33 35 36 36 36 38 39 42 44 47 49 48 49 50 52 51 52 46 47 48 52 53 47 47
25 25 24 23 20 19 19 18 17 17 17 16 17 18 20 19 18 20 20 23 25 31 34 36 37 39 41 42 45 48 49 51 54 53 52 51 47 47 52 53 53 48 54
18 15 13 11 12 13 16 17 16 12 12 10 10 9 10 10 10 9 11 14 15 20 22 24 26 29 35 42 45 47 49 52 53 54 55 54 49 48 53 53 51 51 52
12 11 9 11 11 15 17 16 10 7 6 5 7 10 13 9 10 9 9 10 9 9 10 11 13 17 23 28 30 39 45 49 51 52 52 53 48 49 54 55 53 54 55
10 10 13 11 10 8 5 2 2 4 8 12 14 15 16 15 15 15 16 17 17 16 16 16 16 17 18 18 19 26 32 36 42 45 47 50 48 50 51 53 55 52 53
6 8 8 7 5 4 3 4 7 10 12 14 14 14 14 14 14 15 14 14 16 16 16 17 19 21 21 22 24 24 23 24 32 39 42 46 49 49 55 54 55 59 59
14 11 6 5 5 5 6 9 10 11 11 13 14 16 16 16 15 15 17 19 19 20 21 21 23 23 24 25 25 26 28 28 28 25 32 41 49 49 54 50 55 55 56
8 6 5 7 8 8 10 10 12 14 15 17 18 20 20 20 19 20 22 23 24 25 26 27 28 29 30 30 31 32 31 30 31 32 31 31 36 40 48 50 48 52 64
7 8 9 10 10 11 13 15 17 19 21 20 20 19 19 21 23 25 26 27 29 31 33 34 35 37 39 40 40 40 39 38 37 35 34 34 35 36 37 42 51 53 56
9 8 10 11 13 15 17 20 22 23 24 25 25 25 27 28 29 29 31 32 35 37 39 40 41 42 43 44 46 47 46 46 45 44 42 39 38 37 39 40 38 47 59
10 11 12 14 17 19 20 22 25 26 28 30 30 31 32 33 34 33 35 37 40 42 44 45 46 47 49 50 51 51 51 51 51 50 50 49 46 45 42 43 44 42 47
13 13 14 18 20 20 22 25 27 28 30 32 34 36 37 37 37 39 41 43 46 49 51 52 54 55 56 57 57 57 57 57 56 56 56 55 53 52 51 49 47 49 47
16 16 18 21 23 25 25 27 30 31 32 34 36 38 39 40 41 42 45 49 52 55 57 60 60 62 63 64 63 64 65 65 64 63 62 60 59 59 58 57 56 56 54
19 20 21 24 25 27 29 31 32 35 36 38 41 43 45 45 46 48 51 54 58 61 64 65 66 68 67 67 69 70 70 70 70 70 68 66 65 64 63 63 62 61 61
22 23 24 25 28 31 32 34 36 38 39 41 44 46 46 47 49 52 55 59 62 65 67 69 70 71 72 73 74 74 73 73 72 71 70 69 67 66 66 65 65 66 67
27 27 27 28 30 33 35 37 40 43 45 46 47 48 49 50 53 58 61 63 67 69 70 72 74 76 77 77 76 75 73 71 70 70 71 71 69 67 67 68 68 68 68
29 29 29 31 32 34 38 41 44 46 48 48 50 51 52 55 58 61 63 67 70 72 75 77 79 79 79 77 74 71 68 66 64 63 63 63 65 66 64 63 64 66 68
31 32 33 35 36 37 40 43 45 47 48 50 52 54 56 58 60 63 67 71 74 76 78 79 78 76 73 70 68 66 63 61 59 58 58 58 59 60 61 61 60 61 64
33 34 35 37 39 41 43 44 46 48 50 52 55 56 57 60 64 68 72 74 76 77 76 74 71 69 66 64 62 60 60 59 59 57 56 56 56 57 58 59 59 58 59
35 36 38 40 41 42 43 46 48 50 52 55 56 57 60 64 67 70 72 74 74 72 69 67 65 62 61 60 60 59 59 58 56 54 52 50 50 49 50 51 51 52 53

GFSGL_500_spd_129.txt.gz
Wind_Speed
42 43 42 40 38 37 31 29 34 35 28 32 24 22 29 36 34 30 28 32 36 35 37 37 37 43 48 49 47 47 51 50 53 48 49 51 51 50 50 50 50 49 48
40 40 38 37 35 35 33 31 29 29 32 31 32 28 32 35 31 29 29 28 30 34 39 37 35 38 45 47 47 46 46 47 47 49 47 49 50 50 51 49 50 49 49
40 38 38 38 38 36 35 33 32 30 29 30 31 32 29 28 27 29 30 31 31 31 35 38 33 33 34 43 48 49 47 47 47 49 45 47 48 49 51 53 53 53 54
40 38 39 39 39 36 36 35 33 34 29 27 28 28 27 29 30 32 33 35 36 35 34 34 36 33 33 38 45 51 55 49 50 53 51 52 51 52 52 54 54 54 52
38 38 41 40 37 36 34 34 33 33 35 33 33 32 33 34 34 37 38 38 38 38 39 37 36 37 36 37 40 44 45 53 52 50 55 53 53 54 55 54 54 53 50
39 39 39 40 38 37 35 33 32 32 32 33 33 33 36 36 37 38 37 38 37 37 38 39 39 39 40 40 41 42 44 46 43 47 50 51 54 56 56 56 55 53 50
37 37 37 37 38 34 31 29 28 25 25 26 28 27 26 29 28 31 31 34 38 38 38 38 38 38 41 44 45 44 44 46 48 49 52 53 56 54 54 56 56 54 49
33 31 31 33 30 23 17 17 15 17 16 14 15 16 16 17 17 18 19 22 24 27 31 34 37 38 40 43 46 47 47 46 47 49 51 54 56 58 59 57 55 54 53
28 27 27 23 15 11 13 14 17 20 17 13 12 12 12 13 15 14 15 15 16 16 17 20 23 21 22 26 31 36 45 48 48 49 50 53 56 56 56 58 58 57 57
22 19 16 11 12 11 12 17 14 10 9 7 7 9 12 14 13 14 14 14 13 14 15 16 16 16 16 17 17 20 23 28 36 47 51 52 53 55 56 57 58 59 58
17 17 13 14 10 7 9 6 4 4 6 9 11 13 15 17 17 18 18 17 18 17 17 18 19 20 19 20 20 21 21 22 24 25 28 35 44 52 57 59 59 56 58
15 13 7 10 8 6 4 4 5 7 10 12 13 14 16 17 17 17 18 18 17 19 19 19 19 20 21 22 23 24 24 25 26 27 28 29 31 35 44 50 54 57 57
14 13 10 8 5 4 6 7 9 10 11 11 11 12 14 16 16 17 15 17 19 21 22 23 24 25 26 27 28 29 31 32 32 34 34 34 34 34 34 36 44 50 56
15 16 11 9 7 8 10 11 11 11 11 13 14 16 18 19 18 18 20 21 22 24 26 28 30 32 34 35 36 37 39 39 38 38 39 39 39 39 39 39 39 38 45
12 11 11 10 10 11 13 14 15 16 17 18 19 20 22 23 24 25 26 28 28 27 28 31 34 36 38 40 40 41 42 44 46 47 48 48 48 47 45 44 43 43 40
14 14 14 14 14 14 16 17 19 21 21 21 23 25 26 29 30 32 33 34 34 35 36 37 39 42 44 45 46 48 48 49 49 50 51 52 52 52 53 53 52 49 46
18 16 16 16 15 17 18 20 22 23 23 23 25 28 30 32 34 35 36 37 39 39 41 42 46 49 50 52 53 54 54 55 56 56 55 54 55 56 57 57 58 57 55
19 19 19 18 19 19 21 23 24 25 25 26 28 30 32 34 36 39 41 44 46 47 49 49 52 53 56 57 59 59 60 61 62 62 62 62 61 60 59 61 62 62 61
22 22 23 22 22 22 24 25 26 27 28 29 30 32 34 36 39 43 47 48 48 50 52 55 57 59 61 63 64 65 66 67 67 67 66 67 67 66 66 65 64 64 65
24 25 25 26 27 26 26 27 28 29 31 32 34 36 39 41 44 48 48 48 50 51 53 56 59 63 66 66 67 68 69 70 72 73 74 74 72 70 70 70 70 69 68
26 27 27 28 30 30 31 31 30 31 34 37 41 44 46 48 50 51 51 51 52 54 56 59 63 66 67 68 70 73 75 77 77 77 76 75 74 72 71 70 71 71 70
29 29 30 31 33 34 35 34 34 35 37 39 42 45 47 48 50 51 52 54 55 58 61 64 67 69 70 73 76 77 78 78 76 75 73 72 71 70 70 69 69 70 70
31 32 33 34 34 36 36 37 38 39 42 44 45 46 47 50 52 54 55 56 59 62 65 67 70 71 73 75 76 75 73 70 67 65 62 60 60 60 61 61 62 63 64
33 35 35 36 37 38 39 40 40 42 43 45 47 48 51 54 54 55 57 60 63 65 67 69 70 71 70 69 68 66 64 62 60 58 58 57 57 57 57 58 58 58 58
35 37 38 38 39 40 40 40 42 44 46 47 48 51 54 54 55 57 61 63 65 67 67 67 66 65 64 64 63 61 60 59 59 59 58 58 57 55 54 54 54 54 55
39 38 37 37 39 39 39 42 44 45 46 48 51 54 54 54 57 61 63 64 64 63 61 60 59 60 61 61 60 58 58 59 59 59 57 55 52 50 48 47 46 46 46